[[{"header":{"parameterUnit":"m.s-1","parameterCategory":1,"la1":30.6,"la2":28.766,"lo1":-90.7593,"lo2":-88.6598,"dx":0.0162,"dy":0.0183,"nx":116,"ny":114,"refTime":"2022-12-07T18:00:00:Z","depth":0,"parameterNumber":2,"parameterNumberName":"U-component_of_WINDS"},"data":[0.0,0.0,0.0,0.0,0.0,0.0,0.0,0.0,0.0,0.0,0.0,0.0,0.0,0.0,0.0,0.0,0.0,0.0,0.0,0.0,0.0,0.0,0.0,0.0,0.0,0.0,0.0,0.0,0.0,0.0,0.0,0.0,0.0,0.0,0.0,0.0,0.0,0.0,0.0,0.0,0.0,0.0,0.0,0.0,0.0,0.0,0.0,0.0,0.0,0.0,0.0,0.0,0.0,0.0,0.0,0.0,0.0,0.0,0.0,0.0,0.0,0.0,0.0,0.0,0.0,0.0,0.0,0.0,0.0,0.0,0.0,0.0,0.0,0.0,0.0,0.0,0.0,0.0,0.0,0.0,0.0,0.0,0.0,0.0,0.0,0.0,0.0,0.0,0.0,0.0,0.0,0.0,0.0,0.0,0.0,0.0,0.0,0.0,0.0,0.0,0.0,0.0,0.0,0.0,0.0,0.0,0.0,0.0,0.0,0.0,0.0,0.0,0.0,0.0,0.0,0.0,0.0,0.0,0.0,0.0,0.0,0.0,0.0,0.0,0.0,0.0,0.0,0.0,0.0,0.0,0.0,0.0,0.0,0.0,0.0,0.0,0.0,0.0,0.0,0.0,0.0,0.0,0.0,0.0,0.0,0.0,0.0,0.0,0.0,0.0,0.0,0.0,0.0,0.0,0.0,0.0,0.0,0.0,0.0,0.0,0.0,0.0,0.0,0.0,0.0,0.0,0.0,0.0,0.0,0.0,0.0,0.0,0.0,0.0,0.0,0.0,0.0,0.0,0.0,0.0,0.0,0.0,0.0,0.0,0.0,0.0,0.0,0.0,0.0,0.0,0.0,0.0,0.0,0.0,0.0,0.0,0.0,0.0,0.0,0.0,0.0,0.0,0.0,0.0,0.0,0.0,0.0,0.0,0.0,0.0,0.0,0.0,0.0,0.0,0.0,0.0,0.0,0.0,0.0,0.0,0.0,0.0,0.0,0.0,0.0,0.0,0.0,0.0,0.0,0.0,0.0,0.0,0.0,0.0,0.0,0.0,0.0,0.0,0.0,0.0,0.0,0.0,0.0,0.0,0.0,0.0,0.0,0.0,0.0,0.0,0.0,0.0,0.0,0.0,0.0,0.0,0.0,0.0,0.0,0.0,0.0,0.0,0.0,0.0,0.0,0.0,0.0,0.0,0.0,0.0,0.0,0.0,0.0,0.0,0.0,0.0,0.0,0.0,0.0,0.0,0.0,0.0,0.0,0.0,0.0,0.0,0.0,0.0,0.0,0.0,0.0,0.0,0.0,0.0,0.0,0.0,0.0,0.0,0.0,0.0,0.0,0.0,0.0,0.0,0.0,0.0,0.0,0.0,0.0,0.0,0.0,0.0,0.0,0.0,0.0,0.0,0.0,0.0,0.0,0.0,0.0,0.0,0.0,0.0,0.0,0.0,0.0,0.0,0.0,0.0,0.0,0.0,0.0,0.0,0.0,0.0,0.0,0.0,0.0,0.0,0.0,0.0,0.0,0.0,0.0,0.0,0.0,0.0,0.0,0.0,0.0,0.0,0.0,0.0,0.0,0.0,0.0,0.0,0.0,0.0,0.0,0.0,0.0,0.0,0.0,0.0,0.0,0.0,0.0,0.0,0.0,0.0,0.0,0.0,0.0,0.0,0.0,0.0,0.0,0.0,0.0,0.0,0.0,0.0,0.0,0.0,0.0,0.0,0.0,0.0,0.0,0.0,0.0,0.0,0.0,0.0,0.0,0.0,0.0,0.0,0.0,0.0,0.0,0.0,0.0,0.0,0.0,0.0,0.0,0.0,0.0,0.0,0.0,0.0,0.0,0.0,0.0,0.0,0.0,0.0,0.0,0.0,0.0,0.0,0.0,0.0,0.0,0.0,0.0,0.0,0.0,0.0,0.0,0.0,0.0,0.0,0.0,0.0,0.0,0.0,0.0,0.0,0.0,0.0,0.0,0.0,0.0,0.0,0.0,0.0,0.0,0.0,0.0,0.0,0.0,0.0,0.0,0.0,0.0,0.0,0.0,0.0,0.0,0.0,0.0,0.0,0.0,0.0,0.0,0.0,0.0,0.0,0.0,0.0,0.0,0.0,0.0,0.0,0.0,0.0,0.0,0.0,0.0,0.0,0.0,0.0,0.0,0.0,0.0,0.0,0.0,0.0,0.0,0.0,0.0,0.0,0.0,0.0,0.0,0.0,0.0,0.0,0.0,0.0,0.0,0.0,0.0,0.0,0.0,0.0,0.0,0.0,0.0,0.0,0.0,0.0,0.0,0.0,0.0,0.0,0.0,0.0,0.0,0.0,0.0,0.0,0.0,0.0,0.0,0.0,0.0,0.0,0.0,0.0,0.0,0.0,0.0,0.0,0.0,0.0,0.0,0.0,0.0,0.0,0.0,0.0,0.0,0.0,0.0,0.0,0.0,0.0,0.0,0.0,0.0,0.0,0.0,0.0,0.0,0.0,0.0,0.0,0.0,0.0,0.0,0.0,0.0,0.0,0.0,0.0,0.0,0.0,0.0,0.0,0.0,0.0,0.0,0.0,0.0,0.0,0.0,0.0,0.0,0.0,0.0,0.0,0.0,0.0,0.0,0.0,0.0,0.0,0.0,0.0,0.0,0.0,0.0,0.0,0.0,0.0,0.0,0.0,0.0,0.0,0.0,0.0,0.0,0.0,0.0,0.0,0.0,0.0,0.0,0.0,0.0,0.0,0.0,0.0,0.0,0.0,0.0,0.0,0.0,0.0,0.0,0.0,0.0,0.0,0.0,0.0,0.0,0.0,0.0,0.0,0.0,0.0,0.0,0.0,0.0,0.0,0.0,0.0,0.0,0.0,0.0,0.0,0.0,0.0,0.0,0.0,0.0,0.0,0.0,0.0,0.0,0.0,0.0,0.0,0.0,0.0,0.0,0.0,0.0,0.0,0.0,0.0,0.0,0.0,0.0,0.0,0.0,0.0,0.0,0.0,0.0,0.0,0.0,0.0,0.0,0.0,0.0,0.0,0.0,0.0,0.0,0.0,0.0,0.0,0.0,0.0,0.0,0.0,0.0,0.0,0.0,0.0,0.0,0.0,0.0,0.0,0.0,0.0,0.0,0.0,0.0,0.0,0.0,0.0,0.0,0.0,0.0,0.0,0.0,0.0,0.0,0.0,0.0,0.0,0.0,0.0,0.0,0.0,0.0,0.0,0.0,0.0,0.0,0.0,0.0,0.0,0.0,0.0,0.0,0.0,0.0,0.0,0.0,0.0,0.0,0.0,0.0,0.0,0.0,0.0,0.0,0.0,0.0,0.0,0.0,0.0,0.0,0.0,0.0,0.0,0.0,0.0,0.0,0.0,0.0,0.0,0.0,0.0,0.0,0.0,0.0,0.0,0.0,0.0,0.0,0.0,0.0,0.0,0.0,0.0,0.0,0.0,0.0,0.0,0.0,0.0,0.0,0.0,0.0,0.0,0.0,0.0,0.0,0.0,0.0,0.0,0.0,0.0,0.0,0.0,0.0,0.0,0.0,0.0,0.0,0.0,0.0,0.0,0.0,0.0,0.0,0.0,0.0,0.0,0.0,0.0,0.0,0.0,0.0,0.0,0.0,0.0,0.0,0.0,0.0,0.0,0.0,0.0,0.0,0.0,0.0,0.0,0.0,0.0,0.0,0.0,0.0,0.0,0.0,0.0,0.0,0.0,0.0,0.0,0.0,0.0,0.0,0.0,0.0,0.0,0.0,0.0,0.0,0.0,0.0,0.0,0.0,0.0,0.0,0.0,0.0,0.0,0.0,0.0,0.0,0.0,0.0,0.0,0.0,0.0,0.0,0.0,0.0,0.0,0.0,0.0,0.0,0.0,0.0,0.0,0.0,0.0,0.0,0.0,0.0,0.0,0.0,0.0,0.0,0.0,0.0,0.0,0.0,0.0,0.0,0.0,0.0,0.0,0.0,0.0,0.0,0.0,0.0,0.0,0.0,0.0,0.0,0.0,0.0,0.0,0.0,0.0,0.0,0.0,0.0,0.0,0.0,0.0,0.0,0.0,0.0,0.0,0.0,0.0,0.0,0.0,0.0,0.0,0.0,0.0,0.0,0.0,0.0,0.0,0.0,0.0,0.0,0.0,0.0,0.0,0.0,0.0,0.0,0.0,0.0,0.0,0.0,0.0,0.0,0.0,0.0,0.0,0.0,0.0,0.0,0.0,0.0,0.0,0.0,0.0,0.0,0.0,0.0,0.0,0.0,0.0,0.0,0.0,0.0,0.0,0.0,0.0,0.0,0.0,0.0,0.0,0.0,0.0,0.0,0.0,0.0,0.0,0.0,0.0,0.0,0.0,0.0,0.0,0.0,0.0,0.0,0.0,0.0,0.0,0.0,0.0,0.0,0.0,0.0,0.0,0.0,0.0,0.0,0.0,0.0,0.0,0.0,0.0,0.0,0.0,0.0,0.0,0.0,0.0,0.0,0.0,0.0,0.0,0.0,0.0,0.0,0.0,0.0,0.0,0.0,0.0,0.0,0.0,0.0,0.0,0.0,0.0,0.0,0.0,0.0,0.0,0.0,0.0,0.0,0.0,0.0,0.0,0.0,0.0,0.0,0.0,0.0,0.0,0.0,0.0,0.0,0.0,0.0,0.0,0.0,0.0,0.0,0.0,0.0,0.0,0.0,0.0,0.0,0.0,0.0,0.0,0.0,0.0,0.0,0.0,0.0,0.0,0.0,0.0,0.0,0.0,0.0,0.0,0.0,0.0,0.0,0.0,0.0,0.0,0.0,0.0,0.0,0.0,0.0,0.0,0.0,0.0,0.0,0.0,0.0,0.0,0.0,0.0,0.0,0.0,0.0,0.0,0.0,0.0,0.0,0.0,0.0,0.0,0.0,0.0,0.0,0.0,0.0,0.0,0.0,0.0,0.0,0.0,0.0,0.0,0.0,0.0,0.0,0.0,0.0,0.0,0.0,0.0,0.0,0.0,0.0,0.0,0.0,0.0,0.0,0.0,0.0,0.0,0.0,0.0,0.0,0.0,0.0,0.0,0.0,0.0,0.0,0.0,0.0,0.0,0.0,0.0,0.0,0.0,0.0,0.0,0.0,0.0,0.0,0.0,0.0,0.0,0.0,0.0,0.0,0.0,0.0,0.0,0.0,0.0,0.0,0.0,0.0,0.0,0.0,0.0,0.0,0.0,0.0,0.0,0.0,0.0,0.0,0.0,0.0,0.0,0.0,0.0,0.0,0.0,0.0,0.0,0.0,0.0,0.0,0.0,0.0,0.0,0.0,0.0,0.0,0.0,0.0,0.0,0.0,0.0,0.0,0.0,0.0,0.0,0.0,0.0,0.0,0.0,0.0,0.0,0.0,0.0,0.0,0.0,0.0,0.0,0.0,0.0,0.0,0.0,0.0,0.0,0.0,0.0,0.0,0.0,0.0,0.0,0.0,0.0,0.0,0.0,0.0,0.0,0.0,0.0,0.0,0.0,0.0,0.0,0.0,0.0,0.0,0.0,0.0,0.0,0.0,0.0,0.0,0.0,0.0,0.0,0.0,0.0,0.0,0.0,0.0,0.0,0.0,0.0,0.0,0.0,0.0,0.0,0.0,0.0,0.0,0.0,0.0,0.0,0.0,0.0,0.0,0.0,0.0,0.0,0.0,0.0,0.0,0.0,0.0,0.0,0.0,0.0,0.0,0.0,0.0,0.0,0.0,0.0,0.0,0.0,0.0,0.0,0.0,0.0,0.0,0.0,0.0,0.0,0.0,0.0,0.0,0.0,0.0,0.0,0.0,0.0,0.0,0.0,0.0,0.0,0.0,0.0,0.0,0.0,0.0,0.0,0.0,0.0,0.0,0.0,0.0,0.0,0.0,0.0,0.0,0.0,0.0,0.0,0.0,0.0,0.0,0.0,0.0,0.0,0.0,0.0,0.0,0.0,0.0,0.0,0.0,0.0,0.0,0.0,0.0,0.0,0.0,0.0,0.0,0.0,0.0,0.0,0.0,0.0,0.0,0.0,0.0,0.0,0.0,0.0,0.0,0.0,0.0,0.0,0.0,0.0,0.0,0.0,0.0,0.0,0.0,0.0,0.0,0.0,0.0,0.0,0.0,0.0,0.4759,0.4676,0.0,0.0,0.0,0.0,0.0,0.0,0.0,0.0,0.0,0.0,0.0,0.0,0.0,0.0,0.0,0.0,0.0,0.0,0.0,0.0,0.0,0.0,0.0,-0.181,-0.1772,-0.1691,-0.1559,0.0,0.0,0.0,0.0,0.0,0.0,0.0,0.0,0.0,-0.1409,-0.1435,-0.1534,-0.1705,-0.193,-0.1871,-0.1714,-0.1548,0.0,0.0,0.0,0.0,0.0,0.0,0.0,0.0,0.0,0.0,0.0,0.0,0.0,0.0,0.0,0.0,0.0,0.0,0.0,0.0,0.0,0.0,0.0,0.0,0.0,0.0,0.0,0.0,0.0,0.0,0.0,0.0,0.0,0.0,0.0,0.0,0.0,0.0,0.0,0.0,0.0,0.0,0.0,0.0,0.0,0.0,0.0,0.0,0.0,0.0,0.0,0.0,0.0,0.0,0.0,0.0,0.0,0.0,0.0,0.0,0.0,0.0,0.0,0.0,0.0,0.0,0.0,0.0,0.0,0.0,0.5213,0.4968,0.0,0.0,0.0,0.0,0.0,0.0,0.0,0.0,0.0,0.0,0.0,0.0,0.0,0.0,0.0,0.0,0.0,0.0,0.0,0.0,0.0,-0.199,-0.2128,-0.2125,-0.211,-0.2092,-0.1872,-0.1719,-0.1665,-0.1484,0.0,0.0,0.0,0.0,-0.1329,-0.1496,-0.1652,-0.1767,-0.1931,-0.2154,-0.2453,-0.2618,-0.2499,-0.2154,-0.2062,0.0,0.0,0.0,0.0,0.0,0.0,0.0,0.0,0.0,0.0,0.0,0.0,0.0,0.0,0.0,0.0,0.0,0.0,0.0,0.0,0.0,0.0,0.0,0.0,0.0,0.0,0.0,0.0,0.0,0.0,0.0,0.0,0.0,0.0,0.0,0.0,0.0,0.0,0.0,0.0,0.0,0.0,0.0,0.0,0.0,0.0,0.0,0.0,0.0,0.0,0.0,0.0,0.0,0.0,0.0,0.0,0.0,0.0,0.0,0.0,0.0,0.0,0.0,0.5318,0.5561,0.623,0.6226,0.6032,0.5634,0.5602,0.5277,0.4841,0.537,0.0,0.0,0.0,0.0,0.0,0.0,0.0,0.0,0.0,0.0,0.0,0.0,0.0,0.0,0.0,0.0,0.0,0.0,0.0,-0.2154,-0.2347,-0.225,-0.2265,-0.2427,-0.2136,-0.195,-0.195,-0.1808,0.0,0.0,0.0,-0.1645,-0.1483,-0.1766,-0.1975,-0.2039,-0.2576,-0.288,-0.3001,-0.3327,-0.3354,-0.3166,-0.264,-0.2282,-0.2032,0.0,0.0,0.0,0.0,0.0,0.0,0.0,0.0,0.0,0.0,0.0,0.0,0.0,0.0,0.0,0.0,0.0,0.0,0.0,0.0,0.0,0.0,0.0,0.0,0.0,0.0,0.0,0.0,0.0,0.0,0.0,0.0,0.0,0.0,0.0,0.0,0.0,0.0,0.0,0.0,0.0,0.0222,0.0651,0.0,0.0,0.0,0.0,0.0,0.0,0.0,0.0,0.0,0.0,0.0,0.0,0.0,0.2963,0.4028,0.3601,0.3799,0.4588,0.4721,0.4914,0.5108,0.5541,0.5588,0.5341,0.5554,0.0,0.5152,0.5214,0.0,0.0,0.0,0.0,0.0,0.0,0.0,0.0,0.0,0.0,0.0,0.0,0.0,0.0,0.0,0.0,0.0,0.0,0.0,0.0,0.0,-0.2427,-0.245,-0.2393,-0.2332,-0.2225,-0.2117,-0.205,0.0,0.0,-0.2004,-0.1983,-0.1899,-0.215,-0.2415,-0.2666,-0.3206,-0.3453,-0.35,-0.3724,-0.3778,-0.3718,-0.346,-0.301,-0.244,-0.2341,0.0,0.0,0.0,0.0,0.0,0.0,0.0,0.0,0.0,0.0,0.0,0.0,0.0,0.0,0.0,0.0,0.0,0.0,0.0,0.0,0.0,0.0,0.0,0.0,0.0,0.0,0.0,0.0,0.0,0.0,0.0,0.0,0.0,0.0,0.0,0.0,0.0,0.0,0.0,0.0506,0.0672,0.1152,0.1625,0.2211,0.0,0.0,0.0,0.0,0.0,0.0,0.0,0.0,0.0,0.274,0.2556,0.2963,0.391,0.3675,0.3968,0.4787,0.4905,0.4998,0.5184,0.549,0.5541,0.5478,0.5675,0.5702,0.5595,0.5567,0.5874,0.6401,0.0,0.0,0.0,0.0,0.7456,0.7113,0.0,0.0,0.0,0.0,0.0,0.0,0.0,0.0,0.0,0.0,0.0,0.0,-0.2488,-0.265,-0.2729,-0.2584,-0.2589,-0.2523,-0.2388,-0.2308,-0.2281,-0.2321,-0.2284,-0.2281,-0.2292,-0.2567,-0.3022,-0.3696,-0.3975,-0.4189,-0.4338,-0.4357,-0.4335,-0.4335,-0.4182,-0.368,-0.2961,-0.2748,-0.2472,-0.2147,0.0,0.0,0.0,0.0,0.0,0.0,0.0,0.0,0.0,0.0,0.0,0.0,0.0,0.0,0.0,0.0,0.0,0.0,0.0,0.0,0.0,0.0,0.0,0.0,0.0,0.0,0.0,0.0,0.0,0.0,0.0,0.0,0.0,0.0,0.0,0.0,0.0,0.0511,0.0738,0.1423,0.1522,0.2015,0.0,0.0,0.0,0.0,0.0,0.0,0.2167,0.2162,0.2313,0.2682,0.2535,0.3016,0.4065,0.3931,0.4264,0.5032,0.509,0.5154,0.5343,0.5498,0.5555,0.5582,0.5746,0.5807,0.5848,0.583,0.6058,0.641,0.6839,0.7206,0.7532,0.7449,0.7194,0.6878,0.0,0.0,0.0,0.0,0.0,0.0,0.0,0.0,0.0,0.0,0.0,-0.2614,-0.293,-0.2987,-0.3039,-0.3221,-0.3034,-0.2883,-0.2876,-0.2637,-0.2537,-0.2685,-0.2551,-0.251,-0.2587,-0.3041,-0.396,-0.5363,-0.5155,-0.5345,-0.5864,-0.5436,-0.5253,-0.5198,-0.471,-0.4192,-0.3612,-0.3236,-0.2912,-0.2636,-0.2158,0.0,0.0,0.0,0.0,0.0,0.0,0.0,0.0,0.0,0.0,0.0,0.0,0.0,0.0,0.0,0.0,0.0,0.0,0.0,0.0,0.0,0.0,0.0,0.0,0.0,0.0,0.0,0.0,0.0,0.0,0.0,0.0,0.0,0.0,0.0,0.0,0.0,0.0,0.0884,0.0376,0.0,0.0,0.0,0.0,0.2593,0.2593,0.2347,0.1754,0.1767,0.2166,0.2834,0.237,0.2997,0.4837,0.429,0.4296,0.4918,0.5032,0.509,0.5097,0.5428,0.5542,0.5411,0.556,0.5596,0.5623,0.5607,0.5975,0.6459,0.6465,0.6623,0.6821,0.6569,0.625,0.5925,0.0,0.0,0.0,-0.21,-0.21,-0.21,-0.21,-0.2215,-0.2307,-0.2343,-0.2616,-0.2879,-0.3002,-0.3278,-0.3475,-0.3496,-0.3495,-0.3395,-0.3165,-0.3093,-0.3049,-0.2964,-0.291,-0.3143,-0.3755,-0.4521,-0.5207,-0.5819,-0.5979,-0.6179,-0.6409,-0.6388,-0.637,-0.636,-0.5608,-0.5179,-0.4927,-0.3993,-0.3416,-0.3037,-0.261,-0.2312,0.0,0.0,0.0,0.0,0.0,0.0,0.0,0.0,0.0,0.0,0.0,0.0,0.0,0.0,0.0,0.0,0.0,0.0,0.0,0.0,0.0,0.0,0.0,0.0,0.0,0.0,0.0,0.0,0.0,0.0,0.0,0.0,0.0,0.0,0.0,0.0,0.0,-0.005,-0.0153,0.0,0.1819,0.1885,0.1906,0.2057,0.1728,0.1633,0.1955,0.2002,0.25,0.3569,0.3406,0.3845,0.4991,0.4803,0.4851,0.5203,0.5264,0.5264,0.5331,0.551,0.5567,0.5521,0.5708,0.5895,0.595,0.5844,0.5892,0.6138,0.6065,0.6111,0.623,0.6125,0.5992,0.59,0.0,0.0,0.0,-0.21,-0.21,-0.21,-0.21,-0.2243,-0.2394,-0.2461,-0.283,-0.3115,-0.3215,-0.3566,-0.377,-0.3727,-0.3816,-0.3785,-0.3544,-0.3527,-0.3476,-0.3425,-0.3591,-0.4188,-0.5218,-0.5649,-0.6187,-0.6797,-0.6885,-0.7068,-0.7318,-0.7288,-0.7294,-0.7284,-0.637,-0.5997,-0.591,-0.4839,-0.403,-0.3426,-0.3075,-0.2711,-0.243,0.0,0.0,0.0,0.0,0.0,0.0,0.0,0.0,0.0,0.0,0.0,0.0,0.0,0.0,0.0,0.0,0.0,0.0,0.0,0.0,0.0,0.0,0.0,0.0,0.0,0.0,0.0,0.0,0.0,0.0,0.0,0.0,0.0,0.0,-0.1048,-0.136,-0.0587,-0.0762,-0.0387,0.113,0.1089,0.1109,0.1492,0.1137,0.1148,0.1725,0.1743,0.2313,0.368,0.3756,0.4282,0.5284,0.5335,0.5406,0.5508,0.5508,0.5508,0.5508,0.5641,0.5709,0.578,0.592,0.6124,0.6384,0.6207,0.6225,0.6221,0.5982,0.5888,0.5888,0.5888,0.5888,0.5949,0.0,0.0,-0.21,-0.21,-0.21,-0.2104,-0.2108,-0.2228,-0.2434,-0.2758,-0.3032,-0.3323,-0.3672,-0.3894,-0.4029,-0.4033,-0.4033,-0.4033,-0.4026,-0.3887,-0.387,-0.4012,-0.4618,-0.5594,-0.6872,-0.637,-0.6802,-0.8291,-0.779,-0.7977,-0.8687,-0.8215,-0.7919,-0.7908,-0.7029,-0.6639,-0.6568,-0.5695,-0.4754,-0.385,-0.3486,-0.3092,-0.2688,0.0,0.0,0.0,0.0,0.0,0.0,0.0,0.0,0.0,0.0,0.0,0.0,0.0,0.0,0.0,0.0,0.0,0.0,0.0,0.0,0.0,0.0,0.0,0.0,0.0,0.0,0.0,0.0,0.0,0.0,0.0,0.0,0.0,-0.0903,-0.1268,-0.1396,-0.0611,-0.1613,-0.1587,0.0469,0.006,0.0062,0.0927,0.099,0.099,0.1054,0.102,0.1745,0.3221,0.3332,0.4127,0.5596,0.5732,0.58,0.58,0.58,0.58,0.5803,0.5803,0.595,0.6097,0.6097,0.6312,0.6674,0.6674,0.6813,0.6954,0.6193,0.5921,0.5921,0.5917,0.5908,0.6026,-0.21,-0.21,-0.21,-0.21,-0.21,-0.2144,-0.2287,-0.2485,-0.2649,-0.284,-0.3231,-0.3563,-0.3743,-0.4002,-0.4229,-0.4331,-0.4341,-0.4297,-0.414,-0.4093,-0.4242,-0.4614,-0.5731,-0.6502,-0.6877,-0.7385,-0.7859,-0.8291,-0.8551,-0.8764,-0.8962,-0.9036,-0.9068,-0.8994,-0.8171,-0.7719,-0.7491,-0.663,-0.5916,-0.5288,-0.4133,-0.3407,-0.3105,0.0,0.0,0.0,0.0,0.0,0.0,0.0,0.0,0.0,0.0,0.0,0.0,0.0,0.0,0.0,0.0,0.0,0.0,0.0,0.0,0.0,0.0,0.0,0.0,0.0,0.0,0.0,0.0,0.0,0.0,0.0,-0.2109,-0.2368,-0.2056,-0.2678,-0.3033,-0.2717,-0.2682,-0.2187,-0.0789,-0.0428,0.0062,0.0955,0.1021,0.1234,0.1824,0.1841,0.2622,0.4147,0.3639,0.4094,0.5742,0.5209,0.5228,0.58,0.58,0.5875,0.6022,0.6022,0.6093,0.6309,0.6309,0.6456,0.6674,0.6674,0.6813,0.7003,0.6806,0.6728,0.6712,0.6509,0.6379,0.6398,-0.21,-0.21,-0.21,-0.21,-0.21,-0.2156,-0.2376,-0.2532,-0.2714,-0.2963,-0.3299,-0.3655,-0.3849,-0.4053,-0.4304,-0.4505,-0.4519,-0.4426,-0.4341,-0.4549,-0.4983,-0.5808,-0.6592,-0.7134,-0.7505,-0.8019,-0.8399,-0.8615,-0.8914,-0.9124,-0.9244,-0.9406,-0.9484,-0.9472,-0.8873,-0.8491,-0.8181,-0.7354,-0.6728,-0.6293,-0.516,-0.4498,-0.4148,-0.4409,-0.4249,-0.3906,-0.4282,-0.4082,-0.3642,-0.3592,0.0,0.0,0.0,0.0,0.0,0.0,0.0,0.0,0.0,0.0,0.0,0.0,0.0,0.0,0.0,0.0,0.0,0.0,0.0,0.0,0.0,0.0,0.0,0.0,-0.2667,-0.2997,-0.3039,-0.3493,-0.3773,-0.3649,-0.3326,-0.2759,-0.1818,-0.1027,-0.0262,0.0534,0.0879,0.131,0.1776,0.1779,0.2363,0.3559,0.316,0.3544,0.4792,0.4474,0.4497,0.4941,0.5315,0.5541,0.5619,0.6141,0.6437,0.6581,0.6733,0.6881,0.7032,0.7032,0.7102,0.7159,0.0,0.0,0.0,0.0,0.6729,0.6707,-0.2144,-0.2144,-0.2144,-0.2144,-0.2144,-0.2232,-0.2453,-0.2514,-0.2686,-0.3154,-0.3399,-0.364,-0.3973,-0.4138,-0.4247,-0.4426,-0.4508,-0.4515,-0.457,-0.5171,-0.5991,-0.7031,-0.7139,-0.7526,-0.8285,-0.8321,-0.8573,-0.9126,-0.9162,-0.9238,-0.9484,-0.9484,-0.9484,-0.9472,-0.919,-0.8981,-0.8663,-0.788,-0.735,-0.6961,-0.6416,-0.5882,-0.5471,-0.5523,-0.5294,-0.4978,-0.4978,-0.4772,-0.4459,-0.4359,0.0,0.0,0.0,0.0,0.0,0.0,0.0,0.0,0.0,0.0,0.0,0.0,0.0,0.0,0.0,0.0,0.0,0.0,0.0,0.0,0.0,0.0,0.0,0.0,-0.3197,-0.3648,-0.3837,-0.3854,-0.3835,-0.3883,-0.3748,-0.3305,-0.2531,-0.17,-0.0842,-0.0211,0.0503,0.0948,0.0951,0.0952,0.0,0.0,0.0,0.2655,0.3489,0.3639,0.3675,0.383,0.4533,0.4846,0.4927,0.5938,0.6479,0.6784,0.7022,0.7257,0.7484,0.7484,0.7484,0.7452,0.7208,0.7073,0.7056,0.7056,0.704,0.7023,-0.2451,-0.2429,-0.2429,-0.2429,-0.2429,-0.2572,-0.2986,-0.2838,-0.2984,-0.3876,-0.3738,-0.3718,-0.4032,-0.4158,-0.4207,-0.4234,-0.4395,-0.468,-0.5117,-0.6154,-0.6864,-0.7085,-0.7521,-0.7913,-0.8285,-0.8495,-0.8753,-0.9126,-0.9292,-0.943,-0.9484,-0.9484,-0.9484,-0.9472,-0.919,-0.8981,-0.8663,-0.8285,-0.797,-0.7681,-0.7568,-0.6779,-0.5774,-0.6089,-0.6039,-0.588,-0.6238,-0.6048,-0.565,-0.5653,-0.5149,-0.4542,-0.4396,-0.3901,0.0,0.0,0.0,0.0,0.0,0.0,0.0,0.0,0.0,0.0,0.0,0.0,0.0,0.0,0.0,0.0,0.0,0.0,0.0,-0.3308,-0.3532,-0.3856,-0.4018,-0.4047,-0.393,-0.3702,-0.3733,-0.336,-0.2405,-0.2154,-0.1764,-0.1081,-0.087,-0.0807,-0.0824,-0.0825,-0.0151,0.131,0.0775,0.1554,0.3728,0.3047,0.3132,0.383,0.3988,0.0,0.4302,0.4693,0.5312,0.6079,0.6318,0.6784,0.7484,0.7484,0.7484,0.7476,0.7407,0.7297,0.7171,0.7171,0.7078,0.7023,-0.2859,-0.2751,-0.2642,-0.2642,-0.2642,-0.273,-0.2972,-0.291,-0.3033,-0.3537,-0.3492,-0.3515,-0.388,-0.3915,-0.4002,-0.4177,-0.4646,-0.5117,-0.5714,-0.6588,-0.7246,-0.7467,-0.7858,-0.8219,-0.8477,-0.8741,-0.9004,-0.9274,-0.9418,-0.9484,-0.9484,-0.9484,-0.9484,-0.9472,-0.919,-0.8981,-0.8663,-0.8399,-0.8141,-0.7901,-0.7901,-0.7461,-0.6864,-0.7015,-0.6892,-0.6755,-0.6912,-0.6737,-0.6331,-0.6331,-0.6008,-0.5528,-0.5225,-0.4877,-0.4453,0.0,0.0,0.0,0.0,0.0,0.0,0.0,0.0,0.0,0.0,0.0,0.0,0.0,0.0,-0.4203,-0.4447,0.0,-0.4416,-0.429,-0.4378,-0.4433,-0.4248,-0.4259,-0.4228,-0.3966,-0.3876,-0.3671,-0.313,-0.2599,-0.2195,-0.1852,-0.1499,-0.1291,-0.1307,-0.1308,-0.0928,-0.0078,-0.047,-0.0078,0.125,0.0783,0.1017,0.1877,0.2344,0.2815,0.329,0.3992,0.4613,0.5154,0.5229,0.5696,0.624,0.6707,0.7096,0.7484,0.7484,0.7431,0.7354,0.7354,0.7297,0.7294,-0.3251,-0.3074,-0.2923,-0.288,-0.288,-0.289,-0.2885,-0.3024,-0.3128,-0.3261,-0.3304,-0.3414,-0.3734,-0.3738,-0.3887,-0.4268,-0.4969,-0.5658,-0.6147,-0.6838,-0.7461,-0.7901,-0.8099,-0.8363,-0.8669,-0.8884,-0.9154,-0.9484,-0.9484,-0.9484,-0.9484,-0.9484,-0.9454,-0.9388,-0.9112,-0.8849,-0.8585,-0.8327,-0.8093,-0.7901,-0.7901,-0.7901,-0.7901,-0.7783,-0.7574,-0.7365,-0.7317,-0.7078,-0.6805,-0.6805,-0.6622,-0.6326,-0.5938,-0.5723,-0.5491,-0.4718,-0.4322,0.0,0.0,0.0,0.0,0.0,0.0,0.0,0.0,-0.4735,-0.4974,-0.5009,-0.5198,-0.539,-0.5517,-0.5648,-0.5655,-0.5286,-0.5387,-0.5294,-0.4849,-0.4774,-0.4655,-0.4469,-0.4172,-0.3916,-0.3801,-0.3062,-0.2651,-0.2664,-0.2093,-0.1802,-0.1802,-0.1802,-0.1724,-0.1568,-0.1568,-0.1489,-0.1332,-0.1332,-0.094,-0.0235,0.0391,0.1095,0.1803,0.2738,0.3363,0.391,0.4295,0.4608,0.5002,0.5699,0.6475,0.7249,0.7249,0.7326,0.7484,0.7484,0.7484,0.7561,-0.3464,-0.3442,-0.3357,-0.3187,-0.3165,-0.3167,-0.3227,-0.3355,-0.3623,-0.4182,-0.3889,-0.3747,-0.403,-0.4151,-0.4335,-0.4603,-0.5451,-0.5925,-0.6029,-0.712,-0.7848,-0.7901,-0.7931,-0.8177,-0.8669,-0.8705,-0.8968,-0.9484,-0.9484,-0.9484,-0.9484,-0.9484,-0.9352,-0.9162,-0.8837,-0.8579,-0.8315,-0.8057,-0.7925,-0.7901,-0.7901,-0.7901,-0.7901,-0.7901,-0.7788,-0.7622,-0.7365,-0.7295,-0.7219,-0.7101,-0.6756,-0.6385,-0.6331,-0.5868,-0.533,-0.5209,-0.5022,-0.4877,-0.4814,-0.5201,-0.5541,-0.5175,-0.5429,-0.5795,0.0,-0.5701,-0.5756,-0.6359,-0.665,-0.6786,-0.6497,-0.6595,-0.6625,-0.6133,-0.6254,-0.644,-0.6487,-0.6106,-0.561,-0.5285,-0.4549,-0.3953,-0.3678,-0.3545,-0.3507,-0.3665,-0.36,-0.3526,-0.3526,-0.3526,-0.3136,-0.2353,-0.2353,-0.2038,-0.1332,-0.1332,-0.1254,-0.1175,-0.1096,-0.094,-0.0862,-0.047,0.0469,0.2032,0.3904,0.4686,0.4766,0.5002,0.5622,0.6318,0.6318,0.6784,0.7484,0.7484,0.7484,0.7561,-0.3506,-0.3506,-0.3464,-0.34,-0.3379,-0.3353,-0.3264,-0.3345,-0.3487,-0.3619,-0.3476,-0.3487,-0.3894,-0.4177,-0.4474,-0.4746,-0.5462,-0.608,-0.6401,-0.7235,-0.7786,-0.7895,-0.8045,-0.8231,-0.8447,-0.8603,-0.8789,-0.9016,-0.9016,-0.9016,-0.9016,-0.9016,-0.895,-0.8831,-0.8567,-0.8614,-0.8811,-0.8536,-0.8415,-0.8415,-0.8415,-0.8209,-0.7901,-0.7901,-0.7799,-0.7622,-0.7469,-0.7365,0.0,-0.6981,-0.6751,-0.6546,-0.6266,-0.5965,-0.5696,-0.5561,-0.5454,-0.5501,-0.5896,-0.6217,-0.6459,-0.6661,-0.6939,-0.7145,-0.7007,-0.7023,-0.716,-0.7305,-0.7435,-0.7512,-0.7504,-0.7628,-0.7516,-0.7031,-0.7166,-0.7229,-0.6867,-0.6769,-0.6648,-0.6504,-0.5862,-0.5022,-0.3855,-0.3705,-0.3722,-0.3761,-0.3763,-0.3763,-0.3763,-0.3763,-0.3606,-0.3294,-0.3294,-0.3057,-0.2741,-0.2741,-0.2507,-0.196,-0.196,-0.1724,-0.1332,-0.1175,-0.0783,0.0,0.1328,0.2419,0.312,0.3517,0.4455,0.5467,0.5467,0.5699,0.6163,0.7173,0.7484,0.7561,-0.3506,-0.3506,-0.3506,-0.3506,-0.3506,-0.3442,-0.3229,-0.3398,-0.3465,-0.3249,-0.3226,-0.3373,-0.3753,-0.402,-0.4327,-0.4697,-0.5402,-0.6016,-0.6412,-0.7168,-0.7686,-0.7834,-0.8039,-0.8213,-0.8291,-0.8477,-0.8609,-0.8681,-0.8681,-0.8792,-0.8974,-0.8974,-0.8982,-0.9068,-0.887,-0.8951,-0.9289,-0.913,-0.904,-0.904,-0.904,-0.8679,-0.8156,-0.8075,-0.7926,-0.7721,-0.7506,-0.7319,-0.7136,-0.6799,-0.6595,-0.6427,-0.6126,-0.6019,-0.5986,-0.582,-0.582,-0.6052,-0.6699,-0.6993,-0.7223,-0.7849,-0.8111,-0.8149,-0.7985,-0.797,-0.7983,-0.7822,-0.7849,-0.7946,-0.818,-0.8267,-0.818,-0.7827,-0.8014,-0.8034,-0.7619,-0.7647,-0.763,-0.7528,-0.6927,-0.5925,-0.4616,-0.4231,-0.3997,-0.3841,-0.3763,-0.3763,-0.3763,-0.3763,-0.3763,-0.3763,-0.3763,-0.3763,-0.3763,-0.3763,-0.345,-0.2823,-0.2823,-0.2586,-0.1958,-0.1724,-0.1646,-0.1568,-0.0548,0.0469,0.1327,0.1956,0.3052,0.438,0.438,0.4613,0.516,0.6398,0.6942,0.7173,-0.3506,-0.3506,-0.3506,-0.3506,-0.3506,-0.3442,-0.3229,-0.3593,-0.3788,-0.3519,-0.3541,-0.3651,-0.3788,-0.3687,-0.3875,-0.4443,-0.523,-0.5712,-0.5728,-0.6919,-0.7595,-0.7607,-0.7822,-0.8033,-0.8285,-0.8297,-0.8423,-0.8681,-0.8681,-0.8968,-0.9557,-0.9557,-0.9733,-0.994,-0.9926,-0.9807,-0.9577,-0.9569,-0.9562,-0.9562,-0.9562,-0.9249,-0.8744,-0.8464,-0.83,-0.8106,-0.7506,-0.7095,-0.6784,-0.6639,-0.6334,-0.604,-0.6024,-0.6019,-0.6019,-0.6013,-0.618,-0.6514,-0.7217,-0.7664,-0.8094,-0.8729,-0.8749,-0.8652,-0.8585,-0.8187,-0.779,-0.7795,-0.7978,-0.8202,-0.8207,-0.8344,-0.8506,-0.8447,-0.8831,-0.9125,-0.913,-0.8876,-0.8613,-0.838,-0.723,-0.6388,-0.6163,-0.524,-0.4465,-0.3841,-0.3763,-0.3763,-0.3763,-0.3763,-0.3763,-0.3763,-0.3763,-0.3763,-0.3763,-0.3763,-0.3763,-0.3763,-0.3763,-0.3763,-0.3684,-0.2823,-0.2431,-0.2353,-0.094,-0.0235,-0.0157,0.0392,0.1568,0.2895,0.2895,0.3752,0.5004,0.5082,0.5544,0.6318,-0.3506,-0.3506,-0.3506,-0.3506,-0.3506,-0.3485,-0.34,-0.3499,-0.3529,-0.344,-0.3567,0.0,0.0,0.0,0.0,0.0,-0.494,-0.5413,-0.6101,-0.657,-0.6969,-0.7322,-0.7589,-0.7926,-0.8378,-0.8566,-0.887,-0.9289,-0.9289,-0.9397,-0.962,-0.962,-0.9671,-0.9722,-0.9722,-0.9874,-1.0138,-1.0138,-1.0138,-1.0115,-0.9892,-0.9442,-0.8897,-0.8602,-0.8043,-0.7379,0.0,-0.7102,-0.7116,-0.6426,-0.6135,-0.5992,-0.5841,-0.59,-0.613,-0.6741,-0.7098,-0.7548,-0.8481,-0.8813,-0.9075,-0.9763,-0.9807,-0.9569,-0.932,-0.9126,-0.8877,-0.8368,-0.8334,-0.8393,-0.8393,-0.8458,-0.8517,-0.8517,-0.8904,-0.9206,-0.9206,-0.9395,-0.9463,-0.9382,-0.8775,-0.8161,-0.7693,-0.6237,-0.5237,-0.5004,-0.5004,-0.4849,-0.4387,-0.4774,-0.4849,-0.4387,-0.4387,-0.4387,-0.4387,-0.3997,-0.3763,-0.3763,-0.3763,-0.3763,-0.3763,-0.3528,-0.3372,-0.3294,-0.2195,-0.1568,-0.1097,-0.0314,0.0549,0.1333,0.1333,0.1647,0.2115,0.2584,0.3283,0.4217,-0.3506,-0.3506,-0.3506,-0.3506,-0.3506,0.0,0.0,0.0,0.0,0.0,0.0,0.0,0.0,0.0,0.0,0.0,0.0,-0.5104,-0.5796,-0.6204,-0.6568,-0.6908,-0.7261,-0.7598,-0.7944,-0.8125,-0.842,-0.8717,-0.8861,-0.9062,-0.9277,-0.9589,-0.9733,-0.9776,-0.995,-1.0092,-1.0278,-1.0278,-1.0474,-1.0661,-1.0173,-0.9707,-0.9261,-0.8662,-0.7939,0.0,-0.6821,-0.6947,-0.7174,-0.6308,-0.6129,-0.6219,-0.6108,-0.6292,-0.6713,-0.7633,-0.7941,-0.8255,-0.9439,-0.9585,-0.9692,-1.0624,-1.0504,-1.01,-0.9906,-0.9572,-0.9162,-0.8618,-0.8258,-0.8096,-0.818,-0.8191,-0.8217,-0.8172,-0.8628,-0.8996,-0.9001,-0.9401,-0.9771,-0.9846,-0.9549,-0.9089,-0.8537,-0.7314,-0.6318,-0.5854,-0.5699,-0.547,-0.5007,-0.5392,-0.5392,-0.5007,-0.5007,-0.5007,-0.5007,-0.4737,-0.4617,-0.4656,-0.4416,-0.4259,-0.4259,-0.4021,-0.3861,-0.3861,-0.3135,-0.2493,-0.193,-0.1207,-0.0483,0.0241,0.0239,0.0398,0.0635,0.1102,0.1568,0.2427,-0.3506,-0.3506,-0.3506,0.0,0.0,0.0,0.0,0.0,0.0,0.0,0.0,0.0,0.0,0.0,0.0,0.0,0.0,0.0,-0.4806,-0.5766,0.0,-0.6374,-0.6866,-0.7139,-0.7187,-0.7211,-0.723,-0.7271,-0.77,-0.8172,-0.8756,-0.9548,-0.9953,-1.0109,-1.0484,-1.0441,-1.0092,-1.0092,-1.054,-1.1122,-1.0377,-0.996,-0.9708,-0.8749,-0.8016,-0.7471,-0.6708,-0.6702,-0.6971,-0.6266,-0.6319,-0.6725,-0.6757,-0.7154,-0.7759,-0.8611,-0.8679,-0.8745,-0.9955,-0.9947,-0.9883,-1.1144,-1.0876,-1.0328,-1.0288,-0.9608,-0.8804,-0.8498,-0.7855,-0.7446,-0.7541,-0.7633,-0.7636,-0.7538,-0.8205,-0.8709,-0.8725,-0.9112,-0.9549,-0.9846,-0.962,-0.9241,-0.878,-0.8403,-0.7638,-0.6395,-0.5931,-0.5699,-0.5622,-0.5699,-0.5702,-0.5631,-0.5634,-0.5637,-0.5643,-0.5854,-0.5981,-0.6188,-0.5527,-0.5196,-0.5113,-0.445,-0.4118,-0.4118,-0.3695,-0.3276,-0.2775,-0.2354,-0.1512,-0.0503,-0.0493,-0.0081,0.0487,0.0556,0.0552,0.0945,0.0,0.0,0.0,0.0,0.0,0.0,0.0,0.0,0.0,0.0,0.0,0.0,0.0,0.0,0.0,0.0,0.0,0.0,-0.477,-0.5067,0.0,0.0,0.0,0.0,0.0,-0.7317,-0.7718,-0.8103,-0.8761,-0.9128,-0.9313,-0.9818,-1.0094,-1.0092,-1.0194,-1.0186,-1.0092,-1.0092,-1.0049,-0.9992,-0.9504,-0.9105,-0.8804,-0.8249,-0.7616,-0.6962,-0.6712,-0.6655,-0.6597,-0.6256,-0.658,-0.725,-0.7747,-0.816,-0.8594,-0.9336,-0.9503,-0.9582,-1.0294,-1.0337,-1.0383,-1.1034,-1.0887,-1.0479,-1.0354,-0.9695,-0.8989,-0.8516,-0.7855,-0.74,-0.7456,-0.7466,-0.7659,-0.8131,-0.8963,-0.9553,-0.9678,-1.0489,-1.0812,-0.9992,-1.0218,-1.0212,-0.9614,-0.8932,-0.8399,-0.8084,-0.7399,-0.6788,-0.6405,-0.6788,-0.6839,-0.6482,-0.6486,-0.6541,-0.6739,-0.6286,-0.6157,-0.6188,-0.6022,-0.5942,-0.5942,-0.5693,-0.561,-0.561,-0.5191,-0.4608,-0.3938,-0.3185,-0.2349,-0.1596,-0.1255,-0.1002,-0.075,-0.0331,-0.0165,0.0083,0.0,0.0,0.0,0.0,0.0,0.0,0.0,0.0,0.0,0.0,0.0,0.0,0.0,0.0,0.0,0.0,0.0,0.0,0.0,-0.4502,-0.4818,-0.5231,0.0,0.0,0.0,-0.6565,-0.6887,-0.7161,-0.7768,-0.8074,-0.8074,-0.8804,-0.9098,-0.8906,-0.924,-0.9307,-0.9112,-0.9112,-0.923,0.0,0.0,-0.8399,-0.8187,-0.762,-0.6937,-0.6296,-0.6429,-0.6626,-0.6873,-0.6934,-0.7431,-0.8097,-0.8617,-0.9011,-0.9475,-1.0267,-1.0309,-1.0257,-1.0971,-1.0933,-1.0833,-1.1225,-1.0921,-1.0455,-1.021,-0.9453,-0.8636,-0.8181,-0.7421,-0.6879,-0.6983,-0.7173,-0.7452,-0.7952,-0.889,-0.9675,-1.0053,-1.0742,-1.1126,-1.0726,-1.0962,-1.0887,-1.0143,-0.9703,-0.9299,-0.8604,-0.8371,-0.7909,-0.7137,-0.7903,-0.7991,-0.7369,-0.7292,-0.7457,-0.7632,-0.7293,-0.7161,-0.7232,-0.6885,-0.6796,-0.68,-0.6455,-0.6288,-0.6288,-0.6028,-0.5515,-0.4825,-0.388,-0.3022,-0.242,-0.1628,-0.1367,-0.1279,-0.0929,-0.0757,-0.0673,0.0,0.0,0.0,0.0,0.0,0.0,0.0,0.0,0.0,-0.3817,-0.37,-0.3567,-0.3336,-0.3281,0.0,0.0,0.0,0.0,0.0,0.0,-0.4429,-0.4691,0.0,0.0,-0.5377,-0.542,-0.5438,-0.5438,-0.5874,-0.6131,-0.6172,-0.7287,-0.7666,-0.744,-0.808,-0.8168,-0.7826,-0.7826,-0.8142,-0.8588,-0.7937,-0.7646,-0.7526,0.0,-0.6225,-0.5643,-0.6062,-0.6713,-0.7449,-0.7843,-0.8448,-0.906,-0.9378,-0.9771,-1.0293,-1.1165,-1.0987,-1.0699,-1.1655,-1.1546,-1.1143,-1.149,-1.0934,-1.0258,-0.9983,-0.8991,-0.8049,-0.777,-0.6912,-0.6265,-0.6454,-0.6771,-0.7124,-0.7405,-0.8498,-0.9574,-1.0312,-1.0725,-1.1099,-1.1675,-1.1781,-1.1422,-1.0564,-1.0605,-1.0115,-0.8731,-0.9151,-0.9002,-0.8032,-0.8972,-0.9241,-0.8457,-0.8317,-0.8325,-0.8491,-0.841,-0.8406,-0.8568,-0.7937,-0.7669,-0.7665,-0.6962,-0.6697,-0.6697,-0.6697,-0.6248,-0.5536,-0.4648,-0.3758,-0.2861,-0.1932,-0.1482,-0.1393,-0.1369,-0.1274,-0.1274,0.0,0.0,0.0,0.0,0.0,0.0,0.0,0.0,0.0,0.0,-0.4205,-0.3907,0.0,0.0,0.0,0.0,0.0,0.0,0.0,0.0,0.0,-0.4126,0.0,0.0,-0.4271,-0.4502,-0.4618,-0.4618,-0.524,-0.5637,-0.5875,-0.6491,-0.699,-0.7388,-0.7524,-0.753,-0.7415,-0.7415,-0.7132,-0.667,-0.6541,-0.631,-0.6001,-0.5864,0.0,0.0,-0.6062,-0.6884,-0.786,-0.8265,-0.8865,-0.9528,-0.9891,-1.0331,-1.0812,-1.1178,-1.0925,-1.0644,-1.1422,-1.1368,-1.1085,-1.1143,-1.0628,-0.9969,-0.9666,-0.8642,-0.7776,-0.7735,-0.6912,-0.6218,-0.6256,-0.611,-0.6466,-0.7665,-0.8747,-0.9756,-1.0903,-1.1937,-1.2329,-1.1749,-1.215,-1.2324,-1.1878,-1.1621,-1.1031,-1.0054,-1.0648,-1.0423,-0.9185,-1.0014,-1.0524,-1.0476,-0.9909,-0.9597,-0.963,-0.8948,-0.8536,-0.8568,-0.8476,-0.8388,-0.8388,-0.8296,-0.8208,-0.8208,-0.8208,-0.7676,-0.6782,-0.6242,-0.4999,-0.34,-0.2854,-0.2139,-0.1427,-0.1422,-0.1421,-0.1331,0.0,0.0,0.0,0.0,0.0,0.0,0.0,-0.4993,-0.5129,-0.5201,-0.4994,-0.4672,-0.4259,-0.3968,-0.3749,0.0,0.0,0.0,0.0,0.0,0.0,0.0,0.0,0.0,-0.3992,-0.4126,-0.4199,-0.4199,0.0,-0.473,-0.4866,-0.5383,-0.5763,-0.6067,-0.6328,-0.644,-0.6418,-0.6418,-0.6205,-0.5881,-0.5881,-0.566,-0.5327,0.0,0.0,0.0,-0.5822,-0.6703,-0.7778,-0.7954,-0.877,-0.9779,-1.0279,-1.0725,-1.1183,-1.1539,-1.1312,-1.1071,-1.163,-1.157,-1.135,-1.1114,-1.055,-0.9836,-0.925,-0.8296,-0.7477,-0.7216,-0.6483,-0.5883,-0.5883,-0.5982,-0.6284,-0.7143,-0.8336,-0.9603,-1.0698,-1.1793,-1.2474,-1.2377,-1.2802,-1.2882,-1.2423,-1.2472,-1.2139,-1.1158,-1.2023,-1.1461,-0.8989,-0.9745,-1.0611,-1.1144,-1.0322,-0.9859,-0.9859,-0.8999,-0.8568,-0.8568,-0.8568,-0.8568,-0.8568,-0.8568,-0.8568,-0.8568,-0.8568,-0.8208,-0.758,-0.6773,-0.5797,-0.4734,-0.3401,-0.2598,-0.2152,-0.1614,-0.1436,-0.1345,0.0,0.0,0.0,0.0,0.0,0.0,0.0,-0.5291,-0.5425,-0.5645,-0.5681,-0.5426,-0.4745,-0.4369,-0.4041,0.0,0.0,0.0,0.0,0.0,0.0,0.0,0.0,0.0,0.0,0.0,0.0,-0.3828,-0.3828,0.0,0.0,0.0,0.0,0.0,-0.5278,-0.5499,-0.5498,-0.5498,-0.5447,0.0,0.0,-0.5199,-0.4971,0.0,0.0,0.0,0.0,-0.6462,-0.761,-0.7693,-0.8602,-0.9801,-1.0362,-1.0829,-1.12,-1.1491,-1.1399,-1.1303,-1.1791,-1.1705,-1.1439,-1.1048,-1.0443,-0.9683,-0.8873,-0.8047,-0.7251,-0.6786,-0.6137,-0.5585,-0.5585,-0.581,-0.6062,-0.644,-0.7675,-0.8978,-1.019,-1.1198,-1.2071,-1.2928,-1.3294,-1.3375,-1.2917,-1.3334,-1.3193,-1.2203,-1.2843,-1.2093,-0.937,-1.0024,-1.0722,-1.1322,-1.0549,-1.0202,-1.0202,-0.9515,-0.9174,-0.9174,-0.8999,-0.8911,-0.8915,-0.8652,-0.8568,-0.8568,-0.8568,-0.8472,-0.8109,-0.7129,-0.6508,-0.5891,-0.4202,-0.3224,-0.2778,-0.1973,-0.1614,-0.1345,0.0,0.0,0.0,0.0,0.0,0.0,0.0,-0.5408,-0.5657,-0.5918,-0.5954,-0.5839,-0.5523,-0.5037,-0.4527,0.0,0.0,0.0,0.0,0.0,0.0,0.0,0.0,0.0,0.0,0.0,0.0,-0.3281,-0.3281,0.0,0.0,0.0,0.0,0.0,0.0,-0.5151,-0.5152,-0.5152,0.0,0.0,0.0,0.0,0.0,0.0,0.0,0.0,0.0,-0.6462,-0.7652,-0.7944,-0.8675,-0.9508,-0.9923,-1.0284,-1.0593,-1.0609,-1.0647,-1.0725,-1.1086,-1.1181,-1.1041,-1.0711,-1.0115,-0.937,-0.8577,-0.7912,-0.7251,-0.6786,-0.6137,-0.5585,-0.5585,-0.536,-0.5449,-0.6137,-0.6693,-0.7758,-0.9752,-1.0678,-1.1591,-1.2858,-1.3294,-1.3609,-1.3834,-1.4176,-1.4015,-1.3134,-1.2343,-1.1986,-1.2237,-1.2431,-1.21,-1.1322,-1.1235,-1.1154,-1.1154,-1.1068,-1.1063,-1.1068,-1.0202,-0.9772,-0.9777,-0.8999,-0.8568,-0.8568,-0.8568,-0.8472,-0.8201,-0.7848,-0.7136,-0.6068,-0.5628,-0.4383,-0.2867,-0.2778,-0.2152,-0.1345,0.0,0.0,0.0,0.0,0.0,0.0,-0.5292,-0.5529,-0.5754,-0.6191,-0.6246,-0.6082,-0.5645,-0.5408,-0.5007,-0.4308,0.0,0.0,0.0,0.0,0.0,0.0,0.0,0.0,0.0,0.0,-0.3468,-0.3497,-0.3818,0.0,0.0,0.0,0.0,0.0,0.0,-0.4972,-0.4747,-0.4747,0.0,0.0,0.0,0.0,0.0,0.0,0.0,0.0,0.0,0.0,-0.7166,-0.7448,-0.8047,-0.8699,-0.9081,-0.9381,-0.9642,-1.0287,-1.0544,-1.0599,-1.0754,-1.0785,-1.0704,-1.0375,-1.0089,-0.954,-0.843,-0.7854,-0.7315,-0.6299,-0.5545,-0.5032,-0.5027,-0.4841,-0.489,-0.5294,-0.6053,-0.6977,-0.8147,-0.9587,-1.0863,-1.1792,-1.2735,-1.3476,-1.3953,-1.4275,-1.4352,-1.409,-1.3723,-1.3281,-1.2705,-1.2705,-1.279,-1.296,-1.2448,-1.21,-1.21,-1.1585,-1.1327,-1.1327,-1.0895,-1.0463,-0.9859,-0.9515,-0.9087,-0.8568,-0.8568,-0.8564,-0.8384,-0.8032,-0.7584,-0.7051,-0.6074,-0.4914,-0.3667,-0.3135,-0.224,-0.1346,0.0,0.0,0.0,0.0,0.0,-0.4396,-0.5329,-0.5547,-0.5766,-0.6228,-0.6362,-0.6204,-0.5657,-0.5596,-0.528,-0.4454,-0.4156,0.0,0.0,0.0,0.0,0.0,0.0,0.0,0.0,0.0,-0.3743,-0.3972,-0.4263,-0.4539,0.0,0.0,-0.5084,-0.4924,0.0,0.0,0.0,0.0,0.0,0.0,0.0,0.0,0.0,0.0,0.0,0.0,0.0,0.0,0.0,0.0,0.0,-0.8036,-0.8298,-0.8529,-0.887,-0.9933,-1.0208,-1.0225,-1.0382,-1.0448,-1.0389,-1.0155,-0.9965,-0.9499,-0.8305,-0.7863,-0.7354,-0.6061,-0.5392,-0.4984,-0.474,-0.4644,-0.4675,-0.4767,-0.547,-0.628,-0.7116,-0.8684,-1.0078,-1.0983,-1.2219,-1.3221,-1.3863,-1.4362,-1.467,-1.4699,-1.4734,-1.423,-1.3137,-1.3137,-1.3137,-1.3307,-1.2875,-1.2705,-1.2705,-1.2357,-1.21,-1.21,-1.1843,-1.1413,-1.0722,-1.0115,-0.9602,-0.8999,-0.8744,-0.8564,-0.8476,-0.8032,-0.7856,-0.7676,-0.652,-0.5359,-0.42,-0.3578,-0.2509,-0.1436,0.0,0.0,0.0,0.0,0.0,0.0,-0.5086,-0.5432,-0.5693,-0.5961,-0.624,-0.6204,-0.5657,-0.5596,-0.528,-0.4454,-0.4156,0.0,0.0,0.0,0.0,0.0,0.0,0.0,0.0,0.0,-0.3985,-0.4599,-0.433,-0.4532,-0.5186,-0.4996,-0.5065,-0.5382,0.0,0.0,0.0,0.0,0.0,0.0,0.0,0.0,0.0,0.0,0.0,0.0,0.0,0.0,0.0,0.0,0.0,0.0,0.0,-0.7937,-0.8406,-0.9329,-0.9542,-0.957,-0.9995,-1.0104,-1.0104,-1.0104,-0.9636,-0.8976,-0.8163,-0.7848,-0.7375,-0.6312,-0.6008,-0.5699,-0.5106,-0.4951,-0.4875,-0.4796,-0.4962,-0.5591,-0.6978,-0.8044,-0.9289,-1.0753,-1.1823,-1.2834,-1.3615,-1.4402,-1.482,-1.4713,-1.4734,-1.4489,-1.4088,-1.4088,-1.3222,-1.1413,-1.2186,-1.2705,-1.2705,-1.3568,-1.4088,-1.4088,-1.3137,-1.2705,-1.2619,-1.0722,-0.9859,-0.9859,-0.8999,-0.8472,-0.8201,-0.794,-0.7768,-0.7507,-0.7231,-0.598,-0.4289,-0.4287,-0.3041,-0.1436,0.0,0.0,0.0,0.0,0.0,0.0,0.0,-0.5159,-0.5426,-0.5687,-0.5803,-0.5724,-0.5365,-0.5329,-0.5086,-0.4442,-0.4156,0.0,0.0,0.0,0.0,0.0,0.0,0.0,0.0,0.0,-0.4907,-0.5421,-0.5922,-0.6466,-0.6965,-0.7102,-0.6923,-0.6493,-0.6435,-0.5943,0.0,0.0,0.0,0.0,0.0,0.0,-0.4906,0.0,0.0,0.0,0.0,0.0,0.0,0.0,0.0,0.0,0.0,0.0,0.0,-0.8757,-0.8955,-0.9027,-0.9604,-0.9768,-0.9768,-0.9768,-0.9468,-0.9011,-0.829,-0.7928,-0.7392,-0.6217,-0.5772,-0.5521,-0.5258,-0.5348,-0.5543,-0.5856,-0.5883,-0.628,-0.7464,-0.8365,-0.9485,-1.0778,-1.2663,-1.3939,-1.4212,-1.4816,-1.5148,-1.4992,-1.4999,-1.4748,-1.4321,-1.4321,-1.3984,-1.3222,-1.2875,-1.2705,-1.2705,-1.2357,-1.2528,-1.3137,-1.2875,-1.2705,-1.2705,-1.21,-1.1149,-0.9859,-0.9602,-0.9082,-0.8472,-0.8204,-0.794,-0.7768,-0.7503,-0.6071,-0.4289,-0.4289,-0.3041,-0.1436,0.0,0.0,0.0,0.0,0.0,0.0,0.0,-0.4818,-0.5116,-0.528,-0.5474,-0.5462,-0.5098,-0.5055,-0.48,-0.4168,-0.3976,0.0,0.0,0.0,0.0,0.0,0.0,0.0,-0.4066,-0.4934,-0.5695,-0.634,-0.6933,-0.7543,-0.8061,-0.8061,-0.7833,-0.7485,-0.7151,-0.656,0.0,0.0,0.0,0.0,0.0,0.0,-0.5094,0.0,0.0,0.0,0.0,0.0,0.0,0.0,0.0,0.0,0.0,0.0,0.0,0.0,-0.8205,-0.8359,-0.8912,-0.9155,-0.9213,-0.9105,-0.8931,-0.8703,-0.8154,-0.7867,-0.7377,-0.6237,-0.6089,-0.6015,-0.5533,-0.578,-0.6029,-0.6043,-0.6278,-0.6698,-0.7464,-0.8533,-0.9826,-1.1352,-1.3219,-1.4387,-1.4387,-1.4969,-1.5347,-1.509,-1.509,-1.4915,-1.4398,-1.4398,-1.4321,-1.4088,-1.3568,-1.3052,-1.2705,-1.2448,-1.2448,-1.2705,-1.3052,-1.3222,-1.3222,-1.2875,-1.1843,-1.0376,-1.0033,-0.934,0.0,-0.8204,-0.794,-0.768,-0.7411,-0.634,-0.4825,-0.4467,-0.3309,-0.1883,0.0,0.0,0.0,0.0,0.0,0.0,0.0,-0.4411,-0.4751,-0.4751,-0.5177,-0.5298,-0.4806,-0.4751,-0.4442,-0.367,0.0,0.0,0.0,0.0,0.0,0.0,0.0,0.0,-0.4743,-0.548,-0.6347,-0.7348,-0.7565,-0.8024,-0.8664,-0.8228,-0.8166,-0.8369,-0.7521,-0.7058,0.0,0.0,0.0,0.0,-0.455,-0.479,0.0,0.0,0.0,0.0,0.0,0.0,0.0,0.0,0.0,0.0,0.0,0.0,0.0,0.0,0.0,0.0,0.0,-0.84,-0.8638,-0.8334,-0.8201,-0.8106,-0.7818,-0.7717,0.0,-0.6457,-0.6751,-0.6902,-0.5983,-0.6299,-0.6487,-0.5823,-0.6399,-0.7057,-0.7331,-0.8745,-1.0424,-1.2361,-1.3518,-1.4237,-1.4259,-1.4902,-1.5347,-1.5173,-1.509,-1.4915,-1.4482,-1.4398,-1.4321,-1.4166,-1.4088,-1.3652,-1.2619,-1.3483,-1.3483,-1.2619,-1.3568,-1.4004,-1.4088,-1.3137,-1.2186,-1.1235,-1.0289,-0.9248,-0.8201,-0.8028,-0.7768,-0.7503,-0.7231,-0.6517,-0.545,-0.4645,-0.3667,-0.2689,0.0,0.0,0.0,0.0,0.0,0.0,0.0,0.0,0.0,0.0,-0.4296,-0.4326,-0.4199,-0.4186,-0.4055,0.0,0.0,0.0,0.0,0.0,0.0,0.0,0.0,0.0,-0.5206,-0.6168,-0.7337,-0.8729,-0.9018,-0.9582,-1.0339,-1.0203,-0.9885,-0.9333,-0.8858,-0.7834,0.0,0.0,0.0,0.0,-0.4962,-0.5171,0.0,0.0,0.0,0.0,-0.5967,-0.5874,0.0,0.0,0.0,0.0,0.0,0.0,0.0,0.0,-0.7044,-0.727,-0.7105,0.0,-0.8685,-0.8591,-0.8398,-0.8202,0.0,-0.7903,-0.7561,-0.7075,-0.7054,-0.7069,-0.6949,-0.7291,-0.7607,-0.7715,-0.7992,-0.8435,-0.9138,-1.0627,-1.2086,-1.3248,-1.4019,-1.4481,-1.4481,-1.5025,-1.5347,-1.534,-1.534,-1.5173,-1.4915,-1.4741,-1.4566,-1.4314,-1.4166,-1.3307,-1.1671,-1.1843,-1.1843,-1.1666,-1.2613,-1.3398,-1.4088,-1.3137,-1.2186,-1.1235,-1.0289,-0.934,-0.8476,-0.8476,-0.8212,-0.7768,-0.7764,-0.6425,-0.4645,-0.4376,-0.3221,-0.1704,0.0,0.0,0.0,0.0,0.0,0.0,0.0,0.0,0.0,0.0,0.0,-0.3949,-0.3828,-0.3816,0.0,0.0,0.0,0.0,0.0,0.0,0.0,0.0,0.0,-0.5173,-0.5841,-0.7222,-0.8437,-0.9426,-0.9999,-1.0487,-1.0901,-1.0901,-1.0579,-0.9962,-0.9095,-0.7979,0.0,0.0,0.0,-0.51,-0.51,0.0,0.0,0.0,0.0,0.0,-0.5998,-0.5842,0.0,-0.5811,-0.5833,-0.5901,0.0,0.0,0.0,0.0,-0.683,-0.7176,-0.6996,-0.7579,-0.8194,-0.8067,-0.7975,-0.7975,-0.7975,-0.796,-0.7843,-0.7481,-0.7641,-0.7809,-0.7652,-0.8034,-0.8358,-0.8375,-0.8817,-0.9466,-1.0485,-1.1916,-1.3078,-1.3586,-1.4236,-1.4678,-1.4757,-1.5151,-1.5431,-1.5431,-1.5431,-1.5347,-1.509,-1.4824,-1.465,-1.4398,-1.4159,-1.3222,-1.1322,-1.1757,-1.1499,-1.0636,-1.2015,-1.2705,-1.279,-1.2705,-1.1929,-1.0636,-1.012,-0.9428,-0.8568,-0.8472,-0.8292,-0.7937,-0.7316,-0.6245,-0.5001,-0.4024,-0.2955,-0.2062,0.0,0.0,0.0,0.0,0.0,0.0,0.0,0.0,0.0,0.0,0.0,0.0,0.0,0.0,0.0,0.0,0.0,0.0,0.0,0.0,0.0,0.0,0.0,-0.5947,-0.6661,-0.8334,-0.9475,-0.9958,-1.0671,-1.103,-1.1085,-1.1085,-1.0765,-1.0215,-0.8957,-0.7888,0.0,0.0,-0.5647,-0.5272,-0.5272,0.0,0.0,0.0,0.0,0.0,0.0,0.0,0.0,-0.5811,-0.5648,-0.5501,-0.5738,0.0,0.0,0.0,0.0,0.0,-0.7203,-0.7461,-0.7635,-0.7335,-0.7546,-0.7785,-0.7785,-0.8041,-0.8194,-0.7924,-0.8304,-0.8565,-0.8182,-0.8611,-0.8903,-0.8626,-0.9336,-1.0362,-1.1558,-1.2733,-1.3557,-1.3777,-1.4424,-1.4881,-1.4932,-1.5187,-1.5431,-1.5431,-1.5431,-1.534,-1.5173,-1.4824,-1.465,-1.4482,-1.4243,-1.3222,-1.1322,-1.2272,-1.1757,-0.9946,-1.1671,-1.21,-1.1322,-1.2015,-1.1408,-0.9859,-0.9772,-0.9257,-0.8564,-0.8292,-0.8201,-0.7937,-0.6602,-0.598,-0.5622,-0.358,-0.2778,-0.2509,0.0,0.0,0.0,0.0,0.0,0.0,0.0,0.0,0.0,0.0,0.0,0.0,0.0,0.0,0.0,0.0,0.0,0.0,0.0,0.0,0.0,-0.4905,-0.5787,-0.6767,-0.7817,-0.8715,-0.9876,-1.1214,-1.1333,-1.1563,-1.1941,-1.1941,-1.1269,-1.0107,-0.9199,-0.8264,-0.7288,-0.6533,-0.6142,-0.6028,-0.6028,0.0,0.0,0.0,0.0,0.0,0.0,0.0,0.0,-0.5811,-0.578,-0.5756,-0.5775,0.0,0.0,0.0,0.0,0.0,-0.7141,-0.7461,-0.767,-0.7635,-0.7881,-0.8129,-0.8129,-0.8377,-0.8597,-0.8553,-0.8619,-0.8703,-0.8754,-0.9134,-0.9494,-0.9493,-1.042,-1.1509,-1.2448,-1.3085,-1.3644,-1.3994,-1.4554,-1.4969,-1.5072,-1.5228,-1.5431,-1.5431,-1.5431,-1.5431,-1.5347,-1.4908,-1.465,-1.465,-1.4328,-1.3222,-1.1322,-1.2272,-1.1757,-0.9946,-1.0982,-1.1413,-1.1241,-1.0636,-1.0202,-0.9859,-0.9087,-0.856,-0.8288,-0.8201,-0.794,-0.7503,-0.6517,-0.5445,-0.4467,-0.3312,-0.2331,-0.1614,0.0,0.0,0.0,0.0,0.0,0.0,0.0,0.0,0.0,0.0,0.0,0.0,0.0,0.0,0.0,0.0,0.0,0.0,0.0,0.0,0.0,-0.589,-0.695,-0.7799,-0.8359,-0.9542,-1.056,-1.1489,-1.17,-1.1902,-1.2067,-1.1807,-1.1194,-1.0275,-0.9234,-0.8396,-0.7713,-0.6707,-0.6263,-0.6199,0.0,0.0,0.0,0.0,0.0,0.0,0.0,0.0,0.0,0.0,-0.5811,-0.5811,-0.5811,0.0,0.0,0.0,0.0,0.0,-0.7382,-0.7716,-0.7975,-0.7975,-0.8092,-0.8246,-0.8421,-0.8714,-0.8955,-0.8955,-0.9219,-0.949,-0.9524,-0.9868,-1.0246,-1.0638,-1.1587,-1.2427,-1.2971,-1.363,-1.4117,-1.4338,-1.4844,-1.518,-1.5249,-1.5347,-1.5431,-1.5431,-1.5431,-1.5431,-1.5431,-1.4908,-1.4734,-1.4734,-1.3815,-1.2705,-1.1327,-1.1235,-1.0549,-0.917,-1.0115,-1.0289,-0.9864,-0.9859,-0.9602,-0.917,-0.874,-0.8472,-0.8201,-0.8201,-0.7669,-0.6779,-0.5714,-0.4645,-0.3576,-0.2508,-0.1793,-0.1436,0.0,0.0,0.0,0.0,0.0,0.0,0.0,0.0,0.0,0.0,0.0,0.0,0.0,0.0,0.0,0.0,0.0,0.0,0.0,0.0,-0.6029,-0.6566,-0.7812,-0.8676,-0.8988,-1.0258,-1.1159,-1.1627,-1.1929,-1.2076,-1.2017,-1.1619,-1.1071,-1.0409,-0.9292,-0.8517,-0.7974,-0.6881,-0.6401,-0.6336,0.0,0.0,0.0,0.0,0.0,0.0,0.0,0.0,0.0,0.0,0.0,0.0,0.0,0.0,0.0,-0.6608,-0.6897,-0.7158,-0.7552,-0.7874,-0.8098,-0.8249,-0.8338,-0.8494,-0.8743,-0.9109,-0.9394,-0.9394,-0.9833,-1.0236,-1.0316,-1.0653,-1.1143,-1.1794,-1.2584,-1.3164,-1.3338,-1.4088,-1.459,-1.4669,-1.5061,-1.5431,-1.5431,-1.5431,-1.5431,-1.5431,-1.5431,-1.5431,-1.5431,-1.4999,-1.465,-1.4391,-1.3379,-1.218,-1.0982,-1.0289,-0.9428,-0.8568,-0.9257,-0.9257,-0.8656,-0.9257,-0.9257,-0.8568,-0.8568,-0.8384,-0.8113,-0.7841,-0.7129,-0.6065,-0.4734,-0.3578,-0.2685,-0.1703,-0.1436,-0.1436,0.0,0.0,0.0,0.0,0.0,0.0,0.0,0.0,0.0,0.0,0.0,0.0,0.0,0.0,0.0,0.0,0.0,0.0,0.0,0.0,-0.6166,-0.6593,-0.7812,-0.9041,-1.016,-1.0671,-1.1288,-1.208,-1.2107,-1.2026,-1.1927,-1.1751,-1.1178,-1.0283,-0.949,-0.8694,-0.7851,-0.7104,-0.6768,-0.6768,-0.6768,0.0,0.0,0.0,0.0,0.0,0.0,0.0,0.0,0.0,0.0,0.0,0.0,0.0,-0.6363,-0.6608,-0.6708,-0.6841,-0.7469,-0.7678,-0.7868,-0.8345,-0.8799,-0.9109,-0.9138,-0.9607,-1.0031,-1.0031,-1.0309,-1.0646,-1.0946,-1.1516,-1.2145,-1.2797,-1.3214,-1.3579,-1.3901,-1.4501,-1.4838,-1.486,-1.5233,-1.5431,-1.5431,-1.5431,-1.5431,-1.5431,-1.5431,-1.5431,-1.5431,-1.5173,-1.4573,-1.3535,-1.319,-1.1992,-1.0028,-0.9946,-0.9428,-0.8568,-0.8656,-0.8652,-0.8568,-0.8656,-0.8652,-0.8568,-0.8568,-0.83,-0.7852,-0.6953,-0.6242,-0.5542,-0.3758,-0.2419,-0.1524,-0.1436,-0.1436,-0.1436,0.0,0.0,0.0,0.0,0.0,0.0,0.0,0.0,0.0,0.0,0.0,0.0,0.0,0.0,0.0,0.0,0.0,0.0,0.0,-0.5446,-0.6284,-0.6949,-0.7941,-0.9179,-1.0643,-1.0827,-1.1306,-1.2076,-1.2026,-1.1877,-1.1669,-1.1628,-1.1059,-1.0157,-0.9649,-0.8875,-0.7868,-0.7338,-0.6861,-0.6499,-0.6499,-0.6245,0.0,0.0,0.0,0.0,0.0,0.0,0.0,0.0,-0.5585,-0.578,-0.5679,-0.6072,-0.6514,-0.6418,-0.6785,-0.7238,-0.7237,-0.7821,-0.849,-0.8728,-0.9183,-0.9588,-0.9753,-0.9816,-1.0059,-1.061,-1.0967,-1.1355,-1.1882,-1.2336,-1.2789,-1.3243,-1.3587,-1.3982,-1.4509,-1.4794,-1.5021,-1.5226,-1.535,-1.5431,-1.5431,-1.5431,-1.5431,-1.5431,-1.5431,-1.5431,-1.5431,-1.5173,-1.4915,-1.4482,-1.3021,-1.1821,-1.1052,-0.9772,-0.8911,-0.8568,-0.8568,-0.8568,-0.8568,-0.8568,-0.8568,-0.8568,-0.8568,-0.8384,-0.8025,-0.7224,-0.6157,-0.4825,-0.2776,-0.1704,-0.1436,-0.1436,-0.1436,-0.1436,0.0,0.0,0.0,0.0,0.0,0.0,0.0,0.0,0.0,0.0,0.0,0.0,0.0,0.0,0.0,0.0,0.0,0.0,-0.4595,-0.5478,-0.6348,-0.7159,-0.8023,-0.9253,-1.0864,-1.0901,-1.1306,-1.2076,-1.1927,-1.1728,-1.1528,-1.1477,-1.0962,-1.0075,-0.9769,-0.8952,-0.7859,-0.7459,-0.6909,-0.6277,-0.6292,-0.6029,0.0,0.0,0.0,0.0,0.0,0.0,0.0,0.0,-0.5522,-0.578,-0.5592,-0.6017,-0.649,-0.6196,-0.6821,-0.7533,-0.7354,-0.8106,-0.9034,-0.9358,-0.9691,-1.0135,-1.0733,-1.0494,-1.0387,-1.1189,-1.1721,-1.2218,-1.272,-1.3234,-1.3598,-1.3748,-1.4223,-1.4591,-1.4882,-1.4947,-1.5174,-1.5401,-1.5431,-1.5431,-1.5431,-1.5431,-1.5431,-1.5431,-1.5431,-1.5431,-1.5431,-1.5257,-1.4915,-1.4398,-1.2851,-1.1649,-1.0966,-0.9515,-0.874,-0.8568,-0.8568,-0.8568,-0.8568,-0.8568,-0.8568,-0.8568,-0.8568,-0.8296,-0.7757,-0.6959,-0.5625,-0.3846,-0.2061,-0.1525,-0.1615,-0.1436,-0.1436,-0.1345,0.0,0.0,0.0,0.0,0.0,0.0,0.0,0.0,0.0,0.0,0.0,0.0,0.0,0.0,0.0,0.0,0.0,0.0,-0.4793,-0.5547,-0.6348,-0.7159,-0.8014,-0.9253,-1.0855,-1.0901,-1.1306,-1.2076,-1.1828,-1.1628,-1.1528,-1.1368,-1.0865,-1.0075,-0.9761,-0.8923,-0.7785,-0.7432,-0.6884,-0.6193,-0.6261,-0.6091,-0.578,0.0,0.0,0.0,0.0,0.0,0.0,0.0,-0.5365,-0.5718,-0.5182,-0.5548,-0.6152,-0.5968,-0.6686,-0.765,-0.7816,-0.8497,-0.9285,-1.0165,-1.0353,-1.0697,-1.2255,-1.167,-1.1023,-1.1848,-1.2562,-1.3157,-1.3561,-1.4183,-1.4568,-1.4561,-1.5133,-1.5423,-1.4948,-1.5226,-1.5431,-1.5431,-1.5431,-1.5431,-1.5431,-1.5431,-1.5431,-1.5431,-1.5431,-1.5431,-1.5431,-1.5431,-1.4566,-1.276,-1.2674,-1.1655,-0.9349,-0.9349,-0.9087,-0.8656,-0.8568,-0.8568,-0.8568,-0.8568,-0.8568,-0.8568,-0.8568,-0.8032,-0.7051,-0.6062,-0.4554,-0.2778,-0.1793,-0.1705,-0.2154,-0.1615,-0.1436,-0.1345,0.0,0.0,0.0,0.0,0.0,0.0,0.0,0.0,0.0,0.0,0.0,0.0,0.0,0.0,0.0,0.0,0.0,0.0,-0.4793,-0.5547,-0.6229,-0.6757,-0.7876,-0.8995,-1.0045,-1.0529,-1.1121,-1.1828,-1.1628,-1.1469,-1.1368,-1.1011,-1.0435,-0.9673,-0.9261,-0.8443,-0.7301,-0.6986,-0.6495,-0.5855,-0.5912,-0.5749,-0.5467,0.0,0.0,0.0,0.0,0.0,0.0,0.0,0.0,0.0,-0.5327,-0.5603,-0.5931,-0.5559,-0.6259,-0.7138,-0.7259,-0.8207,-0.9406,-1.0272,-1.0905,-1.1623,-1.2988,-1.2375,-1.179,-1.2871,-1.3861,-1.4548,-1.4694,-1.5146,-1.5534,-1.5701,-1.5913,-1.6061,-1.6133,-1.6018,-1.5922,-1.5922,-1.559,-1.5431,-1.5431,-1.5431,-1.5431,-1.5431,-1.5431,-1.5431,-1.5431,-1.4908,-1.4482,-1.388,-1.2687,-1.1666,-1.0987,-1.0207,-0.9694,-0.9607,-0.9262,-0.8915,-0.8568,-0.8568,-0.8568,-0.8568,-0.8568,-0.8116,-0.7224,-0.5622,-0.4293,-0.3317,-0.2689,-0.2332,-0.2154,-0.2064,-0.1705,-0.1345,0.0,0.0,0.0,0.0,0.0,0.0,0.0,0.0,0.0,0.0,-0.3423,-0.3591,0.0,0.0,0.0,0.0,0.0,0.0,-0.4793,-0.5415,-0.6002,-0.6584,-0.7491,-0.8436,-0.9446,-1.0089,-1.0597,-1.0977,-1.1151,-1.1202,-1.1053,-1.0831,-1.0203,-0.9228,-0.9013,-0.8219,-0.7055,-0.6929,-0.6485,-0.588,-0.5963,-0.5811,-0.5498,0.0,0.0,0.0,0.0,0.0,0.0,0.0,0.0,0.0,-0.5168,-0.5405,-0.5633,-0.5521,-0.6476,-0.7611,-0.7835,-0.8948,-1.0242,-1.1058,-1.1736,-1.2557,-1.3751,-1.3406,-1.3165,-1.4049,-1.4783,-1.5263,-1.5549,-1.5964,-1.628,-1.6403,-1.6565,-1.6653,-1.6706,-1.6492,-1.6252,-1.6087,-1.5846,-1.559,-1.5431,-1.5431,-1.5431,-1.5431,-1.5431,-1.5431,-1.5431,-1.4999,-1.4573,-1.4062,-1.2954,-1.2015,-1.1241,-1.0554,-1.0125,-1.0038,-0.9694,-0.9432,-0.9174,-0.874,-0.8568,-0.8564,-0.794,-0.7496,-0.6959,-0.5006,-0.403,-0.3853,-0.3136,-0.2868,-0.2691,-0.2333,-0.1794,-0.1166,0.0,0.0,0.0,0.0,0.0,0.0,0.0,0.0,0.0,-0.3393,-0.3408,-0.3598,0.0,0.0,0.0,-0.4773,-0.4793,-0.4793,-0.4793,-0.5178,-0.5726,-0.6465,-0.6949,-0.7785,-0.9014,-0.9479,-0.9756,-0.9835,-1.0484,-1.0763,-1.062,-1.0586,-0.9918,-0.8866,-0.879,-0.8132,-0.7022,-0.7123,-0.6739,-0.6135,-0.6199,-0.606,-0.5749,-0.578,0.0,0.0,0.0,0.0,0.0,0.0,0.0,0.0,-0.4753,-0.5015,-0.534,-0.5664,-0.7009,-0.8533,-0.9051,-1.0268,-1.1498,-1.2185,-1.2831,-1.3476,-1.4519,-1.4741,-1.4848,-1.516,-1.5354,-1.564,-1.6269,-1.6718,-1.6967,-1.6959,-1.7249,-1.731,-1.6894,-1.6812,-1.6656,-1.6252,-1.617,-1.6004,-1.5514,-1.5431,-1.5431,-1.5431,-1.5431,-1.5431,-1.5431,-1.5257,-1.4664,-1.3483,-1.3307,-1.2363,-1.0636,-1.0636,-1.0467,-1.0125,-1.0038,-1.0038,-1.0038,-0.9174,-0.8656,-0.8476,-0.7051,-0.6343,-0.6166,-0.4389,-0.3942,-0.421,-0.3405,-0.3226,-0.3497,-0.2602,-0.1794,-0.0987,0.0,0.0,0.0,0.0,0.0,0.0,0.0,0.0,-0.3393,-0.3387,-0.3408,-0.3598,-0.4145,-0.4207,0.0,-0.4773,-0.4793,-0.4793,-0.4793,-0.5178,-0.5479,-0.5653,-0.6648,-0.7594,-0.8468,-0.8531,-0.8803,-0.9348,-0.9986,-1.0266,-1.0211,-0.9591,-0.8972,-0.8429,-0.8115,-0.7623,-0.6981,-0.6858,-0.6556,-0.6179,-0.5971,-0.5718,-0.5435,-0.5686,-0.5643,0.0,0.0,0.0,0.0,0.0,0.0,0.0,-0.4489,-0.48,-0.5158,-0.5227,-0.6398,-0.7754,-0.8273,-0.966,-1.1112,-1.1909,-1.3245,-1.4661,-1.5777,-1.5948,-1.5869,-1.5741,-1.6363,-1.7012,-1.7252,-1.7497,-1.776,-1.7751,-1.7819,-1.7878,-1.7708,-1.7473,-1.7229,-1.7147,-1.682,-1.6409,-1.6004,-1.5922,-1.5756,-1.5431,-1.5431,-1.5431,-1.5431,-1.4412,-1.3737,-1.3398,-1.2289,-1.1602,-1.117,-1.117,-1.1089,-1.1003,-1.0641,-1.0463,-1.0463,-0.9951,-0.9165,-0.8201,-0.6959,-0.6077,-0.5549,-0.4567,-0.421,-0.43,-0.4119,-0.3853,-0.3587,-0.3408,-0.2511,-0.1166,0.0,0.0,0.0,0.0,0.0,0.0,0.0,0.0,-0.3408,-0.3436,-0.3457,-0.3647,-0.4145,-0.4207,0.0,0.0,-0.4793,-0.4793,-0.4793,-0.5004,-0.5196,-0.5388,-0.6191,-0.6811,-0.7179,-0.7453,-0.7745,-0.8079,-0.891,-0.9521,-0.9836,-0.918,-0.8563,-0.8017,-0.7797,-0.7433,-0.6994,-0.6937,-0.6729,-0.6404,-0.6104,-0.5823,-0.5561,-0.5718,-0.5605,-0.5247,-0.4886,0.0,0.0,0.0,0.0,0.0,0.0,0.0,-0.4927,-0.5413,-0.6431,-0.763,-0.8565,-0.9811,-1.1279,-1.2747,-1.3956,-1.4999,-1.6007,-1.6426,-1.6536,-1.6329,-1.692,-1.7526,-1.7706,-1.7903,-1.804,-1.804,-1.804,-1.804,-1.804,-1.7797,-1.7635,-1.7392,-1.7147,-1.682,-1.6409,-1.5997,-1.5824,-1.5997,-1.5416,-1.5082,-1.5242,-1.4398,-1.3555,-1.2966,-1.2198,-1.1688,-1.1262,-1.1262,-1.1262,-1.1262,-1.1084,-1.0727,-1.0289,-1.0125,-0.934,-0.8113,-0.7132,-0.6251,-0.5371,-0.4567,-0.43,-0.43,-0.43,-0.4121,-0.3944,-0.3676,-0.2868,-0.1792,0.0,0.0,0.0,0.0,0.0,0.0,0.0,0.0,0.0,-0.3485,-0.3506,-0.3668,-0.4084,-0.4166,-0.435,0.0,0.0,0.0,-0.4793,-0.4793,-0.4986,-0.5379,-0.5711,-0.5905,-0.5968,-0.6516,-0.6824,-0.6885,-0.7835,-0.8648,-0.9275,-0.8891,-0.828,-0.7599,-0.7682,-0.7474,-0.7126,-0.7187,-0.706,-0.6753,-0.6363,-0.6015,-0.5748,-0.5748,-0.5519,-0.5178,-0.4966,-0.4493,-0.3992,-0.399,0.0,0.0,0.0,0.0,-0.4713,-0.5691,-0.6612,-0.7589,-0.8883,-1.0158,-1.1638,-1.3787,-1.4542,-1.5005,-1.5887,-1.6517,-1.6935,-1.7004,-1.7312,-1.7663,-1.798,-1.804,-1.804,-1.804,-1.804,-1.804,-1.804,-1.804,-1.7878,-1.7554,-1.7392,-1.7139,-1.6648,-1.5982,-1.5816,-1.6402,-1.5567,-1.5068,-1.5144,-1.4643,-1.3717,-1.2448,-1.2277,-1.1946,-1.1354,-1.1262,-1.1262,-1.1262,-1.1176,-1.0646,-0.9859,-0.9772,-0.9074,-0.7933,-0.7217,-0.6337,-0.528,-0.4656,-0.4389,-0.4389,-0.4389,-0.43,-0.421,-0.3853,-0.3226,-0.2418,0.0,0.0,0.0,0.0,0.0,0.0,0.0,0.0,0.0,0.0,-0.3506,-0.3584,-0.3834,-0.4055,-0.4281,-0.4515,-0.4704,-0.4793,-0.4793,0.0,0.0,-0.5379,-0.5447,-0.5577,-0.5818,-0.6206,-0.6505,-0.6811,-0.7243,-0.7675,-0.8023,-0.7903,-0.7601,-0.7105,-0.7516,-0.7675,-0.7619,-0.7662,-0.7533,-0.7157,-0.6428,-0.592,-0.5639,-0.5639,-0.5435,-0.5169,-0.4901,-0.4593,-0.4306,-0.4065,-0.3968,0.0,0.0,0.0,-0.4707,-0.5299,-0.6236,-0.7201,-0.7988,-0.9915,-1.2043,-1.3681,-1.4585,-1.5318,-1.5878,-1.6572,-1.7223,-1.7407,-1.7697,-1.798,-1.8031,-1.804,-1.804,-1.804,-1.804,-1.804,-1.804,-1.804,-1.7959,-1.7959,-1.7286,-1.6624,-1.6221,-1.6049,-1.5891,-1.556,-1.6147,-1.6147,-1.5394,-1.4552,-1.3626,-1.2705,-1.186,-1.1435,-1.1262,-1.1262,-1.1262,-1.1262,-1.0472,-1.0033,-0.9859,-0.9069,-0.8101,-0.6956,-0.6432,-0.5811,-0.501,-0.4921,-0.4835,-0.4661,-0.4661,-0.448,-0.43,-0.421,-0.3673,-0.2777,0.0,0.0,0.0,0.0,0.0,0.0,0.0,0.0,0.0,0.0,0.0,-0.3765,-0.3994,-0.4232,-0.4455,-0.4664,-0.4744,-0.4793,-0.4793,-0.4793,-0.4874,-0.5005,-0.5002,-0.5049,-0.5112,-0.5458,-0.5788,-0.612,-0.673,-0.6991,-0.6903,-0.7224,-0.7392,-0.7433,-0.7897,-0.8111,-0.8062,-0.786,-0.7566,-0.7231,-0.6362,-0.6028,-0.6035,-0.5751,-0.575,-0.5838,-0.5439,-0.5022,-0.4618,-0.4496,-0.4247,-0.4041,-0.4234,0.0,0.0,0.0,-0.5831,-0.6771,-0.8367,-0.9977,-1.1656,-1.3425,-1.4337,-1.5065,-1.5828,-1.6537,-1.7134,-1.7462,-1.7769,-1.8021,-1.7997,-1.8121,-1.8193,-1.804,-1.804,-1.804,-1.804,-1.804,-1.7789,-1.7367,-1.6944,-1.6453,-1.5809,-1.522,-1.5296,-1.6049,-1.5304,-1.4977,-1.513,-1.4048,-1.3124,-1.2289,-1.1952,-1.1613,-1.1527,-1.1527,-1.144,-1.1262,-0.9859,-0.9157,-0.9069,-0.7577,-0.6871,-0.6779,-0.6605,-0.5897,-0.501,-0.501,-0.4921,-0.4835,-0.4835,-0.4832,-0.4654,-0.4654,-0.4387,-0.3851,0.0,0.0,0.0,0.0,0.0,0.0,0.0,0.0,0.0,0.0,0.0,-0.3862,-0.4084,0.0,0.0,0.0,-0.4724,-0.4744,-0.4793,-0.4793,-0.4773,-0.4711,-0.4691,-0.4662,-0.4613,-0.4924,-0.5214,-0.5481,-0.6259,-0.6447,-0.6072,-0.681,-0.7249,-0.7481,-0.7993,-0.8242,-0.8201,-0.7897,-0.7584,-0.7212,-0.6613,-0.6488,-0.6646,-0.6498,-0.6635,-0.6905,-0.6447,-0.5937,-0.5437,-0.5237,-0.474,-0.4247,-0.4527,-0.4496,0.0,0.0,0.0,-0.6521,-0.8364,-0.9619,-1.0829,-1.2641,-1.3726,-1.455,-1.5375,-1.6204,-1.6856,-1.7158,-1.769,-1.8186,-1.8082,-1.8292,-1.8442,-1.8201,-1.8201,-1.8201,-1.8201,-1.8121,-1.7861,-1.7196,-1.6698,-1.6124,-1.5477,-1.4545,-1.4538,-1.5951,-1.488,-1.4384,-1.4706,-1.3964,-1.3045,-1.2123,-1.2037,-1.1957,-1.1785,-1.1699,-1.144,-1.1003,-0.9331,-0.8368,-0.8105,-0.6438,-0.5994,-0.6517,-0.6517,-0.5985,-0.5191,-0.5191,-0.5191,-0.5099,-0.5099,-0.5099,-0.501,-0.501,-0.4835,-0.4661,0.0,0.0,0.0,0.0,0.0,0.0,0.0,0.0,0.0,0.0,0.0,-0.3731,-0.38,-0.3994,-0.4232,-0.4486,-0.4507,-0.4595,-0.4793,-0.4793,-0.4773,-0.4711,-0.4691,0.0,-0.4613,-0.4924,-0.5109,-0.5126,-0.5856,-0.6029,-0.5662,-0.6755,-0.7118,-0.687,-0.7484,-0.7724,-0.7724,-0.7863,-0.7648,-0.7203,-0.7301,-0.7342,-0.744,-0.819,-0.8468,-0.8433,-0.8005,-0.7617,-0.7161,-0.6381,-0.5528,-0.4812,-0.508,-0.4818,-0.449,0.0,0.0,0.0,-0.7314,-0.8367,-0.9607,-1.1082,-1.2513,-1.3675,-1.421,-1.5483,-1.6535,-1.6404,-1.7465,-1.8348,-1.8124,-1.8443,-1.87,-1.87,-1.87,-1.87,-1.87,-1.8523,-1.8362,-1.8353,-1.6632,-1.5477,-1.5394,-1.4545,-1.4041,-1.4126,-1.5621,-1.5786,-1.4126,-1.4622,-1.4126,-1.2448,-1.2118,-1.1957,-1.1957,-1.1785,-1.1262,-1.0381,-0.9069,-0.8017,-0.7139,-0.6171,-0.5733,-0.5733,-0.5733,-0.5733,-0.5644,-0.5644,-0.5552,-0.5371,-0.5371,-0.5191,-0.501,-0.501,-0.4835,-0.4661,0.0,0.0,0.0,0.0,0.0,0.0,0.0,0.0,0.0,0.0,0.0,0.0,0.0,-0.426,-0.4532,-0.4684,-0.4653,-0.4662,-0.4722,-0.4693,-0.4644,-0.4584,-0.4613,-0.4613,-0.4535,-0.4653,-0.4842,-0.51,-0.5365,-0.5455,-0.5414,-0.6282,-0.6672,-0.6708,-0.7313,-0.7725,-0.7937,-0.7469,-0.727,-0.7342,-0.7666,-0.7997,-0.8372,-0.8894,-0.9289,-0.9469,-0.9019,-0.8357,-0.7608,-0.7127,-0.6337,-0.5523,-0.528,-0.5073,-0.4958,-0.5146,-0.5408,-0.5895,-0.7066,-0.7863,-0.8688,-1.0213,-1.1689,-1.2903,-1.3579,-1.4952,-1.6142,-1.6591,-1.7524,-1.827,-1.8439,-1.8731,-1.8851,-1.87,-1.87,-1.87,-1.87,-1.8612,-1.8193,-1.7033,-1.6206,-1.5387,-1.423,-1.3724,-1.3633,-1.4223,-1.421,-1.4119,-1.3957,-1.3704,-1.3203,-1.2619,-1.254,-1.2369,-1.2283,-1.2037,-1.1429,-1.0463,-0.9327,-0.854,-0.8193,-0.6526,-0.5997,-0.6523,-0.5997,-0.5733,-0.5733,-0.5733,-0.5644,-0.5552,-0.5552,-0.5552,-0.5463,-0.5463,-0.5285,-0.5107,0.0,0.0,0.0,0.0,0.0,0.0,0.0,0.0,0.0,-0.3423,0.0,0.0,0.0,0.0,-0.4622,-0.4684,-0.4713,-0.4742,-0.4742,-0.4693,-0.4624,-0.4564,-0.4624,-0.4624,-0.4535,-0.4535,-0.4644,-0.4902,-0.5053,-0.5129,-0.5124,-0.5951,-0.6293,-0.6253,-0.6792,-0.7348,-0.7841,-0.7214,-0.7106,-0.7416,-0.8092,-0.8585,-0.9072,-0.9614,-1.0208,-1.0664,-1.0116,-0.9509,-0.8905,-0.8528,-0.7745,-0.6821,-0.6148,-0.5594,-0.5207,-0.5207,-0.5207,-0.5441,-0.6494,-0.7056,-0.7688,-0.9163,-1.0389,-1.1548,-1.262,-1.3926,-1.5178,-1.5926,-1.6963,-1.7798,-1.8064,-1.8397,-1.8774,-1.8886,-1.8931,-1.8931,-1.8931,-1.8851,-1.8273,-1.678,-1.6206,-1.5462,-1.3977,-1.3476,-1.3476,-1.4062,-1.3639,-1.3464,-1.3717,-1.3464,-1.3124,-1.2705,-1.2705,-1.2619,-1.2534,-1.2289,-1.1505,-1.0284,-0.941,-0.8798,-0.8452,-0.7048,-0.6786,-0.7312,-0.6697,-0.6171,-0.5733,-0.5733,-0.5733,-0.5733,-0.5733,-0.5733,-0.5733,-0.5733,-0.5552,-0.5371,0.0,0.0,0.0,0.0,0.0,0.0,0.0,0.0,-0.3436,-0.3696,0.0,0.0,0.0,0.0,0.0,-0.4515,-0.4684,-0.4793,-0.4793,-0.4793,-0.4773,-0.4711,-0.4762,-0.4733,-0.4613,-0.4613,-0.4564,-0.4515,-0.4963,-0.5026,-0.4735,-0.5857,-0.6062,-0.5533,-0.5906,-0.6555,-0.7362,-0.7175,-0.7176,-0.7385,-0.8555,-0.9164,-0.9554,-1.0432,-1.1359,-1.2077,-1.1345,-1.1201,-1.126,-1.0651,-0.9747,-0.866,-0.7701,-0.6388,-0.5225,-0.5207,-0.5207,-0.5262,0.0,0.0,0.0,-0.7874,-0.8665,-0.9606,-1.117,-1.2493,-1.3606,-1.4309,-1.5697,-1.6872,-1.6872,-1.755,-1.8357,-1.9127,-1.9265,-1.9292,-1.9301,-1.9073,-1.8674,-1.7772,-1.6698,-1.5636,-1.4734,-1.3899,-1.3398,-1.3398,-1.4153,-1.4237,-1.3137,-1.3893,-1.3886,-1.279,-1.2705,-1.2705,-1.2705,-1.2534,-1.1494,-0.9666,-0.9405,-0.8794,-0.7921,-0.7834,-0.783,-0.7918,-0.783,-0.7048,-0.5733,-0.5733,-0.5733,-0.5733,-0.5733,-0.5733,-0.5733,-0.5733,-0.5641,-0.546,0.0,0.0,0.0,0.0,0.0,-0.3359,-0.3556,-0.3871,-0.4147,0.0,0.0,0.0,-0.5198,-0.5154,-0.5013,-0.4751,-0.4764,-0.4793,-0.4793,-0.4762,-0.4731,-0.4711,-0.4731,-0.4702,-0.4662,-0.4662,-0.4662,-0.4642,-0.4771,-0.4841,-0.4865,-0.5432,-0.5677,-0.5659,-0.5753,-0.618,-0.6803,-0.6772,-0.701,-0.7553,-0.8685,-0.9642,-1.0516,-1.1353,-1.2554,-1.3716,-1.3543,-1.3175,-1.2721,-1.2026,-1.0728,-0.9055,-0.7358,-0.6397,-0.5826,-0.5352,-0.5207,-0.5219,-0.5292,0.0,0.0,0.0,0.0,0.0,-0.9703,-1.0911,-1.2134,-1.3115,-1.4416,-1.5491,-1.5962,-1.6927,-1.7743,-1.7954,-1.8495,-1.8971,-1.9256,-1.8736,-1.7925,-1.7107,-1.6131,-1.5228,-1.4334,-1.3906,-1.3652,-1.3652,-1.373,-1.3646,-1.3307,-1.3561,-1.3476,-1.2966,-1.2966,-1.2881,-1.2705,-1.2619,-1.2015,-1.0799,-1.0621,-1.0356,-1.0106,-0.9222,-0.9218,-0.9744,-0.8352,-0.757,-0.7132,-0.6346,-0.5908,-0.5733,-0.5908,-0.5997,-0.5994,-0.6169,-0.6169,-0.6166,0.0,0.0,-0.3338,-0.3387,-0.3387,-0.3496,-0.3776,-0.4176,-0.4548,0.0,0.0,0.0,-0.5709,-0.5664,-0.5556,-0.5311,-0.5159,-0.5059,-0.5059,-0.4852,-0.4742,-0.4742,-0.4742,-0.4742,-0.4742,-0.4742,-0.4722,-0.4691,-0.4726,-0.4786,-0.4868,-0.5229,-0.5349,-0.5262,-0.5553,-0.5898,-0.625,-0.6618,-0.7114,-0.7781,-0.8969,-1.0073,-1.1085,-1.2061,-1.336,-1.4611,-1.4597,-1.4418,-1.415,-1.3616,-1.1927,-0.9837,-0.8468,-0.7294,-0.635,-0.5945,-0.5571,-0.5364,-0.5447,-0.5621,-0.5855,-0.6414,0.0,0.0,-0.9213,-1.0166,-1.1247,-1.2564,-1.3617,-1.4497,-1.4876,-1.579,-1.6551,-1.6716,-1.7284,-1.7972,-1.8705,-1.8232,-1.7447,-1.6565,-1.5801,-1.5068,-1.4166,-1.3997,-1.3913,-1.3913,-1.3737,-1.3652,-1.3568,-1.3476,-1.3313,-1.3228,-1.3228,-1.3137,-1.2966,-1.2875,-1.2363,-1.1499,-1.123,-1.1144,-1.1068,-1.0356,-1.0351,-1.0788,-0.9749,-0.8969,-0.8532,-0.7834,-0.6959,-0.5994,-0.6169,-0.6257,-0.6257,-0.6343,-0.6428,-0.6428,0.0,0.0,-0.3415,-0.3485,-0.3532,-0.3667,-0.3975,-0.4381,-0.4828,0.0,-0.5744,-0.6048,-0.6176,-0.6202,-0.6166,-0.6075,-0.5744,-0.5488,-0.5406,-0.5068,-0.4858,-0.4793,-0.4793,-0.4793,-0.4793,-0.4793,-0.4773,-0.4711,-0.4773,-0.4793,-0.4802,-0.5147,-0.504,-0.4634,-0.5307,-0.5672,-0.5834,-0.6692,-0.7429,-0.8214,-0.9338,-1.045,-1.1572,-1.2615,-1.3921,-1.516,-1.5109,-1.5318,-1.5581,-1.5081,-1.3119,-1.0734,-1.0188,-0.8607,-0.6933,-0.6751,-0.624,-0.577,-0.5885,-0.5697,-0.5674,-0.6473,-0.6715,0.0,-0.9061,-0.981,-1.0501,-1.1972,-1.286,-1.3456,-1.3566,-1.4227,-1.4889,-1.5233,-1.564,-1.6347,-1.7661,-1.748,-1.6854,-1.5992,-1.5412,-1.4885,-1.4072,-1.4015,-1.4041,-1.4041,-1.4068,-1.4004,-1.3737,-1.3568,-1.3483,-1.3398,-1.3398,-1.3392,-1.3398,-1.3222,-1.2711,-1.1935,-1.1585,-1.1494,-1.1494,-1.1494,-1.1494,-1.1499,-1.1413,-1.0799,-0.984,-0.9753,-0.8532,-0.6691,-0.6779,-0.6779,-0.6779,-0.6779,-0.6779,-0.6779,-0.3387,-0.3408,-0.3415,-0.3485,-0.3727,-0.3971,-0.42,-0.4976,-0.5783,-0.6415,-0.7347,-0.7835,-0.7475,-0.7439,-0.7175,-0.6547,-0.642,-0.6091,-0.5442,-0.5324,-0.5141,-0.4802,-0.4793,-0.4793,-0.4793,-0.4793,-0.4793,-0.4773,-0.4793,-0.4793,-0.4793,-0.4715,-0.4662,-0.4603,-0.4796,-0.5392,-0.6292,-0.7009,-0.8082,-0.9306,-0.9657,-1.0938,-1.2678,-1.3356,-1.4756,-1.6408,-1.677,-1.6925,-1.6761,-1.507,-1.3296,-1.1597,-1.0267,-0.9261,-0.8329,-0.7054,-0.6942,-0.6999,-0.6115,-0.6021,-0.6149,-0.6354,-0.6702,0.0,-0.7517,-0.7869,-0.84,-0.9505,-1.0095,-1.0668,-1.144,-1.224,-1.2805,-1.2872,-1.3275,-1.4213,-1.6053,-1.5855,-1.5265,-1.46,-1.3967,-1.3534,-1.338,-1.3594,-1.3728,-1.3728,-1.3948,-1.4088,-1.3997,-1.3997,-1.3828,-1.3652,-1.3652,-1.3568,-1.3398,-1.3392,-1.3222,-1.3052,-1.2881,-1.2711,-1.2711,-1.2711,-1.2711,-1.2711,-1.21,-1.1752,-1.1488,-1.0702,-0.974,-0.8694,-0.8877,-0.8969,-0.8969,-0.9139,-0.9226,-0.9139,-0.3436,-0.3457,-0.3457,-0.3485,-0.3774,-0.4087,-0.4304,-0.5334,-0.6283,-0.679,-0.7971,-0.8719,-0.8472,-0.8638,-0.8518,-0.7895,-0.7666,-0.7198,-0.6347,-0.6109,-0.5735,-0.5132,-0.5105,-0.5013,-0.4793,-0.4793,-0.4793,-0.4793,-0.4793,-0.4793,-0.4793,-0.4704,-0.4742,-0.4918,-0.5102,-0.5763,-0.6765,-0.7608,-0.8722,-1.0026,-1.0351,-1.1473,-1.3095,-1.4213,-1.5607,-1.7139,-1.7783,-1.7871,-1.7397,-1.5477,-1.3856,-1.2398,-1.0848,-0.9715,-0.8717,-0.7822,-0.7571,-0.7411,-0.6667,-0.6428,-0.6468,-0.6468,-0.665,0.0,0.0,-0.7809,-0.8186,-0.9116,-0.9458,-0.9771,-1.0367,-1.0966,-1.1438,-1.1551,-1.1946,-1.2489,-1.321,-1.3596,-1.3719,-1.3371,-1.3,-1.2819,-1.2966,-1.3113,-1.332,-1.3539,-1.3781,-1.3928,-1.4082,-1.4088,-1.4004,-1.3913,-1.3913,-1.3828,-1.3743,-1.3652,-1.3568,-1.3568,-1.3313,-1.3222,-1.3222,-1.3222,-1.3222,-1.3228,-1.2875,-1.2705,-1.2619,-1.2174,-1.1735,-1.1209,-1.0438,-1.0096,-1.0096,-1.0178,-1.0183,-1.0009,-0.3478,-0.3485,-0.3498,-0.3579,-0.3861,-0.4193,-0.4522,-0.5576,-0.6602,-0.7237,-0.8482,-0.936,-0.9476,-0.986,-0.9967,-0.9583,-0.9343,-0.8761,-0.7725,-0.7357,-0.6709,-0.5718,-0.5607,-0.5368,-0.4931,-0.4849,-0.4803,-0.4793,-0.4793,-0.4793,-0.4793,-0.4854,-0.499,-0.5222,-0.5683,-0.6393,-0.7349,-0.8351,-0.9581,-1.0885,-1.1384,-1.2319,-1.3571,-1.4975,-1.6357,-1.7617,-1.8457,-1.8496,-1.7872,-1.6364,-1.4725,-1.3205,-1.1842,-1.0423,-0.9139,-0.8629,-0.8255,-0.7825,-0.7332,-0.6981,-0.676,-0.676,-0.6713,-0.6916,0.0,0.0,0.0,-0.9034,-0.9196,-0.9252,-0.9548,-0.9852,-1.0109,-1.0311,-1.0631,-1.0724,-1.0141,-1.1119,-1.1884,-1.2072,-1.2054,-1.2084,-1.2452,-1.264,-1.2886,-1.3434,-1.3581,-1.3748,-1.3988,-1.4055,-1.4088,-1.4088,-1.4088,-1.4088,-1.4088,-1.3913,-1.3737,-1.3737,-1.3568,-1.3483,-1.3483,-1.3534,-1.356,-1.356,-1.3566,-1.3645,-1.3645,-1.3593,-1.3652,-1.3639,-1.1821,-1.1133,-1.1133,-1.1133,-1.1047,-1.0875,-0.3493,-0.3408,-0.3514,-0.3874,-0.4162,-0.4542,-0.5097,-0.5776,-0.6835,-0.8526,-0.9512,-1.0286,-1.0829,-1.1377,-1.1558,-1.1166,-1.1462,-1.1015,-0.9417,-0.924,-0.8409,-0.6708,-0.6354,-0.5932,-0.5342,-0.5038,-0.4853,-0.4793,-0.4793,-0.4793,-0.4802,-0.4984,-0.5116,-0.5239,-0.612,-0.7158,-0.8306,-0.9448,-1.0892,-1.2473,-1.2884,-1.3633,-1.4571,-1.5595,-1.6797,-1.8057,-1.8906,-1.8936,-1.8426,-1.7881,-1.6136,-1.4028,-1.323,-1.2012,-1.0661,-0.9207,-0.9165,-0.9379,-0.8119,-0.7602,-0.7412,-0.7412,-0.7168,-0.6994,-0.7103,0.0,-0.724,-0.7678,0.0,-0.7836,-0.8105,0.0,0.0,-0.7932,-0.816,-0.8222,-0.7895,-0.8555,-0.9372,-1.0289,-1.0618,-1.0875,-1.1162,-1.1897,-1.2492,-1.2826,-1.334,-1.3661,-1.3687,-1.3941,-1.4088,-1.4088,-1.4088,-1.4088,-1.4088,-1.4088,-1.4082,-1.4082,-1.3822,-1.3652,-1.3659,-1.4004,-1.4122,-1.4122,-1.4295,-1.4382,-1.4362,-1.411,-1.4489,-1.5061,-1.3633,-1.3045,-1.3045,-1.3045,-1.3045,-1.296,-0.3869,-0.3869,-0.3994,-0.4388,-0.4694,-0.5108,-0.5823,-0.7078,-0.8467,-1.0013,-1.0723,-1.1223,-1.1544,-1.1984,-1.222,-1.2095,-1.2261,-1.1882,-1.0737,-1.038,-0.9581,-0.8014,-0.7339,-0.6751,-0.6275,-0.5627,-0.5298,-0.5256,-0.5023,-0.4911,-0.4921,-0.5236,-0.5699,-0.6288,-0.698,-0.8071,-0.945,-1.0224,-1.1414,-1.2763,-1.3667,-1.4644,-1.5527,-1.6211,-1.7559,-1.916,-1.9521,-1.9531,-1.9243,-1.8385,-1.6756,-1.5036,-1.451,-1.2846,-1.0927,-1.0509,-1.01,-0.9562,-0.8649,-0.8629,-0.8678,-0.7909,-0.7816,-0.7752,-0.7368,-0.7148,-0.7007,-0.6967,0.0,0.0,0.0,0.0,0.0,0.0,-0.7315,-0.7355,-0.7228,-0.7629,-0.83,-0.9128,-0.9584,-1.0043,-1.0566,-1.1484,-1.2354,-1.3174,-1.3395,-1.3783,-1.4258,-1.4412,-1.44,-1.4082,-1.4088,-1.4088,-1.4088,-1.4088,-1.4088,-1.4088,-1.4489,-1.4734,-1.4741,-1.5631,-1.5691,-1.5196,-1.6067,-1.6045,-1.5268,-1.5716,-1.605,-1.6124,-1.5545,-1.497,-1.4566,-1.4566,-1.4475,-1.4384,-0.424,-0.4248,-0.4343,-0.4828,-0.5069,-0.5572,-0.6634,-0.8219,-0.9683,-1.093,-1.1435,-1.1835,-1.2244,-1.289,-1.3268,-1.332,-1.3613,-1.3388,-1.2349,-1.1865,-1.111,-0.9874,-0.8701,-0.7888,-0.7514,-0.6513,-0.5856,-0.5596,-0.5303,-0.5104,-0.5,-0.552,-0.6203,-0.7029,-0.7891,-0.9097,-1.0567,-1.1182,-1.2148,-1.3371,-1.4428,-1.5624,-1.6816,-1.7266,-1.8467,-1.9932,-2.0049,-2.0019,-1.9788,-1.8966,-1.7642,-1.6253,-1.5765,-1.4038,-1.2163,-1.2119,-1.1435,-1.0552,-0.9729,-0.9713,-0.9599,-0.8418,-0.8252,-0.8222,-0.7725,-0.7361,-0.7081,-0.6874,-0.6767,0.0,0.0,0.0,-0.6633,0.0,0.0,-0.676,-0.6673,-0.6945,-0.7477,-0.823,-0.8802,-0.9311,-0.9732,-1.073,-1.1779,-1.2808,-1.3258,-1.3844,-1.4643,-1.5018,-1.4873,-1.4289,-1.4615,-1.4741,-1.4496,-1.4657,-1.4824,-1.4824,-1.5477,-1.5846,-1.5944,-1.6946,-1.7064,-1.6575,-1.7604,-1.7344,-1.641,-1.7077,-1.725,-1.718,-1.7082,-1.6919,-1.6511,-1.5959,-1.5628,-1.5621,-0.4455,-0.4342,-0.4401,-0.5076,-0.5195,-0.5783,-0.7573,-0.8717,-0.9771,-1.0871,-1.1354,-1.2036,-1.3103,-1.4429,-1.52,-1.5103,-1.6174,-1.6203,-1.4596,-1.4075,-1.3382,-1.2413,-1.0545,-0.9367,-0.9021,-0.7675,-0.6521,-0.5596,-0.5587,-0.5378,-0.5009,-0.5814,-0.648,-0.7067,-0.8704,-1.0258,-1.1704,-1.2497,-1.3611,-1.485,-1.5209,-1.666,-1.8603,-1.9043,-1.9502,-1.9971,-2.0391,-2.0273,-1.9912,-1.9827,-1.892,-1.7687,-1.6979,-1.6123,-1.523,-1.4067,-1.3495,-1.3005,-1.1732,-1.0697,-0.9814,-0.8988,-0.8343,-0.7916,-0.7868,-0.7675,-0.7493,-0.7486,-0.7208,-0.7007,-0.7007,-0.678,0.0,0.0,0.0,0.0,0.0,-0.6147,-0.6724,-0.7435,-0.8184,0.0,-0.8472,-0.9596,-1.0631,-1.1331,-1.2684,-1.376,-1.4369,-1.5481,-1.564,-1.4779,-1.5963,-1.6214,-1.5394,-1.6206,-1.6617,-1.6617,-1.6617,-1.6865,-1.7283,-1.7572,-1.7914,-1.8232,-1.824,-1.8033,-1.7676,-1.7604,-1.7829,-1.8212,-1.8178,-1.8797,-1.9446,-1.7407,-1.6617,-1.6617,-0.4486,-0.4564,-0.4828,-0.5595,-0.5734,-0.6495,-0.8767,-0.9913,-1.1113,-1.2706,-1.3453,-1.4268,-1.5336,-1.6641,-1.7363,-1.7265,-1.7977,-1.7877,-1.6606,-1.6085,-1.5229,-1.3883,-1.265,-1.1594,-1.0782,-0.9445,-0.8325,-0.7394,-0.6864,-0.6377,-0.5951,-0.6517,-0.7191,-0.7988,-0.9165,-1.0611,-1.2152,-1.2702,-1.3872,-1.5403,-1.6612,-1.8076,-1.9473,-1.9336,-1.9727,-2.0361,-2.0508,-2.0469,-2.0342,-2.0342,-1.9516,-1.8515,-1.8767,-1.736,-1.566,-1.5769,-1.4924,-1.3777,-1.2854,-1.2714,-1.231,-1.0415,-0.9961,-0.9673,-0.8504,-0.7989,-0.7715,-0.7553,-0.7228,-0.6967,-0.6767,-0.6339,0.0,0.0,0.0,0.0,0.0,-0.5405,-0.5724,0.0,0.0,0.0,0.0,0.0,-1.0845,-1.215,-1.3028,-1.3965,-1.5138,-1.5839,-1.6013,-1.5705,-1.6362,-1.6535,-1.6288,-1.6535,-1.6772,-1.6927,-1.7342,-1.7868,-1.8396,-1.9379,-1.9678,-1.9516,-2.0572,-2.0457,-1.9531,-2.0402,-2.0742,-2.0661,-2.0809,-2.1151,-2.1303,-1.9887,-1.9409,-1.9643,-0.4512,-0.4709,-0.5124,-0.5884,-0.6502,-0.7645,-0.9886,-1.0851,-1.2119,-1.428,-1.4931,-1.5839,-1.7352,-1.8437,-1.9071,-1.8945,-1.9707,-1.9583,-1.8177,-1.7714,-1.6979,-1.5923,-1.4474,-1.3376,-1.2764,-1.1046,-0.9635,-0.859,-0.7718,-0.7012,-0.6416,-0.6885,-0.7559,-0.845,-0.9495,-1.095,-1.2595,-1.314,-1.4336,-1.5891,-1.7387,-1.885,-2.0127,-1.9767,-2.0026,-2.0566,-2.0566,-2.0566,-2.0566,-2.0566,-2.0062,-1.9506,-1.981,-1.8665,-1.7261,-1.7571,-1.6734,-1.5446,-1.4684,-1.4498,-1.4025,-1.1988,-1.157,-1.1308,-0.9941,-0.9271,-0.8892,-0.8729,-0.8288,-0.7874,-0.7756,-0.7044,0.0,0.0,0.0,0.0,0.0,-0.5058,0.0,0.0,0.0,0.0,0.0,0.0,0.0,0.0,0.0,0.0,0.0,-1.6123,-1.6465,-1.6374,-1.7138,-1.746,-1.7253,-1.7504,-1.7755,-1.7908,-1.8621,-1.9236,-1.9879,-2.1284,-2.1771,-2.1579,-2.2814,-2.2832,-2.1959,-2.2867,-2.2897,-2.2387,-2.2939,-2.3088,-2.2765,-2.1673,-2.1359,-2.1511,-0.4594,-0.4902,-0.5401,-0.6022,-0.7455,-0.9139,-1.0915,-1.1566,-1.2798,-1.5415,-1.5833,-1.6761,-1.9037,-1.9978,-2.036,-2.02,-2.1381,-2.1341,-1.9543,-1.9068,-1.8746,-1.8519,-1.6111,-1.4824,-1.494,-1.2507,-1.0606,-0.9283,-0.8319,-0.7391,-0.6538,-0.696,-0.7617,-0.8499,-0.9727,-1.1345,-1.3156,-1.3841,-1.5019,-1.6556,-1.7725,-1.9193,-2.0591,-2.0392,-2.05,-2.0644,-2.0644,-2.0644,-2.0644,-2.0566,-2.0566,-2.0498,-2.0078,-1.9932,-1.9834,-1.9434,-1.873,-1.792,-1.7125,-1.6046,-1.4923,-1.3639,-1.3093,-1.2721,-1.2124,-1.1424,-1.0904,-1.0877,-1.0238,-0.9722,-0.9806,-0.8779,-0.7934,0.0,0.0,0.0,0.0,0.0,0.0,0.0,0.0,0.0,0.0,0.0,0.0,0.0,0.0,0.0,0.0,-1.642,-1.7088,-1.685,-1.8267,-1.882,-1.8346,-1.9036,-1.9469,-1.9715,-2.0459,-2.1055,-2.1561,-2.3022,-2.3966,-2.4373,-2.4913,-2.4933,-2.4598,-2.4843,-2.4382,-2.3634,-2.4484,-2.459,-2.4097,-2.2914,-2.2478,-2.2467,-0.5423,-0.6074,-0.6901,-0.7711,-0.8539,-0.9582,-1.0995,-1.1956,-1.3559,-1.6433,-1.7671,-1.9073,-2.1185,-2.2816,-2.3582,-2.3073,-2.3782,-2.3692,-2.2338,-2.2152,-2.1519,-2.0178,-1.9455,-1.8359,-1.6674,-1.5362,-1.3789,-1.1921,-1.0621,-0.9436,-0.8321,-0.8058,-0.8259,-0.8887,-0.9853,-1.1385,-1.327,-1.4405,-1.6346,-1.8764,-2.032,-2.1028,-2.1187,-2.2243,-2.1954,-2.1051,-2.0896,-2.0819,-2.0819,-2.0644,-2.0566,-2.0547,-2.0439,-2.0176,-1.9893,-1.9785,-1.9375,-1.8815,-1.8273,-1.7725,-1.692,-1.5451,-1.479,-1.4282,-1.3229,-1.267,-1.2276,-1.2285,-1.1408,-1.0639,-1.0541,-0.9328,-0.824,0.0,0.0,0.0,0.0,0.0,0.0,-0.5396,0.0,0.0,0.0,0.0,0.0,0.0,0.0,0.0,-1.5284,-1.6216,-1.7101,-1.7768,-1.8583,-1.9,-1.9007,-1.9995,-2.0615,-2.1011,-2.1593,-2.2192,-2.2797,-2.3577,-2.4229,-2.463,-2.5946,-2.6091,-2.5507,-2.6485,-2.6366,-2.5711,-2.6308,-2.6598,-2.6501,-2.566,-2.5252,-2.5098,-0.6421,-0.7148,-0.8145,-0.9236,-1.0068,-1.1005,-1.2215,-1.3216,-1.488,-1.7907,-1.9192,-2.0654,-2.2757,-2.418,-2.4998,-2.4898,-2.5462,-2.5286,-2.4104,-2.4109,-2.3486,-2.1865,-2.1141,-2.0175,-1.8824,-1.7168,-1.5554,-1.3976,-1.2282,-1.0731,-0.9298,-0.8785,-0.8704,-0.9043,-0.9902,-1.1345,-1.3304,-1.5587,-1.786,-2.0151,-2.1508,-2.2226,0.0,-2.3305,-2.2957,-2.1949,-2.1787,-2.1349,-2.0906,-2.0741,-2.0654,-2.0566,-2.0566,-2.04,-2.0195,-2.0195,-1.9893,-1.9502,-1.9258,-1.8887,-1.8329,-1.7235,-1.6826,-1.6365,-1.5251,-1.4691,-1.4321,-1.3911,-1.3101,-1.2342,-1.1953,-1.0782,-0.9579,-0.8606,-0.745,0.0,0.0,0.0,0.0,0.0,-0.6412,0.0,0.0,0.0,0.0,0.0,0.0,0.0,0.0,-1.6123,-1.7256,-1.8645,-1.9117,-1.9652,-2.0426,-2.0705,-2.1221,-2.1973,-2.2627,-2.3268,-2.397,-2.5245,-2.6123,-2.6724,-2.8071,-2.8409,-2.8092,-2.8741,-2.8659,-2.7971,-2.7788,-2.8001,-2.8292,-2.7549,-2.7056,-2.6731,-0.7651,-0.8261,-0.9286,-1.0564,-1.1758,-1.3012,-1.4243,-1.4969,-1.65,-1.9547,-2.0575,-2.1872,-2.4015,-2.4829,-2.5506,-2.6106,-2.6634,-2.6461,-2.5449,-2.5537,-2.5036,-2.3758,-2.2337,-2.1412,-2.1063,-1.8558,-1.6747,-1.569,-1.3641,-1.1768,-1.0013,-0.9531,-0.9306,-0.9372,-1.0188,-1.1724,-1.3935,-1.7155,-1.9529,-2.122,-2.2014,-2.3062,-2.4108,-2.4108,-2.3801,-2.3238,-2.3056,-2.2164,-2.1073,-2.1073,-2.0937,-2.0899,-2.0811,-2.082,-2.0811,-2.082,-2.043,-2.0088,-2.0088,-1.9736,-1.9277,-1.8896,-1.876,-1.8455,-1.7572,-1.7079,-1.6558,-1.5706,-1.5089,-1.4486,-1.3695,-1.2554,-1.1186,-0.9583,-0.8661,-0.8191,0.0,0.0,0.0,0.0,0.0,0.0,0.0,0.0,0.0,0.0,0.0,0.0,0.0,0.0,-1.7441,-1.9198,-1.9592,-2.0463,-2.1779,-2.1476,-2.1866,-2.2914,-2.3868,-2.4637,-2.5274,-2.7363,-2.8626,-2.9248,-3.0545,-3.097,-3.0895,-3.1044,-3.0703,-3.0158,-2.9157,-2.9147,-2.9558,-2.8947,-2.8314,-2.7749,-0.9573,-0.9991,-1.063,-1.161,-1.3347,-1.5068,-1.6418,-1.6947,-1.8147,-2.0839,-2.2183,-2.3587,-2.5354,-2.6133,-2.6736,-2.7421,-2.7549,-2.7549,-2.7301,-2.7321,-2.7029,-2.6217,-2.556,-2.4451,-2.286,-2.113,-1.9209,-1.7139,-1.5453,-1.3643,-1.1743,-1.1217,-1.1035,-1.1166,-1.1692,-1.3856,-1.7199,-1.9328,-2.1141,-2.2567,-2.3798,-2.4214,-2.4264,-2.5569,-2.5421,-2.4614,-2.4453,-2.3329,-2.1916,-2.1758,-2.193,-2.223,-2.1977,-2.1885,-2.1895,-2.1732,-2.1348,-2.1006,-2.1006,-2.042,-1.9785,-1.9707,-1.9434,-1.9131,-1.8984,-1.8543,-1.8086,-1.7599,-1.687,-1.6001,-1.5061,-1.3224,-1.1557,-1.0648,-0.991,-0.9461,-0.9484,0.0,0.0,0.0,0.0,-0.9125,0.0,0.0,0.0,0.0,0.0,0.0,0.0,0.0,-1.6842,-1.8577,-1.9701,-2.0605,-2.1285,-2.3225,-2.4316,-2.4494,-2.6133,-2.6909,-2.7082,-2.8438,-2.9041,-2.9319,-3.1128,-3.1489,-3.097,-3.1636,-3.1505,-3.0966,-3.0778,-3.0528,-3.0308,-3.0197,-2.977,-2.9135,-1.1328,-1.1991,-1.2744,-1.3476,-1.5407,-1.7314,-1.8814,-1.9963,-2.0977,-2.1767,-2.3278,-2.4669,-2.5784,-2.6748,-2.7565,-2.8197,-2.8254,-2.8254,-2.8254,-2.8313,-2.809,-2.734,-2.651,-2.5632,-2.4676,-2.2752,-2.0862,-1.9125,-1.7261,-1.5324,-1.3394,-1.2576,-1.2141,-1.2063,-1.3372,-1.5417,-1.8025,-2.0101,-2.1919,-2.3526,-2.4753,-2.5296,-2.5465,-2.6487,-2.638,-2.5604,-2.5777,-2.4968,-2.3625,-2.2695,-2.2534,-2.2553,-2.2461,-2.2287,-2.2205,-2.204,-2.1811,-2.1523,-2.1299,-2.0928,-2.0537,-2.0312,-2.0098,-1.9893,-1.9668,-1.9453,-1.9111,-1.8467,-1.7832,-1.6928,-1.5476,-1.4118,-1.3,-1.2456,-1.1449,-1.0854,-1.1149,0.0,0.0,0.0,0.0,0.0,0.0,0.0,0.0,0.0,0.0,0.0,0.0,0.0,-1.7043,-1.9137,-2.0317,-2.1621,-2.3042,-2.4305,-2.5378,-2.6271,-2.7124,-2.767,-2.8091,-2.928,-3.0035,-3.0473,-3.2024,-3.2475,-3.2187,-3.2704,-3.2736,-3.2444,-3.2208,-3.187,-3.1457,-3.1185,-3.0678,-2.9961,-1.3151,-1.4189,-1.518,-1.5835,-1.7727,-1.9611,-2.1073,-2.2896,-2.3875,-2.3098,-2.4476,-2.5825,-2.6497,-2.746,-2.8344,-2.8951,-2.8947,-2.8933,-2.8933,-2.9007,-2.8796,-2.8183,-2.7201,-2.6537,-2.6145,-2.3985,-2.2184,-2.0863,-1.8814,-1.6664,-1.4473,-1.3879,-1.3494,-1.3408,-1.529,-1.7062,-1.8785,-2.0827,-2.2648,-2.4255,-2.5209,-2.6013,-2.6747,-2.7118,-2.7061,-2.6712,-2.695,-2.6418,-2.5381,-2.3977,-2.331,-2.299,-2.2907,-2.2825,-2.2649,-2.2482,-2.234,-2.2026,-2.1602,-2.1377,-2.1152,-2.0791,-2.0635,-2.0478,-2.0127,-2.0049,-1.9834,-1.9062,-1.8487,-1.7777,-1.6262,-1.541,-1.4838,-1.4434,-1.3178,-1.2392,-1.2868,0.0,0.0,0.0,0.0,0.0,0.0,0.0,0.0,0.0,0.0,0.0,-1.5222,0.0,-1.7303,-1.9521,-2.1035,-2.2769,-2.4655,-2.5333,-2.637,-2.7683,-2.7881,-2.8195,-2.8817,-3.0035,-3.1029,-3.1754,-3.3038,-3.3701,-3.3811,-3.4031,-3.3977,-3.3811,-3.3499,-3.2972,-3.241,-3.2037,-3.1457,-3.0693,-1.5391,-1.6492,-1.7692,-1.8632,-2.0215,-2.1781,-2.2967,-2.4685,-2.5805,-2.5586,-2.6438,-2.7456,-2.8516,-2.8921,-2.9294,-2.9907,-2.9813,-2.9723,-2.9723,-2.9566,-2.949,-2.9434,-2.8909,-2.8078,-2.6919,-2.5152,-2.3399,-2.1763,-1.9773,-1.7289,-1.44,-1.5104,-1.5793,-1.6422,-1.7721,-1.9285,-2.1068,-2.2402,-2.362,-2.4795,-2.536,-2.6239,-2.7205,-2.7268,-2.7836,-2.855,-2.7791,-2.727,-2.6744,-2.5876,-2.4967,-2.433,-2.4074,-2.3988,-2.3902,-2.3471,-2.3107,-2.2715,-2.2497,-2.1826,-2.1221,-2.1182,-2.0869,-2.0557,-2.0508,-2.0508,-2.0371,-1.9893,-1.9314,-1.8793,-1.8543,-1.7606,-1.6722,-1.6386,-1.5194,-1.4323,-1.4286,-1.3758,-1.347,-1.3751,0.0,0.0,0.0,-1.2168,0.0,0.0,0.0,0.0,0.0,-1.5532,-1.71,-1.8834,-2.1455,-2.3356,-2.432,-2.6909,-2.8168,-2.8222,-2.9022,-2.9415,-2.9519,-3.0844,-3.1669,-3.2328,-3.3804,-3.4898,-3.5552,-3.5567,-3.5275,-3.4743,-3.4751,-3.3868,-3.2684,-3.2613,-3.2174,-3.1471,-1.6907,-1.8109,-1.9189,-1.9977,-2.2128,-2.3879,-2.4368,-2.6036,-2.7329,-2.7523,-2.8081,-2.8611,-2.9052,-2.9451,-2.984,-3.0097,-3.0036,-2.9974,-2.9974,-2.9927,-2.9927,-2.9927,-2.9391,-2.8637,-2.7726,-2.6379,-2.474,-2.2861,-2.1397,-1.9674,-1.772,-1.7771,-1.8197,-1.894,-1.982,-2.1009,-2.2405,-2.3631,-2.4612,-2.5335,-2.5887,-2.659,-2.7318,-2.7657,-2.826,-2.8888,-2.8919,-2.8124,-2.7069,-2.673,-2.5673,-2.4454,-2.4368,-2.4292,-2.4206,-2.3947,-2.3644,-2.3196,-2.2843,-2.2163,-2.1562,-2.1299,-2.0898,-2.0566,-2.0566,-2.0566,-2.0518,-2.0342,-2.0259,-2.0089,-1.9472,-1.9378,-1.9222,-1.8953,-1.7874,-1.6919,-1.6585,-1.584,0.0,-1.511,0.0,0.0,0.0,0.0,0.0,0.0,0.0,0.0,0.0,-1.5345,-1.6791,-1.8857,-2.1659,-2.3799,-2.523,-2.7386,-2.8762,-2.917,-2.956,-2.9775,-2.9969,-3.1233,-3.2579,-3.3893,-3.4937,-3.5567,-3.5948,-3.5948,-3.5837,-3.5612,-3.5755,-3.5254,-3.4514,-3.4215,-3.3689,-3.2904,-1.9253,-2.0525,-2.1627,-2.2361,-2.435,-2.5962,-2.6142,-2.7337,-2.8432,-2.8933,-2.9274,-2.9454,-2.9454,-2.99,-3.0233,-3.0233,-3.0158,-3.0158,-3.0158,-3.0111,-3.0111,-3.0111,-2.9697,-2.9154,-2.8511,-2.7351,-2.5945,-2.4361,-2.3059,-2.1615,-2.0114,-1.9429,-1.9827,-2.1158,-2.1808,-2.2742,-2.3907,-2.4958,-2.5608,-2.5981,-2.6539,-2.703,-2.7582,-2.8134,-2.8699,-2.9239,-2.9641,-2.8791,-2.7476,-2.7232,-2.6091,-2.4861,-2.4625,-2.4368,-2.4292,-2.4206,-2.3937,-2.3607,-2.3222,-2.2646,-2.2056,-2.1614,-2.1164,-2.0732,-2.0683,-2.0644,-2.0644,-2.0867,-2.1179,-2.1311,-2.0936,-2.1101,-2.1297,-2.104,-2.0079,-1.9171,-1.8605,-1.7832,-1.7158,-1.6663,-1.6085,-1.5795,-1.5814,-1.4845,0.0,0.0,0.0,0.0,0.0,-1.5886,-1.7311,-1.9162,-2.2126,-2.4391,-2.5808,-2.7845,-2.9219,-2.9808,-2.9884,-2.996,-3.0154,-3.1602,-3.3346,-3.532,-3.5837,-3.64,-3.6798,-3.6798,-3.6676,-3.6492,-3.6631,-3.6353,-3.5821,-3.5533,-3.5055,-3.4483,-2.2763,-2.415,-2.5382,-2.6539,-2.7312,-2.7959,-2.8563,-2.8768,-2.91,-2.9723,-2.996,-3.0111,-3.0111,-3.0401,-3.0568,-3.0568,-3.0387,-3.0312,-3.0312,-3.0158,-3.0111,-3.0111,-3.0111,-2.9811,-2.9183,-2.7911,-2.7035,-2.6467,-2.4525,-2.2586,-2.0668,-1.9475,-2.0404,-2.3097,-2.3688,-2.4657,-2.5909,-2.6403,-2.6636,-2.6726,-2.7163,-2.7607,-2.816,-2.8712,-2.9277,-2.9779,-2.9792,-2.9209,-2.8371,-2.7395,-2.6483,-2.5663,-2.4775,-2.454,-2.4454,-2.4292,-2.4206,-2.411,-2.358,-2.3186,-2.275,-2.2304,-2.1706,-2.1113,-2.0927,-2.0731,-2.0867,-2.1614,-2.1988,-2.2452,-2.3233,-2.296,-2.2616,-2.24,-2.1565,-2.0742,-2.0053,-1.9648,-1.9177,-1.8737,-1.7098,-1.6517,-1.7831,-1.5929,0.0,0.0,0.0,0.0,0.0,-1.737,-1.9078,-1.9749,-2.3102,-2.5084,-2.5608,-2.8408,-2.9808,-2.9808,-2.9974,-3.0111,-3.0154,-3.1965,-3.4032,-3.6104,-3.6631,-3.746,-3.8391,-3.8391,-3.796,-3.7417,-3.7417,-3.6874,-3.6089,-3.6089,-3.6151,-3.6215,-2.42,-2.5131,-2.5925,-2.6644,-2.7708,-2.8464,-2.8661,-2.9102,-2.9487,-2.978,-2.9974,-3.0111,-3.0219,-3.0326,-3.0447,-3.0568,-3.0507,-3.0507,-3.0507,-3.0462,-3.0462,-3.0462,-3.0462,-3.0172,-2.9478,-2.9059,-2.838,-2.7295,-2.6597,-2.571,-2.4725,-2.4312,-2.4883,-2.6242,-2.6428,-2.6999,-2.7731,-2.7387,-2.7264,-2.7275,-2.7316,-2.7607,-2.816,-2.8712,-2.9289,-2.9792,-2.9792,-2.9209,-2.8383,-2.7395,-2.6483,-2.5663,-2.4775,-2.454,-2.4454,-2.4454,-2.4292,-2.4206,-2.4024,-2.3539,-2.3082,-2.2932,-2.2259,-2.16,-2.1441,-2.1396,-2.1461,-2.1766,-2.2668,-2.3591,-2.3807,-2.419,-2.4447,-2.4377,-2.379,-2.3119,-2.2469,-2.1946,-2.1342,-2.0465,-1.9823,-1.9256,-1.8744,-1.7649,0.0,0.0,0.0,0.0,-1.6211,-1.8088,-1.9698,-2.0734,-2.4136,-2.6235,-2.6728,-2.8895,-3.0021,-3.0129,-3.0205,-3.0725,-3.1806,-3.321,-3.4846,-3.6477,-3.71,-3.7812,-3.856,-3.8655,-3.8415,-3.8091,-3.8205,-3.8001,-3.7621,-3.7279,-3.7144,-3.7109,-2.6176,-2.6955,-2.7538,-2.8085,-2.9045,-2.9743,-2.9743,-3.0115,-3.0418,-3.0517,-3.0671,-3.0874,-3.1046,-3.1046,-3.0921,-3.0611,-3.0568,-3.0568,-3.0568,-3.0568,-3.0568,-3.0568,-3.0568,-3.0379,-2.9987,-2.974,-2.9232,-2.8378,-2.8091,-2.7773,-2.7382,-2.7382,-2.7639,-2.81,-2.8332,-2.8641,-2.8961,-2.8518,-2.8443,-2.8571,-2.8161,-2.8341,-2.8902,-2.9114,-2.9478,-2.9792,-2.9792,-2.9456,-2.887,-2.7971,-2.7058,-2.6152,-2.5263,-2.4786,-2.454,-2.454,-2.4368,-2.4292,-2.4206,-2.3907,-2.3568,-2.3406,-2.2736,-2.195,-2.1451,-2.1376,-2.1624,-2.2134,-2.3021,-2.3829,-2.4409,-2.5004,-2.5382,-2.5382,-2.5187,-2.4747,-2.4129,-2.3673,-2.31,-2.2127,-2.1666,-2.1098,-2.0163,-1.9467,-1.8972,0.0,0.0,-1.9745,-1.9117,-2.0023,-2.1091,-2.2195,-2.5225,-2.7062,-2.7626,-2.9327,-3.0219,-3.0326,-3.0831,-3.176,-3.2893,-3.3973,-3.5182,-3.6259,-3.6753,-3.7488,-3.8319,-3.8415,-3.8472,-3.8544,-3.8655,-3.86,-3.8488,-3.8141,-3.8067,-3.8076,-2.8638,-2.935,-2.9912,-3.0488,-3.1092,-3.1485,-3.1485,-3.1589,-3.1707,-3.1707,-3.1917,-3.2112,-3.232,-3.232,-3.1893,-3.0814,-3.0698,-3.0698,-3.0698,-3.0698,-3.0698,-3.0698,-3.0698,-3.0698,-3.0698,-3.0074,-2.974,-2.9697,-2.9102,-2.8811,-2.8811,-2.8811,-2.8811,-2.884,-2.9421,-2.9697,-2.9667,-2.9629,-2.9974,-3.0387,-2.9504,-2.9549,-3.0077,-2.9936,-2.9856,-2.9792,-2.9792,-2.9792,-2.9702,-2.8791,-2.7879,-2.7058,-2.608,-2.5263,-2.4625,-2.454,-2.454,-2.4454,-2.4282,-2.4206,-2.4104,-2.3676,-2.3041,-2.222,-2.1222,-2.1003,-2.1425,-2.2734,-2.3095,-2.3537,-2.5087,-2.5453,-2.5606,-2.5606,-2.5758,-2.5656,-2.4937,-2.4876,-2.4534,-2.3735,-2.2838,-2.2256,-2.2032,-2.1325,-2.095,-2.108,-2.2382,-2.3245,-2.3354,-2.3057,-2.3219,-2.4073,-2.6303,-2.7746,-2.8274,-2.9665,-3.0312,-3.0326,-3.1871,-3.2871,-3.3455,-3.4391,-3.5243,-3.5864,-3.5976,-3.6768,-3.8001,-3.8001,-3.8343,-3.8805,-3.8805,-3.8805,-3.8805,-3.8805,-3.8914,-3.9023,-3.0653,-3.0951,-3.1092,-3.1232,-3.1387,-3.1551,-3.1655,-3.1641,-3.1772,-3.2112,-3.2177,-3.232,-3.2449,-3.2449,-3.2333,-3.2077,-3.2063,-3.2063,-3.2063,-3.2063,-3.2063,-3.2063,-3.2063,-3.2063,-3.2063,-3.1409,-3.0829,-3.035,-3.0205,-3.0132,-3.0132,-3.0132,-3.0132,-3.0132,-3.0277,-3.035,-3.035,-2.9813,-2.9974,-3.0451,-3.0133,-3.0047,-3.015,-3.0475,-3.0279,-2.9792,-2.9792,-2.9792,-2.9702,-2.8791,-2.8383,-2.7879,-2.6318,-2.5663,-2.5337,-2.47,-2.454,-2.4454,-2.4454,-2.4454,-2.4433,-2.432,-2.3535,-2.2635,-2.1997,-2.1979,-2.2317,-2.3169,-2.3902,-2.4564,-2.5606,-2.5828,-2.584,-2.584,-2.584,-2.5861,-2.5656,-2.5644,-2.5379,-2.4762,-2.4524,-2.4062,-2.3215,-2.2945,-2.3059,-2.3653,-2.4056,-2.4674,-2.5708,-2.6136,-2.6277,-2.6202,-2.8053,-2.91,-2.9244,-3.0129,-3.0568,-3.0717,-3.2632,-3.3667,-3.3864,-3.5507,-3.6747,-3.7531,-3.7589,-3.801,-3.8733,-3.8931,-3.8914,-3.8805,-3.8914,-3.8914,-3.8805,-3.8914,-3.8969,-3.9023,-3.1419,-3.171,-3.1907,-3.1907,-3.2145,-3.2382,-3.2503,-3.2652,-3.2787,-3.3105,-3.3172,-3.3318,-3.3383,-3.3383,-3.3383,-3.3383,-3.2861,-3.2513,-3.2513,-3.2513,-3.2513,-3.2513,-3.2513,-3.2513,-3.2513,-3.2164,-3.1801,-3.1467,-3.1467,-3.1467,-3.1467,-3.1467,-3.1467,-3.1467,-3.1467,-3.1467,-3.1467,-3.1065,-3.1297,-3.1832,-3.14,-3.1349,-3.1496,-3.1074,-3.0607,-3.0279,-2.9934,-2.9792,-2.9714,-2.9287,-2.8882,-2.8462,-2.7383,-2.6812,-2.6483,-2.5841,-2.5105,-2.454,-2.454,-2.4786,-2.5136,-2.533,-2.4979,-2.4335,-2.3554,-2.3417,-2.353,-2.3948,-2.4409,-2.4933,-2.5758,-2.598,-2.6062,-2.6062,-2.6119,-2.6119,-2.6062,-2.6062,-2.5881,-2.5505,-2.5468,-2.5136,-2.4275,-2.4384,-2.4645,-2.5104,-2.577,-2.6614,-2.7621,-2.844,-2.8564,-2.7752,-2.8943,-2.9769,-3.0045,-3.0468,-3.1176,-3.2088,-3.3612,-3.4682,-3.5256,-3.6731,-3.7472,-3.7648,-3.7764,-3.8124,-3.8717,-3.8772,-3.8914,-3.904,-3.9094,-3.9094,-3.904,-3.9094,-3.9148,-3.9148,-3.1833,-3.2255,-3.2607,-3.2607,-3.3044,-3.3466,-3.3675,-3.3813,-3.3951,-3.4128,-3.4278,-3.4414,-3.4414,-3.4414,-3.4414,-3.4414,-3.3427,-3.2803,-3.2803,-3.2803,-3.2803,-3.2803,-3.2803,-3.2803,-3.2803,-3.2716,-3.2614,-3.2513,-3.2513,-3.2513,-3.2513,-3.2513,-3.2513,-3.2527,-3.2513,-3.2513,-3.2527,-3.2513,-3.289,-3.3456,-3.2801,-3.2817,-3.3073,-3.1769,-3.1193,-3.0895,-3.0216,-2.9934,-2.9869,-2.9869,-2.9521,-2.8949,-2.87,-2.8211,-2.7637,-2.7232,-2.6091,-2.4861,-2.4861,-2.5432,-2.6052,-2.6462,-2.6553,-2.6253,-2.507,-2.4796,-2.4751,-2.4741,-2.4791,-2.5004,-2.5828,-2.6119,-2.627,-2.627,-2.6396,-2.6465,-2.627,-2.627,-2.6201,-2.6176,-2.6164,-2.599,-2.5652,-2.5924,-2.6155,-2.6396,-2.7598,-2.8591,-2.9268,-3.0158,-3.0201,-2.9103,-2.952,-3.0089,-3.0792,-3.0925,-3.1865,-3.3535,-3.4595,-3.564,-3.6742,-3.7786,-3.7969,-3.7413,-3.7605,-3.801,-3.8463,-3.8463,-3.8827,-3.9379,-3.9379,-3.9379,-3.9379,-3.9379,-3.9325,-3.9325,-3.3253,-3.3323,-3.3463,-3.3602,-3.3756,-3.3882,-3.3991,-3.4059,-3.4128,-3.4346,-3.4414,-3.4414,-3.4414,-3.4414,-3.4414,-3.4414,-3.424,-3.4124,-3.4124,-3.4124,-3.4124,-3.4124,-3.4124,-3.4124,-3.4124,-3.3601,-3.3064,-3.2513,-3.2513,-3.2513,-3.2513,-3.2513,-3.2591,-3.2718,-3.2591,-3.2591,-3.2718,-3.2591,-3.289,-3.347,-3.3493,-3.3442,-3.3437,-3.3213,-3.2349,-3.1368,-3.1071,-3.0583,-3.0075,-3.0216,-3.0139,-2.9754,-2.9172,-2.8858,-2.8462,-2.7637,-2.7069,-2.6741,-2.6741,-2.6823,-2.6883,-2.6966,-2.6726,-2.6334,-2.5647,-2.5199,-2.4974,-2.5195,-2.5229,-2.5453,-2.6245,-2.6465,-2.6465,-2.6465,-2.6465,-2.6465,-2.6465,-2.6465,-2.6645,-2.7229,-2.7284,-2.7432,-2.7918,-2.8177,-2.8548,-2.9142,-2.952,-3.0018,-3.0734,-3.0896,-3.0911,-3.0734,-3.0675,-3.0984,-3.1664,-3.1849,-3.2287,-3.3105,-3.5086,-3.6099,-3.6367,-3.8236,-3.904,-3.8969,-3.8969,-3.9148,-3.9309,-3.9309,-3.9415,-3.9625,-3.9625,-3.9625,-3.9625,-3.9625,-3.959,-3.9448,-3.3744,-3.3744,-3.3827,-3.3896,-3.3896,-3.3951,-3.4059,-3.4128,-3.4196,-3.4346,-3.4414,-3.4414,-3.4414,-3.4414,-3.4414,-3.4414,-3.4414,-3.4414,-3.4414,-3.4414,-3.4414,-3.4414,-3.4414,-3.4414,-3.4414,-3.4124,-3.3833,-3.3543,-3.3543,-3.3543,-3.3543,-3.3543,-3.3609,-3.382,-3.3755,-3.3805,-3.3936,-3.3856,-3.3966,-3.423,-3.4347,-3.4309,-3.4221,-3.3796,-3.3297,-3.2648,-3.1723,-3.1158,-3.0797,-3.0508,-3.0368,-3.0216,-2.9883,-2.9729,-2.9574,-2.9015,-2.8039,-2.7232,-2.7718,-2.7879,-2.7971,-2.8474,-2.8373,-2.8053,-2.7143,-2.6831,-2.6505,-2.6058,-2.6013,-2.6151,-2.6521,-2.6739,-2.6739,-2.6739,-2.6739,-2.6739,-2.6739,-2.6739,-2.6985,-2.767,-2.7802,-2.8051,-2.8684,-2.8967,-2.9359,-3.004,-3.0101,-3.0478,-3.1176,-3.1132,-3.1132,-3.119,-3.1073,-3.1117,-3.1495,-3.1921,-3.2576,-3.3621,-3.5374,-3.658,-3.7318,-3.8775,-3.9379,-3.9325,-3.9468,-3.9537,-3.9501,-3.959,-3.9625,-3.9677,-3.9677,-3.9677,-3.9677,-3.9677,-3.9677,-3.959,-3.3951,-3.3951,-3.3951,-3.402,-3.402,-3.402,-3.4128,-3.4196,-3.4196,-3.4414,-3.4414,-3.4414,-3.4414,-3.4414,-3.4414,-3.4414,-3.4414,-3.4414,-3.4414,-3.4414,-3.4414,-3.4414,-3.4414,-3.4414,-3.4414,-3.4481,-3.4481,-3.4414,-3.4481,-3.4481,-3.4414,-3.4481,-3.4616,-3.4765,-3.4765,-3.4817,-3.5001,-3.4935,-3.4935,-3.4935,-3.4935,-3.5001,-3.492,-3.4182,-3.3854,-3.3554,-3.2148,-3.1523,-3.1235,-3.0616,-3.0332,-3.0258,-3.0196,-3.0134,-3.0059,-2.9921,-2.8648,-2.7573,-2.8311,-2.8633,-2.8961,-2.9702,-2.9869,-2.949,-2.8434,-2.8109,-2.7795,-2.676,-2.6658,-2.6714,-2.6794,-2.6875,-2.7024,-2.7024,-2.7024,-2.7024,-2.7024,-2.7134,-2.751,-2.8182,-2.8363,-2.8748,-2.9393,-2.9656,-2.9979,-3.0524,-3.0553,-3.0807,-3.1351,-3.1249,-3.1249,-3.1351,-3.1249,-3.1249,-3.1409,-3.2033,-3.2928,-3.4127,-3.5522,-3.6809,-3.8032,-3.885,-3.9282,-3.9379,-3.9573,-3.9642,-3.959,-3.9677,-3.9781,-3.9781,-3.9781,-3.9781,-3.9781,-3.9781,-3.9781,-3.9729,-3.4059,-3.4059,-3.4128,-3.4346,-3.4346,-3.4346,-3.4414,-3.4414,-3.4414,-3.4414,-3.4414,-3.4414,-3.4414,-3.4414,-3.4414,-3.4414,-3.4414,-3.4414,-3.4414,-3.4414,-3.4414,-3.4414,-3.4414,-3.4414,-3.4414,-3.4563,-3.4563,-3.4414,-3.4735,-3.4735,-3.4414,-3.4735,-3.4868,-3.4868,-3.4868,-3.5001,-3.5148,-3.5001,-3.4935,-3.4935,-3.5082,-3.5148,-3.5073,-3.4436,-3.3877,-3.3332,-3.2413,-3.158,-3.0882,-3.0459,-3.0196,-2.9974,-2.9534,-2.9262,-2.9132,-2.906,-2.8686,-2.83,-2.8433,-2.9118,-2.9779,-3.0011,-2.9934,-2.9567,-2.8568,-2.8243,-2.7855,-2.6886,-2.6714,-2.6794,-2.6943,-2.7024,-2.7024,-2.7024,-2.7024,-2.7024,-2.7024,-2.7497,-2.8182,-2.8876,-2.9442,-3.0147,-3.0881,-3.1058,-3.1161,-3.1219,-3.1351,-3.1409,-3.1467,-3.1482,-3.1482,-3.1467,-3.1482,-3.1754,-3.2287,-3.2841,-3.3475,-3.4217,-3.5449,-3.6473,-3.7369,-3.8136,-3.8852,-3.9501,-3.9625,-3.9781,-3.9849,-3.9901,-3.9935,-4.007,-4.007,-4.007,-4.007,-4.007,-3.9986,-3.9901,-3.4278,-3.4278,-3.4346,-3.4414,-3.4414,-3.4414,-3.4414,-3.4414,-3.4414,-3.4414,-3.4414,-3.4414,-3.4414,-3.4414,-3.4414,-3.4414,-3.4414,-3.4414,-3.4414,-3.4414,-3.4414,-3.4414,-3.4414,-3.4481,-3.4563,-3.4631,-3.4683,-3.4735,-3.4868,-3.4802,-3.4735,-3.4868,-3.5001,-3.5082,-3.5082,-3.5213,-3.5359,-3.5294,-3.5294,-3.5294,-3.5359,-3.5106,-3.4767,-3.4498,-3.4014,-3.3376,-3.2542,-3.2119,-3.1716,-3.1135,-3.0528,-2.9979,-2.995,-2.9487,-2.9015,-2.9015,-2.8774,-2.8549,-2.8586,-2.8725,-2.8986,-2.906,-2.9035,-2.8893,-2.8176,-2.7997,-2.771,-2.7028,-2.7011,-2.7066,-2.7134,-2.7268,-2.7335,-2.7335,-2.7335,-2.7335,-2.7335,-2.7894,-2.8583,-2.9254,-2.9889,-3.0584,-3.1292,-3.1409,-3.1409,-3.1409,-3.1467,-3.1482,-3.1482,-3.1597,-3.1597,-3.1482,-3.1597,-3.1712,-3.1853,-3.2826,-3.3443,-3.3716,-3.5416,-3.6636,-3.7468,-3.8271,-3.9008,-3.9642,-3.9833,-3.9935,-3.9901,-3.9986,-4.0037,-4.007,-4.007,-4.007,-4.007,-4.007,-4.0087,-4.0037,-3.4414,-3.4414,-3.4414,-3.4414,-3.4414,-3.4414,-3.4414,-3.4414,-3.4414,-3.4414,-3.4414,-3.4414,-3.4414,-3.4414,-3.4414,-3.4414,-3.4414,-3.4414,-3.4414,-3.4481,-3.4481,-3.4481,-3.4481,-3.4549,-3.475,-3.4817,-3.4883,-3.4935,-3.5001,-3.5001,-3.4935,-3.5001,-3.5148,-3.5213,-3.5294,-3.5359,-3.5504,-3.5504,-3.5504,-3.5504,-3.5504,-3.522,-3.4756,-3.4337,-3.3888,-3.3378,-3.2456,-3.2123,-3.1984,-3.1261,-3.0667,-3.0141,-3.0102,-2.9646,-2.9183,-2.9183,-2.9019,-2.8799,-2.8534,-2.842,-2.8383,-2.8554,-2.8605,-2.8497,-2.8017,-2.7818,-2.7665,-2.7194,-2.7214,-2.7335,-2.7335,-2.7469,-2.7523,-2.7523,-2.7523,-2.759,-2.7776,-2.8403,-2.9093,-2.9827,-3.0524,-3.1087,-3.1582,-3.1655,-3.1655,-3.1655,-3.1597,-3.1597,-3.1597,-3.1727,-3.1784,-3.1655,-3.1784,-3.1784,-3.1655,-3.2625,-3.3235,-3.3495,-3.5071,-3.6285,-3.7198,-3.8068,-3.8824,-3.9462,-3.9885,-4.0037,-3.9986,-4.0087,-4.007,-4.007,-4.007,-4.007,-4.007,-4.007,-4.007,-4.007,-3.4414,-3.4414,-3.4414,-3.4414,-3.4414,-3.4414,-3.4414,-3.4414,-3.4414,-3.4414,-3.4414,-3.4414,-3.4414,-3.4414,-3.4414,-3.4414,-3.4414,-3.4414,-3.4414,-3.4563,-3.4698,-3.4698,-3.4698,-3.475,-3.4935,-3.5082,-3.5082,-3.4935,-3.5294,-3.5294,-3.4935,-3.5294,-3.5359,-3.5213,-3.5439,-3.5504,-3.5504,-3.5504,-3.5504,-3.5504,-3.5504,-3.5504,-3.5355,-3.4008,-3.3499,-3.332,-3.2018,-3.1482,-3.1409,-3.0718,-3.0524,-3.0389,-2.969,-2.9504,-2.9504,-2.9504,-2.9407,-2.917,-2.8481,-2.8287,-2.8451,-2.8917,-2.8821,-2.8497,-2.8169,-2.7958,-2.7721,-2.7385,-2.7335,-2.7335,-2.7469,-2.7523,-2.7523,-2.7523,-2.7523,-2.7789,-2.8417,-2.9093,-2.9827,-3.0703,-3.1409,-3.1841,-3.1996,-3.1996,-3.1996,-3.1996,-3.1898,-3.1799,-3.1799,-3.1799,-3.1841,-3.1996,-3.1996,-3.1996,-3.1996,-3.2398,-3.2949,-3.3582,-3.4202,-3.5215,-3.6522,-3.7343,-3.81,-3.8857,-3.9716,-4.007,-4.007,-4.007,-4.007,-4.007,-4.007,-4.007,-4.007,-4.007,-4.007,-4.007,-3.4414,-3.4414,-3.4414,-3.4414,-3.4414,-3.4414,-3.4414,-3.4414,-3.4414,-3.4414,-3.4414,-3.4414,-3.4414,-3.4414,-3.4481,-3.4631,-3.4631,-3.4616,-3.4735,-3.475,-3.4831,-3.5016,-3.4949,-3.4949,-3.5082,-3.5148,-3.5228,-3.5294,-3.5439,-3.5439,-3.5294,-3.5439,-3.5439,-3.5439,-3.5439,-3.5504,-3.5504,-3.5504,-3.5504,-3.5504,-3.5504,-3.522,-3.4741,-3.4337,-3.3604,-3.2766,-3.2362,-3.1928,-3.1467,-3.1278,-3.0896,-3.0389,-2.969,-2.9504,-2.9504,-2.9504,-2.9442,-2.9393,-2.9205,-2.9142,-2.9049,-2.8598,-2.8559,-2.8625,-2.9012,-2.866,-2.8239,-2.8131,-2.7776,-2.7469,-2.7456,-2.7908,-2.8222,-2.8222,-2.8583,-2.8953,-2.9142,-2.9766,-3.0329,-3.0777,-3.1409,-3.1841,-3.1996,-3.1996,-3.1996,-3.1996,-3.194,-3.194,-3.194,-3.2053,-3.2053,-3.1996,-3.2094,-3.2094,-3.1996,-3.2602,-3.2986,-3.3182,-3.4235,-3.523,-3.6171,-3.6804,-3.7469,-3.8229,-3.9005,-3.9326,-3.936,-3.9868,-4.007,-4.007,-4.007,-4.007,-4.007,-4.007,-4.007,-4.007,-3.4414,-3.4414,-3.4414,-3.4414,-3.4414,-3.4414,-3.4414,-3.4414,-3.4414,-3.4414,-3.4414,-3.4414,-3.4414,-3.4414,-3.4481,-3.4698,-3.4765,-3.4817,-3.4868,-3.4883,-3.4964,-3.5213,-3.5148,-3.5213,-3.5294,-3.5294,-3.5359,-3.5504,-3.5504,-3.5504,-3.5504,-3.5504,-3.5504,-3.5504,-3.5504,-3.5504,-3.5504,-3.5504,-3.5504,-3.5504,-3.5504,-3.525,-3.4861,-3.4577,-3.3978,-3.3215,-3.2706,-3.2258,-3.1884,-3.1556,-3.1219,-3.0837,-3.0389,-3.0269,-3.0269,-3.0269,-3.0269,-3.0208,-2.995,-2.9889,-2.9766,-2.9282,-2.903,-2.903,-2.938,-2.9205,-2.8903,-2.8903,-2.8583,-2.8274,-2.8274,-2.8648,-2.8903,-2.8903,-2.9268,-2.9566,-2.9889,-3.0269,-3.0703,-3.1204,-3.164,-3.194,-3.215,-3.2135,-3.215,-3.2094,-3.2094,-3.2094,-3.2094,-3.215,-3.2191,-3.2135,-3.2247,-3.2247,-3.2135,-3.2547,-3.2841,-3.2986,-3.402,-3.4872,-3.556,-3.6434,-3.7072,-3.753,-3.8306,-3.8798,-3.9168,-3.9578,-3.9934,-4.0188,-4.0138,-4.007,-4.007,-4.007,-4.007,-4.007,-3.4414,-3.4414,-3.4414,-3.4414,-3.4414,-3.4414,-3.4414,-3.4414,-3.4414,-3.4414,-3.4414,-3.4414,-3.4414,-3.4414,-3.4549,-3.4698,-3.4883,-3.4935,-3.4935,-3.5082,-3.5213,-3.5213,-3.5359,-3.5504,-3.5504,-3.5504,-3.5504,-3.5504,-3.5504,-3.5504,-3.5504,-3.5504,-3.5504,-3.5504,-3.5504,-3.5504,-3.5504,-3.5504,-3.5504,-3.5504,-3.5504,-3.5504,-3.5429,-3.4801,-3.4532,-3.4322,-3.3125,-3.2617,-3.2422,-3.1764,-3.1482,-3.1482,-3.1482,-3.1482,-3.1482,-3.1482,-3.1482,-3.1351,-3.0777,-3.0584,-3.0584,-3.0584,-3.0133,-2.969,-2.969,-2.9628,-2.9566,-2.9566,-2.9566,-2.9504,-2.9504,-2.9566,-2.9566,-2.9566,-2.9628,-2.9889,-3.0524,-3.0584,-3.0955,-3.1868,-3.1996,-3.215,-3.2398,-3.2398,-3.2342,-3.2247,-3.2247,-3.2247,-3.2247,-3.2247,-3.2287,-3.2398,-3.2398,-3.2398,-3.2398,-3.2398,-3.2586,-3.2933,-3.3614,-3.4235,-3.4754,-3.6038,-3.67,-3.6854,-3.7585,-3.841,-3.9204,-3.9197,-3.9591,-4.0203,-4.0154,-4.0121,-4.0138,-4.0138,-4.0121,-4.007,-3.4414,-3.4414,-3.4414,-3.4414,-3.4414,-3.4481,-3.4631,-3.4631,-3.4683,-3.4802,-3.4802,-3.4802,-3.4802,-3.4802,-3.4868,-3.5082,-3.5228,-3.5359,-3.5359,-3.5294,-3.5294,-3.5439,-3.5359,-3.5359,-3.5504,-3.5504,-3.5504,-3.5504,-3.5504,-3.5504,-3.5504,-3.5504,-3.5504,-3.5504,-3.5504,-3.5504,-3.5504,-3.5504,-3.5504,-3.5504,-3.5504,-3.5504,-3.5489,-3.534,-3.4951,-3.4442,-3.4158,-3.338,-3.2422,-3.1764,-3.1482,-3.1482,-3.1482,-3.1482,-3.1482,-3.1482,-3.1482,-3.1467,-3.1351,-3.1278,-3.1278,-3.1278,-3.1161,-3.1087,-3.1087,-3.0644,-3.0269,-3.0269,-2.9889,-2.9504,-2.9504,-2.995,-3.0269,-3.0269,-3.0718,-3.1087,-3.1278,-3.1409,-3.1655,-3.194,-3.2094,-3.2247,-3.2398,-3.2398,-3.2398,-3.2342,-3.2342,-3.2342,-3.2342,-3.2342,-3.2342,-3.2398,-3.2398,-3.2398,-3.2398,-3.2398,-3.2437,-3.2547,-3.3093,-3.3665,-3.4185,-3.4903,-3.5522,-3.6089,-3.6837,-3.7291,-3.7701,-3.8897,-3.943,-3.9634,-4.0197,-4.0337,-4.0255,-4.0255,-4.0188,-4.007,-3.4414,-3.4414,-3.4414,-3.4414,-3.4414,-3.4481,-3.4698,-3.4698,-3.4765,-3.4868,-3.4935,-3.4935,-3.4935,-3.4935,-3.5001,-3.5148,-3.5359,-3.5504,-3.5504,-3.5424,-3.5359,-3.5504,-3.5424,-3.5359,-3.5504,-3.5504,-3.5504,-3.5504,-3.5504,-3.5504,-3.5504,-3.5504,-3.5504,-3.5504,-3.5504,-3.5504,-3.5504,-3.5504,-3.5504,-3.5504,-3.5504,-3.5504,-3.5504,-3.5504,-3.528,-3.4921,-3.4592,-3.3829,-3.2931,-3.2587,-3.2467,-3.2422,-3.2093,-3.2003,-3.1943,-3.1571,-3.1482,-3.1482,-3.1482,-3.1482,-3.1482,-3.1482,-3.1482,-3.1482,-3.1482,-3.1219,-3.097,-3.097,-3.0703,-3.045,-3.045,-3.0718,-3.097,-3.097,-3.1278,-3.1539,-3.1597,-3.1727,-3.1898,-3.2094,-3.2135,-3.2247,-3.2398,-3.2398,-3.2398,-3.2398,-3.2398,-3.2398,-3.2398,-3.2398,-3.2398,-3.2398,-3.2398,-3.2398,-3.2398,-3.2398,-3.2398,-3.2398,-3.3124,-3.3646,-3.4036,-3.4706,-3.5333,-3.5922,-3.6297,-3.6761,-3.7367,-3.8083,-3.8819,-3.9487,-3.985,-4.0129,-4.0387,-4.0387,-4.0288,-4.0188,-3.4481,-3.4481,-3.4481,-3.4481,-3.4481,-3.4549,-3.4765,-3.4765,-3.4831,-3.5001,-3.5001,-3.5001,-3.5001,-3.5001,-3.5082,-3.5228,-3.5424,-3.5504,-3.5504,-3.5504,-3.5504,-3.5504,-3.5504,-3.5504,-3.5504,-3.5504,-3.5504,-3.5504,-3.5504,-3.5504,-3.5504,-3.5504,-3.5504,-3.5504,-3.5619,-3.5619,-3.5504,-3.5619,-3.5619,-3.5504,-3.5504,-3.5504,-3.5504,-3.5504,-3.5504,-3.5429,-3.4861,-3.4218,-3.3649,-3.3529,-3.3499,-3.3395,-3.2856,-3.2677,-3.2572,-3.2018,-3.1735,-3.1646,-3.1646,-3.1556,-3.1482,-3.1482,-3.1482,-3.1482,-3.1482,-3.1482,-3.1482,-3.1482,-3.1482,-3.1482,-3.1482,-3.1482,-3.1482,-3.1482,-3.1482,-3.1597,-3.1784,-3.1841,-3.1955,-3.2191,-3.2247,-3.2302,-3.2398,-3.2492,-3.2492,-3.2398,-3.2492,-3.2492,-3.2382,-3.2398,-3.2398,-3.2398,-3.2398,-3.2398,-3.2398,-3.2492,-3.2547,-3.2547,-3.3366,-3.3866,-3.407,-3.4818,-3.5503,-3.6019,-3.6019,-3.6509,-3.7301,-3.7308,-3.8122,-3.9341,-3.9401,-3.9867,-4.0534,-4.0534,-4.0436,-4.0337,-3.4802,-3.475,-3.4698,-3.4802,-3.4802,-3.4868,-3.5082,-3.5148,-3.5228,-3.5359,-3.5439,-3.5439,-3.5439,-3.5439,-3.5439,-3.5439,-3.5504,-3.5504,-3.5504,-3.5504,-3.5504,-3.5504,-3.5504,-3.5504,-3.5504,-3.5504,-3.5504,-3.5504,-3.5504,-3.5504,-3.5504,-3.5504,-3.5504,-3.5504,-3.6022,-3.5958,-3.5504,-3.6085,-3.5973,-3.5504,-3.5504,-3.5504,-3.5504,-3.5504,-3.5504,-3.5489,-3.54,-3.4921,-3.4262,-3.3694,-3.3499,-3.3484,-3.338,-3.3365,-3.335,-3.326,-3.2826,-3.2377,-3.2377,-3.1958,-3.1482,-3.1482,-3.1482,-3.1482,-3.1482,-3.1482,-3.1482,-3.1482,-3.1482,-3.1482,-3.1482,-3.1482,-3.1482,-3.1482,-3.1482,-3.1597,-3.1784,-3.1898,-3.2053,-3.2191,-3.2287,-3.2398,-3.2398,-3.2841,-3.2895,-3.2437,-3.2841,-3.2895,-3.2437,-3.2398,-3.2398,-3.2398,-3.2398,-3.2398,-3.2398,-3.2841,-3.3093,-3.3093,-3.3764,-3.4118,-3.4186,-3.4464,-3.5195,-3.6182,-3.6062,-3.6157,-3.6508,-3.7198,-3.7991,-3.8801,-3.9411,-4.0087,-4.0648,-4.0534,-4.0485,-4.0485,-3.4868,-3.4868,-3.4802,-3.4868,-3.4935,-3.5001,-3.5148,-3.5213,-3.5294,-3.5439,-3.5504,-3.5504,-3.5504,-3.5504,-3.5504,-3.5504,-3.5504,-3.5504,-3.5504,-3.5504,-3.5504,-3.5504,-3.5504,-3.5504,-3.5504,-3.5504,-3.5504,-3.5504,-3.5861,-3.6022,-3.6022,-3.6022,-3.5846,-3.5504,-3.6148,-3.6258,-3.6022,-3.6662,-3.66,-3.6022,-3.6022,-3.5797,-3.5504,-3.5504,-3.5504,-3.5504,-3.5504,-3.531,-3.5011,-3.4711,-3.4622,-3.4547,-3.4158,-3.4038,-3.3978,-3.3604,-3.329,-3.3066,-3.3066,-3.2841,-3.2542,-3.2168,-3.2078,-3.1988,-3.1556,-3.1482,-3.1482,-3.1482,-3.1482,-3.1482,-3.1482,-3.1482,-3.1539,-3.167,-3.167,-3.1769,-3.1996,-3.2094,-3.2135,-3.2302,-3.2342,-3.2547,-3.2841,-3.2788,-3.2895,-3.3266,-3.3251,-3.3251,-3.3319,-3.3002,-3.2841,-3.2841,-3.2547,-3.2398,-3.2398,-3.2933,-3.3182,-3.3198,-3.3986,-3.435,-3.4399,-3.4675,-3.5165,-3.5756,-3.5993,-3.6165,-3.6268,-3.668,-3.7284,-3.8043,-3.8784,-3.9772,-4.0793,-4.0745,-4.068,-4.0583]},{"header":{"parameterUnit":"m.s-1","parameterCategory":1,"la1":30.6,"la2":28.766,"lo1":-90.7593,"lo2":-88.6598,"dx":0.0162,"dy":0.0183,"nx":116,"ny":114,"refTime":"2022-12-07T18:00:00:Z","depth":0,"parameterNumber":3,"parameterNumberName":"V-component_of_WINDS"},"data":[0.0,0.0,0.0,0.0,0.0,0.0,0.0,0.0,0.0,0.0,0.0,0.0,0.0,0.0,0.0,0.0,0.0,0.0,0.0,0.0,0.0,0.0,0.0,0.0,0.0,0.0,0.0,0.0,0.0,0.0,0.0,0.0,0.0,0.0,0.0,0.0,0.0,0.0,0.0,0.0,0.0,0.0,0.0,0.0,0.0,0.0,0.0,0.0,0.0,0.0,0.0,0.0,0.0,0.0,0.0,0.0,0.0,0.0,0.0,0.0,0.0,0.0,0.0,0.0,0.0,0.0,0.0,0.0,0.0,0.0,0.0,0.0,0.0,0.0,0.0,0.0,0.0,0.0,0.0,0.0,0.0,0.0,0.0,0.0,0.0,0.0,0.0,0.0,0.0,0.0,0.0,0.0,0.0,0.0,0.0,0.0,0.0,0.0,0.0,0.0,0.0,0.0,0.0,0.0,0.0,0.0,0.0,0.0,0.0,0.0,0.0,0.0,0.0,0.0,0.0,0.0,0.0,0.0,0.0,0.0,0.0,0.0,0.0,0.0,0.0,0.0,0.0,0.0,0.0,0.0,0.0,0.0,0.0,0.0,0.0,0.0,0.0,0.0,0.0,0.0,0.0,0.0,0.0,0.0,0.0,0.0,0.0,0.0,0.0,0.0,0.0,0.0,0.0,0.0,0.0,0.0,0.0,0.0,0.0,0.0,0.0,0.0,0.0,0.0,0.0,0.0,0.0,0.0,0.0,0.0,0.0,0.0,0.0,0.0,0.0,0.0,0.0,0.0,0.0,0.0,0.0,0.0,0.0,0.0,0.0,0.0,0.0,0.0,0.0,0.0,0.0,0.0,0.0,0.0,0.0,0.0,0.0,0.0,0.0,0.0,0.0,0.0,0.0,0.0,0.0,0.0,0.0,0.0,0.0,0.0,0.0,0.0,0.0,0.0,0.0,0.0,0.0,0.0,0.0,0.0,0.0,0.0,0.0,0.0,0.0,0.0,0.0,0.0,0.0,0.0,0.0,0.0,0.0,0.0,0.0,0.0,0.0,0.0,0.0,0.0,0.0,0.0,0.0,0.0,0.0,0.0,0.0,0.0,0.0,0.0,0.0,0.0,0.0,0.0,0.0,0.0,0.0,0.0,0.0,0.0,0.0,0.0,0.0,0.0,0.0,0.0,0.0,0.0,0.0,0.0,0.0,0.0,0.0,0.0,0.0,0.0,0.0,0.0,0.0,0.0,0.0,0.0,0.0,0.0,0.0,0.0,0.0,0.0,0.0,0.0,0.0,0.0,0.0,0.0,0.0,0.0,0.0,0.0,0.0,0.0,0.0,0.0,0.0,0.0,0.0,0.0,0.0,0.0,0.0,0.0,0.0,0.0,0.0,0.0,0.0,0.0,0.0,0.0,0.0,0.0,0.0,0.0,0.0,0.0,0.0,0.0,0.0,0.0,0.0,0.0,0.0,0.0,0.0,0.0,0.0,0.0,0.0,0.0,0.0,0.0,0.0,0.0,0.0,0.0,0.0,0.0,0.0,0.0,0.0,0.0,0.0,0.0,0.0,0.0,0.0,0.0,0.0,0.0,0.0,0.0,0.0,0.0,0.0,0.0,0.0,0.0,0.0,0.0,0.0,0.0,0.0,0.0,0.0,0.0,0.0,0.0,0.0,0.0,0.0,0.0,0.0,0.0,0.0,0.0,0.0,0.0,0.0,0.0,0.0,0.0,0.0,0.0,0.0,0.0,0.0,0.0,0.0,0.0,0.0,0.0,0.0,0.0,0.0,0.0,0.0,0.0,0.0,0.0,0.0,0.0,0.0,0.0,0.0,0.0,0.0,0.0,0.0,0.0,0.0,0.0,0.0,0.0,0.0,0.0,0.0,0.0,0.0,0.0,0.0,0.0,0.0,0.0,0.0,0.0,0.0,0.0,0.0,0.0,0.0,0.0,0.0,0.0,0.0,0.0,0.0,0.0,0.0,0.0,0.0,0.0,0.0,0.0,0.0,0.0,0.0,0.0,0.0,0.0,0.0,0.0,0.0,0.0,0.0,0.0,0.0,0.0,0.0,0.0,0.0,0.0,0.0,0.0,0.0,0.0,0.0,0.0,0.0,0.0,0.0,0.0,0.0,0.0,0.0,0.0,0.0,0.0,0.0,0.0,0.0,0.0,0.0,0.0,0.0,0.0,0.0,0.0,0.0,0.0,0.0,0.0,0.0,0.0,0.0,0.0,0.0,0.0,0.0,0.0,0.0,0.0,0.0,0.0,0.0,0.0,0.0,0.0,0.0,0.0,0.0,0.0,0.0,0.0,0.0,0.0,0.0,0.0,0.0,0.0,0.0,0.0,0.0,0.0,0.0,0.0,0.0,0.0,0.0,0.0,0.0,0.0,0.0,0.0,0.0,0.0,0.0,0.0,0.0,0.0,0.0,0.0,0.0,0.0,0.0,0.0,0.0,0.0,0.0,0.0,0.0,0.0,0.0,0.0,0.0,0.0,0.0,0.0,0.0,0.0,0.0,0.0,0.0,0.0,0.0,0.0,0.0,0.0,0.0,0.0,0.0,0.0,0.0,0.0,0.0,0.0,0.0,0.0,0.0,0.0,0.0,0.0,0.0,0.0,0.0,0.0,0.0,0.0,0.0,0.0,0.0,0.0,0.0,0.0,0.0,0.0,0.0,0.0,0.0,0.0,0.0,0.0,0.0,0.0,0.0,0.0,0.0,0.0,0.0,0.0,0.0,0.0,0.0,0.0,0.0,0.0,0.0,0.0,0.0,0.0,0.0,0.0,0.0,0.0,0.0,0.0,0.0,0.0,0.0,0.0,0.0,0.0,0.0,0.0,0.0,0.0,0.0,0.0,0.0,0.0,0.0,0.0,0.0,0.0,0.0,0.0,0.0,0.0,0.0,0.0,0.0,0.0,0.0,0.0,0.0,0.0,0.0,0.0,0.0,0.0,0.0,0.0,0.0,0.0,0.0,0.0,0.0,0.0,0.0,0.0,0.0,0.0,0.0,0.0,0.0,0.0,0.0,0.0,0.0,0.0,0.0,0.0,0.0,0.0,0.0,0.0,0.0,0.0,0.0,0.0,0.0,0.0,0.0,0.0,0.0,0.0,0.0,0.0,0.0,0.0,0.0,0.0,0.0,0.0,0.0,0.0,0.0,0.0,0.0,0.0,0.0,0.0,0.0,0.0,0.0,0.0,0.0,0.0,0.0,0.0,0.0,0.0,0.0,0.0,0.0,0.0,0.0,0.0,0.0,0.0,0.0,0.0,0.0,0.0,0.0,0.0,0.0,0.0,0.0,0.0,0.0,0.0,0.0,0.0,0.0,0.0,0.0,0.0,0.0,0.0,0.0,0.0,0.0,0.0,0.0,0.0,0.0,0.0,0.0,0.0,0.0,0.0,0.0,0.0,0.0,0.0,0.0,0.0,0.0,0.0,0.0,0.0,0.0,0.0,0.0,0.0,0.0,0.0,0.0,0.0,0.0,0.0,0.0,0.0,0.0,0.0,0.0,0.0,0.0,0.0,0.0,0.0,0.0,0.0,0.0,0.0,0.0,0.0,0.0,0.0,0.0,0.0,0.0,0.0,0.0,0.0,0.0,0.0,0.0,0.0,0.0,0.0,0.0,0.0,0.0,0.0,0.0,0.0,0.0,0.0,0.0,0.0,0.0,0.0,0.0,0.0,0.0,0.0,0.0,0.0,0.0,0.0,0.0,0.0,0.0,0.0,0.0,0.0,0.0,0.0,0.0,0.0,0.0,0.0,0.0,0.0,0.0,0.0,0.0,0.0,0.0,0.0,0.0,0.0,0.0,0.0,0.0,0.0,0.0,0.0,0.0,0.0,0.0,0.0,0.0,0.0,0.0,0.0,0.0,0.0,0.0,0.0,0.0,0.0,0.0,0.0,0.0,0.0,0.0,0.0,0.0,0.0,0.0,0.0,0.0,0.0,0.0,0.0,0.0,0.0,0.0,0.0,0.0,0.0,0.0,0.0,0.0,0.0,0.0,0.0,0.0,0.0,0.0,0.0,0.0,0.0,0.0,0.0,0.0,0.0,0.0,0.0,0.0,0.0,0.0,0.0,0.0,0.0,0.0,0.0,0.0,0.0,0.0,0.0,0.0,0.0,0.0,0.0,0.0,0.0,0.0,0.0,0.0,0.0,0.0,0.0,0.0,0.0,0.0,0.0,0.0,0.0,0.0,0.0,0.0,0.0,0.0,0.0,0.0,0.0,0.0,0.0,0.0,0.0,0.0,0.0,0.0,0.0,0.0,0.0,0.0,0.0,0.0,0.0,0.0,0.0,0.0,0.0,0.0,0.0,0.0,0.0,0.0,0.0,0.0,0.0,0.0,0.0,0.0,0.0,0.0,0.0,0.0,0.0,0.0,0.0,0.0,0.0,0.0,0.0,0.0,0.0,0.0,0.0,0.0,0.0,0.0,0.0,0.0,0.0,0.0,0.0,0.0,0.0,0.0,0.0,0.0,0.0,0.0,0.0,0.0,0.0,0.0,0.0,0.0,0.0,0.0,0.0,0.0,0.0,0.0,0.0,0.0,0.0,0.0,0.0,0.0,0.0,0.0,0.0,0.0,0.0,0.0,0.0,0.0,0.0,0.0,0.0,0.0,0.0,0.0,0.0,0.0,0.0,0.0,0.0,0.0,0.0,0.0,0.0,0.0,0.0,0.0,0.0,0.0,0.0,0.0,0.0,0.0,0.0,0.0,0.0,0.0,0.0,0.0,0.0,0.0,0.0,0.0,0.0,0.0,0.0,0.0,0.0,0.0,0.0,0.0,0.0,0.0,0.0,0.0,0.0,0.0,0.0,0.0,0.0,0.0,0.0,0.0,0.0,0.0,0.0,0.0,0.0,0.0,0.0,0.0,0.0,0.0,0.0,0.0,0.0,0.0,0.0,0.0,0.0,0.0,0.0,0.0,0.0,0.0,0.0,0.0,0.0,0.0,0.0,0.0,0.0,0.0,0.0,0.0,0.0,0.0,0.0,0.0,0.0,0.0,0.0,0.0,0.0,0.0,0.0,0.0,0.0,0.0,0.0,0.0,0.0,0.0,0.0,0.0,0.0,0.0,0.0,0.0,0.0,0.0,0.0,0.0,0.0,0.0,0.0,0.0,0.0,0.0,0.0,0.0,0.0,0.0,0.0,0.0,0.0,0.0,0.0,0.0,0.0,0.0,0.0,0.0,0.0,0.0,0.0,0.0,0.0,0.0,0.0,0.0,0.0,0.0,0.0,0.0,0.0,0.0,0.0,0.0,0.0,0.0,0.0,0.0,0.0,0.0,0.0,0.0,0.0,0.0,0.0,0.0,0.0,0.0,0.0,0.0,0.0,0.0,0.0,0.0,0.0,0.0,0.0,0.0,0.0,0.0,0.0,0.0,0.0,0.0,0.0,0.0,0.0,0.0,0.0,0.0,0.0,0.0,0.0,0.0,0.0,0.0,0.0,0.0,0.0,0.0,0.0,0.0,0.0,0.0,0.0,0.0,0.0,0.0,0.0,0.0,0.0,0.0,0.0,0.0,0.0,0.0,0.0,0.0,0.0,0.0,0.0,0.0,0.0,0.0,0.0,0.0,0.0,0.0,0.0,0.0,0.0,0.0,0.0,0.0,0.0,0.0,0.0,0.0,0.0,0.0,0.0,0.0,0.0,0.0,0.0,0.0,0.0,0.0,0.0,0.0,0.0,0.0,0.0,0.0,0.0,0.0,0.0,0.0,0.0,0.0,0.0,0.0,0.0,0.0,0.0,0.0,0.0,0.0,0.0,0.0,0.0,0.0,0.0,0.0,0.0,0.0,0.0,0.0,0.0,0.0,0.0,0.0,0.0,0.0,0.0,0.0,0.0,0.0,0.0,0.0,0.0,0.0,0.0,0.0,0.0,0.0,0.0,0.0,0.0,0.0,0.0,0.0,0.0,0.0,0.0,0.0,0.0,0.0,0.0,0.0,0.0,0.0,0.0,0.0,0.0,0.0,0.0,0.0,0.0,0.0,0.0,0.0,0.0,0.0,0.0,0.0,0.0,0.0,0.0,0.0,0.0,0.0,0.0,0.0,0.0,0.0,0.0,0.0,0.0,0.0,0.0,1.6068,1.3676,0.0,0.0,0.0,0.0,0.0,0.0,0.0,0.0,0.0,0.0,0.0,0.0,0.0,0.0,0.0,0.0,0.0,0.0,0.0,0.0,0.0,0.0,0.0,0.88,0.8808,0.8804,0.8411,0.0,0.0,0.0,0.0,0.0,0.0,0.0,0.0,0.0,0.8418,0.881,0.9684,1.0764,1.2014,1.1489,1.0822,1.0057,0.0,0.0,0.0,0.0,0.0,0.0,0.0,0.0,0.0,0.0,0.0,0.0,0.0,0.0,0.0,0.0,0.0,0.0,0.0,0.0,0.0,0.0,0.0,0.0,0.0,0.0,0.0,0.0,0.0,0.0,0.0,0.0,0.0,0.0,0.0,0.0,0.0,0.0,0.0,0.0,0.0,0.0,0.0,0.0,0.0,0.0,0.0,0.0,0.0,0.0,0.0,0.0,0.0,0.0,0.0,0.0,0.0,0.0,0.0,0.0,0.0,0.0,0.0,0.0,0.0,0.0,0.0,0.0,0.0,0.0,1.864,1.6637,0.0,0.0,0.0,0.0,0.0,0.0,0.0,0.0,0.0,0.0,0.0,0.0,0.0,0.0,0.0,0.0,0.0,0.0,0.0,0.0,0.0,0.9361,1.023,1.0331,1.0373,1.0517,0.9744,0.9276,0.9325,0.8524,0.0,0.0,0.0,0.0,0.7837,0.8819,0.9744,1.0556,1.1855,1.3224,1.4659,1.5642,1.5345,1.3995,1.3397,0.0,0.0,0.0,0.0,0.0,0.0,0.0,0.0,0.0,0.0,0.0,0.0,0.0,0.0,0.0,0.0,0.0,0.0,0.0,0.0,0.0,0.0,0.0,0.0,0.0,0.0,0.0,0.0,0.0,0.0,0.0,0.0,0.0,0.0,0.0,0.0,0.0,0.0,0.0,0.0,0.0,0.0,0.0,0.0,0.0,0.0,0.0,0.0,0.0,0.0,0.0,0.0,0.0,0.0,0.0,0.0,0.0,0.0,0.0,0.0,0.0,0.0,0.0,2.2365,2.2728,2.2655,2.2838,2.2911,2.281,2.1469,2.0221,1.9063,1.8128,0.0,0.0,0.0,0.0,0.0,0.0,0.0,0.0,0.0,0.0,0.0,0.0,0.0,0.0,0.0,0.0,0.0,0.0,0.0,1.0245,1.1042,1.1182,1.1518,1.2202,1.1522,1.106,1.106,1.0252,0.0,0.0,0.0,0.9448,0.8742,1.0279,1.1492,1.2352,1.5391,1.6984,1.7241,1.8869,1.9519,1.9174,1.6212,1.441,1.3599,0.0,0.0,0.0,0.0,0.0,0.0,0.0,0.0,0.0,0.0,0.0,0.0,0.0,0.0,0.0,0.0,0.0,0.0,0.0,0.0,0.0,0.0,0.0,0.0,0.0,0.0,0.0,0.0,0.0,0.0,0.0,0.0,0.0,0.0,0.0,0.0,0.0,0.0,0.0,0.0,0.0,1.2693,1.3559,0.0,0.0,0.0,0.0,0.0,0.0,0.0,0.0,0.0,0.0,0.0,0.0,0.0,2.1082,2.0964,2.2111,2.3009,2.3601,2.3734,2.4154,2.4831,2.5519,2.5468,2.4862,2.5316,0.0,2.0857,2.0721,0.0,0.0,0.0,0.0,0.0,0.0,0.0,0.0,0.0,0.0,0.0,0.0,0.0,0.0,0.0,0.0,0.0,0.0,0.0,0.0,0.0,1.2202,1.2755,1.2607,1.2737,1.2618,1.2161,1.1776,0.0,0.0,1.1368,1.1391,1.1049,1.2195,1.3695,1.5515,1.8414,1.9838,1.985,2.1119,2.1705,2.1636,2.0135,1.823,1.6086,1.5211,0.0,0.0,0.0,0.0,0.0,0.0,0.0,0.0,0.0,0.0,0.0,0.0,0.0,0.0,0.0,0.0,0.0,0.0,0.0,0.0,0.0,0.0,0.0,0.0,0.0,0.0,0.0,0.0,0.0,0.0,0.0,0.0,0.0,0.0,0.0,0.0,0.0,0.0,0.0,1.3643,1.4653,1.5974,1.6502,1.7084,0.0,0.0,0.0,0.0,0.0,0.0,0.0,0.0,0.0,2.1171,2.2433,2.3289,2.3683,2.459,2.5415,2.6147,2.6145,2.6327,2.6669,2.6986,2.6936,2.663,2.6988,2.6263,2.4726,2.3189,2.1922,2.0938,0.0,0.0,0.0,0.0,2.0211,2.0086,0.0,0.0,0.0,0.0,0.0,0.0,0.0,0.0,0.0,0.0,0.0,0.0,1.223,1.3632,1.4372,1.3942,1.4319,1.431,1.3719,1.3258,1.3104,1.3335,1.3123,1.3104,1.334,1.4561,1.6304,1.8581,2.0935,2.2067,2.2058,2.2949,2.3391,2.3391,2.3419,2.1702,1.8693,1.7599,1.6298,1.4806,0.0,0.0,0.0,0.0,0.0,0.0,0.0,0.0,0.0,0.0,0.0,0.0,0.0,0.0,0.0,0.0,0.0,0.0,0.0,0.0,0.0,0.0,0.0,0.0,0.0,0.0,0.0,0.0,0.0,0.0,0.0,0.0,0.0,0.0,0.0,0.0,0.0,1.5617,1.6898,1.8598,1.9335,2.0016,0.0,0.0,0.0,0.0,0.0,0.0,2.2003,2.2455,2.297,2.3539,2.4635,2.5486,2.6032,2.6704,2.7306,2.783,2.78,2.7808,2.7812,2.7961,2.7929,2.7745,2.7931,2.7918,2.751,2.5254,2.3852,2.3112,2.2724,2.2343,2.2029,2.2263,2.2306,2.2324,0.0,0.0,0.0,0.0,0.0,0.0,0.0,0.0,0.0,0.0,0.0,1.3141,1.4731,1.5735,1.6599,1.738,1.6779,1.6349,1.6311,1.4766,1.4209,1.5036,1.4286,1.4234,1.5053,1.7472,1.9464,2.0925,2.2783,2.3622,2.3518,2.4522,2.4981,2.4992,2.5109,2.3774,2.1297,1.9598,1.8384,1.7379,1.4883,0.0,0.0,0.0,0.0,0.0,0.0,0.0,0.0,0.0,0.0,0.0,0.0,0.0,0.0,0.0,0.0,0.0,0.0,0.0,0.0,0.0,0.0,0.0,0.0,0.0,0.0,0.0,0.0,0.0,0.0,0.0,0.0,0.0,0.0,0.0,0.0,0.0,0.0,2.131,2.154,0.0,0.0,0.0,0.0,2.2763,2.2763,2.2809,2.2921,2.4507,2.5396,2.5369,2.7084,2.7926,2.7785,2.7875,2.7913,2.789,2.783,2.78,2.7838,2.8591,2.8509,2.7838,2.8605,2.8459,2.7637,2.6663,2.6142,2.5906,2.4998,2.4086,2.3401,2.4304,2.4166,2.3765,0.0,0.0,0.0,1.0096,1.0096,1.0096,1.0096,1.0531,1.0971,1.1263,1.3001,1.4641,1.5811,1.7687,1.8981,1.9335,1.9573,1.9254,1.8184,1.7542,1.7074,1.6811,1.6503,1.6957,1.8251,2.0183,2.1688,2.2704,2.4435,2.5251,2.5234,2.6105,2.6531,2.6493,2.6104,2.5455,2.449,2.2361,2.0974,2.0025,1.7462,1.5946,0.0,0.0,0.0,0.0,0.0,0.0,0.0,0.0,0.0,0.0,0.0,0.0,0.0,0.0,0.0,0.0,0.0,0.0,0.0,0.0,0.0,0.0,0.0,0.0,0.0,0.0,0.0,0.0,0.0,0.0,0.0,0.0,0.0,0.0,0.0,0.0,0.0,2.3105,2.33,0.0,2.4483,2.4635,2.4908,2.5425,2.5508,2.5769,2.6314,2.6937,2.721,2.711,2.7741,2.8255,2.867,2.8702,2.8991,2.9506,2.9475,2.9475,2.9483,2.9728,2.9678,2.9428,2.9711,2.9634,2.9245,2.8409,2.772,2.7127,2.6803,2.6472,2.6203,2.6529,2.6479,2.6339,0.0,0.0,0.0,1.0096,1.0096,1.0096,1.0096,1.0785,1.1511,1.2096,1.4392,1.6406,1.756,1.9719,2.1111,2.1139,2.1639,2.1466,2.0358,2.0004,1.9715,1.9427,1.9377,1.9916,2.1123,2.2243,2.3294,2.4302,2.5473,2.6151,2.6387,2.6962,2.7223,2.7185,2.6531,2.6237,2.6117,2.4328,2.3148,2.2257,1.998,1.8415,1.7291,0.0,0.0,0.0,0.0,0.0,0.0,0.0,0.0,0.0,0.0,0.0,0.0,0.0,0.0,0.0,0.0,0.0,0.0,0.0,0.0,0.0,0.0,0.0,0.0,0.0,0.0,0.0,0.0,0.0,0.0,0.0,0.0,0.0,0.0,2.1811,2.3065,2.4466,2.493,2.5329,2.5874,2.6266,2.6735,2.7323,2.7418,2.7671,2.8209,2.8501,2.8598,2.8435,2.9016,2.9535,2.9967,3.0256,3.066,3.1237,3.1237,3.1237,3.1237,3.1193,3.1181,3.1188,3.1181,3.1142,3.103,3.0508,2.9926,2.9268,2.8141,2.7701,2.7701,2.7701,2.7701,2.7688,0.0,0.0,1.0096,1.0096,1.0096,1.0116,1.0135,1.0828,1.1962,1.371,1.6163,1.8374,2.0057,2.1803,2.2851,2.287,2.287,2.287,2.2831,2.2043,2.1947,2.2754,2.2699,2.2861,2.3386,2.3568,2.4321,2.5708,2.5884,2.6297,2.6935,2.7082,2.717,2.7133,2.6465,2.6143,2.61,2.5425,2.4743,2.397,2.2327,2.0688,1.9128,0.0,0.0,0.0,0.0,0.0,0.0,0.0,0.0,0.0,0.0,0.0,0.0,0.0,0.0,0.0,0.0,0.0,0.0,0.0,0.0,0.0,0.0,0.0,0.0,0.0,0.0,0.0,0.0,0.0,0.0,0.0,0.0,0.0,2.1778,2.3227,2.4589,2.5442,2.6376,2.6906,2.6851,2.7676,2.8242,2.8325,2.8342,2.8362,2.8418,2.922,2.9597,2.9414,3.1052,3.1882,3.1737,3.2506,3.2891,3.2891,3.2891,3.2891,3.291,3.291,3.2904,3.2897,3.2897,3.2856,3.2804,3.2804,3.2756,3.2367,2.9134,2.7854,2.7854,2.7835,2.7797,2.7752,1.0096,1.0096,1.0096,1.0096,1.0096,1.0307,1.0875,1.1692,1.2875,1.4609,1.702,1.9223,2.0957,2.2697,2.3985,2.4562,2.462,2.437,2.3783,2.3514,2.317,2.268,2.2988,2.3248,2.3405,2.4538,2.5312,2.5708,2.6916,2.7587,2.779,2.8443,2.876,2.8743,2.8033,2.737,2.6785,2.6105,2.5374,2.4614,2.3744,2.2794,2.1752,0.0,0.0,0.0,0.0,0.0,0.0,0.0,0.0,0.0,0.0,0.0,0.0,0.0,0.0,0.0,0.0,0.0,0.0,0.0,0.0,0.0,0.0,0.0,0.0,0.0,0.0,0.0,0.0,0.0,0.0,0.0,2.242,2.3514,2.3504,2.4954,2.6113,2.6403,2.7231,2.7785,2.7801,2.8044,2.8496,2.9184,2.924,2.976,3.0923,3.1215,3.1551,3.2037,3.2571,3.2753,3.2564,3.2891,3.3006,3.2891,3.2891,3.2897,3.2891,3.2891,3.2878,3.2837,3.2837,3.2828,3.2804,3.2804,3.2756,3.2596,3.1679,3.1317,3.124,3.0624,3.0013,2.947,1.0096,1.0096,1.0096,1.0096,1.0096,1.0364,1.1176,1.2041,1.334,1.5421,1.7584,1.9723,2.1831,2.3283,2.4409,2.5226,2.5303,2.5101,2.462,2.4543,2.4219,2.3512,2.3771,2.4083,2.4358,2.5241,2.6042,2.6712,2.7641,2.8292,2.8663,2.9165,2.9407,2.937,2.8576,2.7774,2.697,2.6296,2.5555,2.478,2.4541,2.3976,2.3226,2.2681,2.112,1.9197,1.9116,1.7679,1.5776,1.5407,0.0,0.0,0.0,0.0,0.0,0.0,0.0,0.0,0.0,0.0,0.0,0.0,0.0,0.0,0.0,0.0,0.0,0.0,0.0,0.0,0.0,0.0,0.0,0.0,2.3875,2.4859,2.5208,2.6095,2.6845,2.7257,2.8105,2.8656,2.8692,2.9396,3.0057,3.0601,3.0984,3.1594,3.253,3.2588,3.2766,3.3169,3.3582,3.372,3.3566,3.3984,3.4158,3.4077,3.4041,3.4024,3.4031,3.3961,3.3906,3.3858,3.3849,3.3819,3.3808,3.3808,3.3773,3.3681,0.0,0.0,0.0,0.0,3.1656,3.1221,1.0087,1.0087,1.0087,1.0087,1.0087,1.0388,1.1299,1.2085,1.3505,1.604,1.7903,1.9884,2.2246,2.3466,2.4399,2.5101,2.5245,2.5284,2.5274,2.5138,2.4955,2.4723,2.4692,2.5005,2.5689,2.5801,2.6581,2.8086,2.8197,2.8645,2.9407,2.9407,2.9407,2.937,2.8496,2.764,2.686,2.6184,2.5424,2.4682,2.4809,2.4499,2.3933,2.3921,2.2932,2.1562,2.1562,2.0467,1.8935,1.8156,0.0,0.0,0.0,0.0,0.0,0.0,0.0,0.0,0.0,0.0,0.0,0.0,0.0,0.0,0.0,0.0,0.0,0.0,0.0,0.0,0.0,0.0,0.0,0.0,2.5129,2.5956,2.6876,2.6992,2.729,2.8073,2.8958,2.9581,2.9677,3.1145,3.2137,3.2226,3.2945,3.3424,3.3522,3.3541,0.0,0.0,0.0,3.4703,3.4649,3.536,3.571,3.5693,3.5631,3.5609,3.5618,3.5483,3.5388,3.5311,3.5304,3.5277,3.5209,3.5209,3.5209,3.5057,3.3551,3.2921,3.2844,3.2844,3.2768,3.2691,1.0017,1.0022,1.0022,1.0022,1.0022,1.051,1.1977,1.2414,1.3462,1.5841,1.7775,1.9353,2.0506,2.2708,2.4168,2.4322,2.4928,2.5253,2.5149,2.4915,2.4749,2.4707,2.4599,2.4906,2.5689,2.634,2.7139,2.8086,2.8812,2.924,2.9407,2.9407,2.9407,2.937,2.8496,2.764,2.686,2.6079,2.5277,2.4549,2.4564,2.4651,2.4765,2.465,2.3998,2.3152,2.3078,2.1996,2.0546,2.0383,1.9386,1.805,1.6999,1.5795,0.0,0.0,0.0,0.0,0.0,0.0,0.0,0.0,0.0,0.0,0.0,0.0,0.0,0.0,0.0,0.0,0.0,0.0,0.0,2.6001,2.6386,2.7011,2.8586,2.8799,2.8874,2.9101,2.9865,3.0676,3.1432,3.1802,3.2315,3.3029,3.3211,3.3623,3.4326,3.4365,3.4668,3.5308,3.5538,3.5591,3.5469,3.573,3.5801,3.5693,3.5696,0.0,3.5679,3.5649,3.5543,3.538,3.5378,3.5311,3.5209,3.5209,3.5209,3.5171,3.4846,3.4331,3.3738,3.3738,3.3299,3.2691,0.9888,0.9919,0.9948,0.9948,0.9948,1.0369,1.1598,1.2237,1.3271,1.532,1.6789,1.8298,1.9958,2.1383,2.2697,2.3995,2.4763,2.5149,2.5,2.4804,2.466,2.4615,2.4923,2.5485,2.6284,2.7102,2.792,2.8756,2.9202,2.9407,2.9407,2.9407,2.9407,2.937,2.8496,2.764,2.686,2.6042,2.5243,2.45,2.45,2.4596,2.4749,2.4666,2.4437,2.4151,2.4107,2.3303,2.2262,2.2262,2.148,2.0276,1.9002,1.8044,1.7065,0.0,0.0,0.0,0.0,0.0,0.0,0.0,0.0,0.0,0.0,0.0,0.0,0.0,0.0,2.2402,2.3707,0.0,2.5698,2.7084,2.7644,2.8386,2.9757,3.0308,3.0568,3.0643,3.1009,3.1604,3.2506,3.3023,3.3483,3.3914,3.4342,3.4781,3.523,3.5249,3.5437,3.584,3.5876,3.5879,3.5798,3.587,3.5864,3.581,3.5763,3.5768,3.5806,3.5735,3.564,3.5546,3.5516,3.5463,3.5391,3.5326,3.527,3.5209,3.5209,3.4961,3.4598,3.4598,3.4331,3.3952,0.9787,0.9823,0.9869,0.9882,0.9882,1.0163,1.1056,1.1907,1.3028,1.4561,1.5711,1.7164,1.9211,1.9926,2.1229,2.3602,2.4422,2.4752,2.4655,2.4655,2.4596,2.45,2.5113,2.5931,2.6879,2.7548,2.8384,2.9407,2.9407,2.9407,2.9407,2.9407,2.9314,2.9109,2.8254,2.7436,2.6619,2.5819,2.5094,2.45,2.45,2.45,2.45,2.4497,2.4582,2.4666,2.4701,2.4282,2.3731,2.3731,2.3093,2.206,2.0708,1.9957,1.915,1.7156,1.5989,0.0,0.0,0.0,0.0,0.0,0.0,0.0,0.0,1.9914,2.1543,2.1695,2.2974,2.4312,2.5144,2.6015,2.6892,2.7842,2.8718,2.9648,3.0614,3.1476,3.2106,3.231,3.2231,3.248,3.3358,3.414,3.4645,3.482,3.5485,3.5873,3.5873,3.5873,3.5896,3.5903,3.5903,3.5907,3.5893,3.5893,3.5906,3.5898,3.5857,3.5843,3.5892,3.5794,3.5741,3.5704,3.5621,3.5601,3.5588,3.5483,3.5369,3.5239,3.5239,3.5223,3.5209,3.5209,3.5209,3.5193,0.9713,0.9721,0.9751,0.9808,0.9815,1.0122,1.0981,1.1798,1.2635,1.3467,1.5174,1.6394,1.6628,1.8725,2.0843,2.2622,2.3377,2.3765,2.3739,2.4229,2.4517,2.45,2.4592,2.5355,2.6879,2.699,2.7808,2.9407,2.9407,2.9407,2.9407,2.9407,2.8998,2.8197,2.7399,2.66,2.5782,2.4983,2.4574,2.45,2.45,2.45,2.45,2.45,2.4515,2.4547,2.4666,2.4626,2.4567,2.4561,2.3562,2.2267,2.2079,2.0464,1.8587,1.8317,1.7659,1.701,1.6926,1.7281,1.7708,1.79,1.9249,2.0546,0.0,2.1463,2.2458,2.3126,2.3978,2.4892,2.5816,2.6698,2.7595,2.8548,2.9421,3.03,3.1188,3.216,3.3082,3.3848,3.3422,3.34,3.4276,3.4447,3.4824,3.5613,3.5757,3.5803,3.5803,3.5803,3.584,3.5899,3.5899,3.5899,3.5893,3.5893,3.5896,3.5899,3.5882,3.5886,3.5908,3.5876,3.5856,3.5782,3.5646,3.5591,3.56,3.5588,3.5495,3.5378,3.5378,3.5311,3.5209,3.5209,3.5209,3.5193,0.9698,0.9698,0.9713,0.9736,0.9743,0.9876,1.0275,1.1027,1.1678,1.2026,1.3202,1.4388,1.5333,1.7738,1.9773,2.0974,2.1706,2.2494,2.3479,2.3665,2.3962,2.4481,2.4946,2.5522,2.6191,2.6674,2.7251,2.7957,2.7957,2.7957,2.7957,2.7957,2.7752,2.7381,2.6563,2.5931,2.541,2.4617,2.4266,2.4266,2.4266,2.4357,2.45,2.45,2.4184,2.381,2.4431,2.4666,0.0,2.4148,2.3543,2.283,2.1854,2.0802,1.9864,1.9394,1.9019,1.872,1.8559,1.9133,1.9731,1.9623,2.0889,2.2322,2.2918,2.3708,2.4564,2.5477,2.5928,2.6414,2.7288,2.774,2.8296,2.9285,3.0136,3.1004,3.1966,3.2905,3.3806,3.4669,3.4565,3.4638,3.52,3.5255,3.541,3.5779,3.5799,3.5799,3.5799,3.5799,3.5815,3.5845,3.5845,3.5846,3.5833,3.5833,3.585,3.5903,3.5903,3.5896,3.5893,3.5899,3.587,3.5859,3.5796,3.5719,3.5664,3.5706,3.5641,3.5519,3.5519,3.5483,3.5405,3.5254,3.5209,3.5193,0.9698,0.9698,0.9698,0.9698,0.9698,0.9721,0.9794,1.0458,1.099,1.1056,1.1834,1.2926,1.4382,1.6429,1.8023,1.8837,1.9986,2.1153,2.2361,2.2909,2.3481,2.4111,2.4927,2.5466,2.5708,2.6284,2.6693,2.6916,2.6916,2.6859,2.682,2.682,2.6652,2.6334,2.5762,2.5278,2.4844,2.4257,2.4019,2.4019,2.4019,2.4173,2.4375,2.4134,2.369,2.3243,2.399,2.4129,2.3899,2.3326,2.2999,2.26,2.1365,2.099,2.0877,2.0295,2.0295,2.0431,2.0166,2.0748,2.1433,2.142,2.2592,2.4006,2.4945,2.5666,2.6316,2.7056,2.7373,2.7711,2.8294,2.8595,2.9005,2.9729,3.071,3.1632,3.2357,3.3454,3.4418,3.504,3.5224,3.5406,3.5659,3.5747,3.5773,3.5791,3.5799,3.5799,3.5799,3.5799,3.5799,3.5799,3.5799,3.5799,3.5799,3.5799,3.583,3.5866,3.5866,3.5864,3.5864,3.5896,3.59,3.5903,3.5894,3.5837,3.5757,3.5825,3.5788,3.567,3.567,3.564,3.5585,3.5383,3.53,3.5254,0.9698,0.9698,0.9698,0.9698,0.9698,0.9721,0.9794,1.0434,1.0924,1.0993,1.1764,1.2627,1.3543,1.452,1.5399,1.6158,1.8392,1.9757,1.9814,2.1943,2.3203,2.324,2.4074,2.4908,2.5689,2.5726,2.6117,2.6916,2.6916,2.6801,2.6618,2.6618,2.6033,2.5074,2.5038,2.4581,2.3852,2.3834,2.3816,2.3816,2.3816,2.3939,2.4025,2.3254,2.296,2.305,2.3273,2.285,2.2189,2.2233,2.1732,2.1065,2.1009,2.099,2.099,2.0971,2.1553,2.2168,2.1888,2.2417,2.3178,2.3822,2.4707,2.5671,2.6619,2.6989,2.7167,2.7186,2.7824,2.8369,2.8388,2.9101,2.9664,2.9701,3.1054,3.2087,3.2106,3.3714,3.487,3.4906,3.5143,3.5325,3.5405,3.5593,3.5718,3.5791,3.5799,3.5799,3.5799,3.5799,3.5799,3.5799,3.5799,3.5799,3.5799,3.5799,3.5799,3.5799,3.5799,3.5799,3.5807,3.5866,3.5894,3.5899,3.5906,3.5898,3.5898,3.5974,3.5903,3.5781,3.5781,3.5702,3.5607,3.5596,3.5507,3.5378,0.9698,0.9698,0.9698,0.9698,0.9698,0.9706,0.9736,0.995,1.0105,1.0135,1.0896,0.0,0.0,0.0,0.0,0.0,1.5911,1.7298,1.9497,2.0373,2.1291,2.2367,2.3184,2.369,2.3824,2.4358,2.4706,2.4844,2.4844,2.4803,2.4738,2.4738,2.4551,2.4215,2.4215,2.3985,2.3598,2.3598,2.3598,2.3544,2.3024,2.2937,2.3028,2.2263,2.1369,2.0551,0.0,2.1226,2.19,2.1522,2.1221,2.0896,2.037,2.0577,2.1202,2.2223,2.2685,2.2889,2.3143,2.3416,2.3797,2.4472,2.4896,2.5594,2.7259,2.7675,2.794,2.8708,2.9063,2.927,2.927,2.9495,2.9701,2.9701,3.1053,3.2105,3.2105,3.3594,3.471,3.4711,3.487,3.4999,3.5064,3.5372,3.5574,3.5607,3.5607,3.5629,3.5728,3.5658,3.5629,3.5728,3.5728,3.5728,3.5728,3.5773,3.5799,3.5799,3.5799,3.5799,3.5799,3.5823,3.5838,3.5845,3.589,3.5903,3.5901,3.5975,3.5972,3.5932,3.5932,3.5919,3.5856,3.5825,3.5728,3.563,0.9698,0.9698,0.9698,0.9698,0.9698,0.0,0.0,0.0,0.0,0.0,0.0,0.0,0.0,0.0,0.0,0.0,0.0,1.5592,1.7708,1.8952,2.0066,2.1105,2.2182,2.2708,2.2589,2.3105,2.329,2.316,2.3084,2.3006,2.2962,2.3151,2.307,2.2754,2.302,2.2936,2.2553,2.2553,2.2851,2.3259,2.2194,2.206,2.2357,2.1041,1.9774,0.0,1.8489,1.9087,1.9982,2.0006,2.0204,2.034,1.9823,2.042,2.1618,2.3149,2.3561,2.3639,2.4117,2.4333,2.4605,2.5492,2.5837,2.6312,2.7592,2.7999,2.8197,2.8634,2.88,2.8948,2.9249,2.9286,2.938,2.9717,3.1111,3.2164,3.2183,3.3612,3.4645,3.4623,3.4727,3.483,3.4889,3.5165,3.5378,3.5457,3.5483,3.5538,3.5626,3.555,3.555,3.5626,3.5626,3.5626,3.5626,3.5979,3.6289,3.6599,3.6629,3.6667,3.6667,3.6714,3.6731,3.6731,3.6761,3.681,3.6824,3.6875,3.6891,3.6855,3.6581,3.6443,3.6381,3.6057,3.5903,3.5836,0.9698,0.9698,0.9698,0.0,0.0,0.0,0.0,0.0,0.0,0.0,0.0,0.0,0.0,0.0,0.0,0.0,0.0,0.0,1.4683,1.7615,0.0,1.9472,2.0975,2.181,2.1795,2.1869,2.1925,2.189,2.1743,2.157,2.1403,2.1959,2.1714,2.0842,2.1615,2.1527,2.0807,2.0807,2.161,2.2803,2.1276,2.1238,2.1804,1.9536,1.8217,1.7495,1.6922,1.6588,1.6625,1.7817,1.8749,1.9394,1.9487,2.0631,2.2219,2.3657,2.4173,2.4357,2.4795,2.5092,2.5579,2.6904,2.7434,2.7624,2.7702,2.7904,2.7922,2.7158,2.7169,2.7547,2.8391,2.8487,2.8749,2.9683,3.1164,3.2223,3.2279,3.3712,3.4727,3.4623,3.4687,3.479,3.4889,3.5001,3.5176,3.5364,3.5445,3.5483,3.5495,3.5483,3.5502,3.5553,3.5572,3.5591,3.563,3.6447,3.7237,3.7995,3.8117,3.8183,3.8194,3.8317,3.8373,3.8373,3.8377,3.8415,3.8474,3.8483,3.8486,3.8415,3.7653,3.7324,3.7184,3.6402,3.6129,3.6081,0.0,0.0,0.0,0.0,0.0,0.0,0.0,0.0,0.0,0.0,0.0,0.0,0.0,0.0,0.0,0.0,0.0,0.0,1.4571,1.5481,0.0,0.0,0.0,0.0,0.0,2.0241,2.0781,2.0571,2.1021,2.1247,2.1167,2.1175,2.1044,2.0807,2.1018,2.1,2.0807,2.0807,2.0719,2.0486,1.9486,1.8876,1.8457,1.7294,1.6426,1.5821,1.5717,1.5677,1.5829,1.6844,1.8078,1.9392,2.0583,2.1679,2.2684,2.3549,2.3819,2.4018,2.4699,2.4956,2.538,2.6971,2.6946,2.6772,2.751,2.7377,2.7062,2.701,2.7169,2.7377,2.7584,2.7622,2.7853,2.8593,3.0018,3.1248,3.1904,3.3268,3.4293,3.4561,3.4495,3.4476,3.4668,3.485,3.4982,3.5016,3.5187,3.533,3.5422,3.533,3.5599,3.6301,3.632,3.6628,3.7267,3.7564,3.7803,3.7995,3.8022,3.8054,3.8054,3.8092,3.8105,3.8105,3.8144,3.8219,3.8274,3.8325,3.8405,3.8482,3.8339,3.8268,3.8215,3.7967,3.7851,3.7851,0.0,0.0,0.0,0.0,0.0,0.0,0.0,0.0,0.0,0.0,0.0,0.0,0.0,0.0,0.0,0.0,0.0,0.0,0.0,1.3754,1.472,1.5982,0.0,0.0,0.0,1.854,1.8922,1.8778,1.9106,1.9255,1.9255,1.9319,1.9182,1.8884,1.9157,1.9082,1.8786,1.8786,1.8924,0.0,0.0,1.7221,1.6694,1.5624,1.4544,1.3658,1.4026,1.4624,1.5348,1.6238,1.783,1.9668,2.0932,2.189,2.2733,2.3755,2.4141,2.446,2.5536,2.5913,2.6315,2.761,2.7374,2.6886,2.7127,2.6696,2.6191,2.5948,2.6094,2.6363,2.676,2.677,2.71,2.8197,2.9306,3.0453,3.1644,3.2818,3.374,3.4279,3.4245,3.4269,3.4517,3.4988,3.532,3.5496,3.5551,3.5677,3.5879,3.6018,3.6419,3.7048,3.7083,3.7488,3.8369,3.8415,3.8639,3.9023,3.9046,3.9042,3.9061,3.91,3.9147,3.9147,3.9168,3.9243,3.9295,3.9399,3.9494,3.9574,3.9244,3.9136,3.9081,3.87,3.8547,3.8549,0.0,0.0,0.0,0.0,0.0,0.0,0.0,0.0,0.0,1.1574,1.1304,1.0896,1.0191,1.0024,0.0,0.0,0.0,0.0,0.0,0.0,1.3532,1.433,0.0,0.0,1.6427,1.6557,1.6613,1.6613,1.6588,1.662,1.673,1.7064,1.6919,1.642,1.6941,1.6747,1.6045,1.6045,1.6694,1.7607,1.6273,1.5676,1.543,0.0,1.2762,1.1698,1.2429,1.3763,1.5272,1.608,1.7912,1.9996,2.0817,2.169,2.2718,2.408,2.4676,2.5206,2.6645,2.7202,2.758,2.8261,2.7936,2.7255,2.6523,2.5927,2.5334,2.4644,2.4716,2.5129,2.5887,2.5947,2.6359,2.7881,2.869,2.9686,3.1273,3.2289,3.3173,3.3906,3.3972,3.4136,3.4554,3.5236,3.5866,3.6369,3.6366,3.6444,3.661,3.7014,3.7411,3.7756,3.7907,3.8345,3.9108,3.9146,3.9546,4.031,4.036,4.0392,4.0372,4.0519,4.0564,4.0564,4.0564,4.0596,4.068,4.0791,4.0902,4.0916,4.0227,3.9953,3.9897,3.9195,3.8924,3.8924,0.0,0.0,0.0,0.0,0.0,0.0,0.0,0.0,0.0,0.0,1.2845,1.1935,0.0,0.0,0.0,0.0,0.0,0.0,0.0,0.0,0.0,1.2604,0.0,0.0,1.3049,1.3754,1.4107,1.4107,1.4596,1.5178,1.5819,1.5767,1.598,1.6401,1.6511,1.6056,1.5202,1.5202,1.4623,1.3675,1.3412,1.2938,1.2372,1.209,0.0,0.0,1.2429,1.4114,1.6115,1.6852,1.8276,1.9864,2.0622,2.1905,2.3319,2.4247,2.4682,2.5229,2.6745,2.7277,2.7435,2.758,2.7154,2.6487,2.5683,2.5097,2.4662,2.4532,2.4716,2.494,2.5091,2.5208,2.5461,2.6085,2.7326,2.8741,3.016,3.1506,3.2757,3.388,3.3842,3.4091,3.4992,3.5243,3.58,3.6877,3.7441,3.7585,3.7183,3.7049,3.7314,3.8098,3.9015,3.9596,3.9728,3.9948,4.0157,4.031,4.031,4.0328,4.0328,4.0327,4.0345,4.0345,4.0345,4.043,4.053,4.0557,4.071,4.0914,4.0818,4.0823,4.0854,4.0717,4.0678,4.0662,0.0,0.0,0.0,0.0,0.0,0.0,0.0,1.5032,1.544,1.5889,1.5258,1.4274,1.3012,1.2121,1.1453,0.0,0.0,0.0,0.0,0.0,0.0,0.0,0.0,0.0,1.2195,1.2604,1.2826,1.2826,0.0,1.345,1.3837,1.3665,1.3743,1.4038,1.3965,1.3655,1.3233,1.3233,1.2793,1.2125,1.2125,1.1669,1.0983,0.0,0.0,0.0,1.2002,1.3897,1.6306,1.6677,1.8387,2.0502,2.1193,2.2236,2.3446,2.4746,2.5258,2.5769,2.7399,2.7933,2.7918,2.7508,2.6954,2.6307,2.5586,2.4616,2.3896,2.3977,2.378,2.3594,2.3594,2.3992,2.452,2.5117,2.6042,2.7306,2.9195,3.0327,3.1465,3.2885,3.335,3.3779,3.4366,3.522,3.6017,3.6782,3.7843,3.8384,3.8175,3.8372,3.8587,3.8863,3.9554,3.9914,3.9914,4.0176,4.031,4.031,4.031,4.031,4.031,4.031,4.031,4.031,4.031,4.0345,4.0408,4.0472,4.0604,4.0761,4.0933,4.1011,4.1057,4.1081,4.1108,4.1091,0.0,0.0,0.0,0.0,0.0,0.0,0.0,1.6045,1.6453,1.7244,1.7356,1.6576,1.4497,1.3346,1.2344,0.0,0.0,0.0,0.0,0.0,0.0,0.0,0.0,0.0,0.0,0.0,0.0,1.1694,1.1694,0.0,0.0,0.0,0.0,0.0,1.1718,1.1529,1.1335,1.1335,1.1229,0.0,0.0,1.072,1.0136,0.0,0.0,0.0,0.0,1.3623,1.6321,1.6498,1.8552,2.1139,2.1847,2.2576,2.3481,2.507,2.5754,2.6308,2.7777,2.8258,2.8135,2.7345,2.6681,2.6072,2.5409,2.4226,2.3353,2.3472,2.2903,2.24,2.24,2.3089,2.3871,2.4459,2.5103,2.6261,2.8382,2.9363,3.0448,3.1999,3.2904,3.3524,3.387,3.5195,3.6248,3.6737,3.8109,3.8947,3.9028,3.947,3.967,3.9483,3.9717,3.9807,3.9807,4.0017,4.0137,4.0137,4.0176,4.0196,4.0215,4.0272,4.031,4.031,4.031,4.0291,4.0306,4.0431,4.0516,4.063,4.0839,4.0967,4.1019,4.1066,4.1081,4.1091,0.0,0.0,0.0,0.0,0.0,0.0,0.0,1.652,1.7281,1.8079,1.8191,1.7838,1.6873,1.5388,1.3829,0.0,0.0,0.0,0.0,0.0,0.0,0.0,0.0,0.0,0.0,0.0,0.0,1.0024,1.0024,0.0,0.0,0.0,0.0,0.0,0.0,1.1303,1.0504,1.0504,0.0,0.0,0.0,0.0,0.0,0.0,0.0,0.0,0.0,1.3623,1.6409,1.7135,1.9034,2.123,2.2028,2.283,2.3654,2.4692,2.5546,2.638,2.7266,2.7501,2.7327,2.6512,2.5845,2.523,2.4561,2.3818,2.3353,2.3472,2.2903,2.24,2.24,2.3217,2.3838,2.3731,2.4978,2.6403,2.773,2.914,3.0593,3.2027,3.2904,3.3683,3.4456,3.5307,3.6273,3.7348,3.8561,3.9205,3.9107,3.9127,3.9272,3.9483,3.9508,3.9551,3.9551,3.9575,3.9556,3.9575,3.9807,3.9935,3.9954,4.0176,4.031,4.031,4.031,4.0291,4.0307,4.0377,4.0469,4.0604,4.0687,4.084,4.0994,4.1019,4.1057,4.1091,0.0,0.0,0.0,0.0,0.0,0.0,1.6168,1.6891,1.7578,1.8915,1.9082,1.8581,1.7244,1.652,1.5295,1.3161,0.0,0.0,0.0,0.0,0.0,0.0,0.0,0.0,0.0,0.0,1.0517,1.0528,1.0934,0.0,0.0,0.0,0.0,0.0,0.0,1.0482,0.968,0.968,0.0,0.0,0.0,0.0,0.0,0.0,0.0,0.0,0.0,0.0,1.5816,1.6631,1.8181,2.0007,2.1394,2.2371,2.3277,2.4532,2.5144,2.5587,2.6452,2.6693,2.6493,2.5679,2.5288,2.4853,2.3805,2.2972,2.2184,2.1437,2.0696,2.0183,2.0164,2.1393,2.2522,2.2932,2.4276,2.5812,2.7286,2.8653,3.005,3.1539,3.2748,3.3778,3.4534,3.5331,3.6435,3.7937,3.8486,3.8847,3.9101,3.9101,3.9073,3.9017,3.9183,3.9272,3.9272,3.9427,3.9502,3.9502,3.9623,3.9739,3.9914,4.0017,4.0157,4.031,4.031,4.0291,4.0309,4.0381,4.0427,4.0504,4.0642,4.0759,4.089,4.0974,4.1033,4.1111,0.0,0.0,0.0,0.0,0.0,1.3234,1.6279,1.6947,1.7615,1.9026,1.9434,1.8952,1.7281,1.7096,1.613,1.3709,1.2696,0.0,0.0,0.0,0.0,0.0,0.0,0.0,0.0,0.0,1.1105,1.1295,1.1792,1.1981,0.0,0.0,1.1419,1.0806,0.0,0.0,0.0,0.0,0.0,0.0,0.0,0.0,0.0,0.0,0.0,0.0,0.0,0.0,0.0,0.0,0.0,1.9164,2.0409,2.1515,2.2662,2.4129,2.4797,2.5149,2.5697,2.586,2.5715,2.5135,2.4664,2.4114,2.329,2.2204,2.1058,1.998,1.9117,1.8602,1.8665,1.9915,2.1309,2.2429,2.3693,2.5186,2.7028,2.8185,2.9477,3.1231,3.2464,3.3564,3.4528,3.5548,3.6771,3.8291,3.8382,3.8572,3.8979,3.8979,3.8979,3.8921,3.9045,3.9101,3.9101,3.9192,3.9272,3.9272,3.935,3.9477,3.967,3.9829,3.9996,4.0176,4.0273,4.0291,4.031,4.0381,4.0415,4.043,4.0593,4.0703,4.082,4.0898,4.1017,4.1108,0.0,0.0,0.0,0.0,0.0,0.0,1.5536,1.6594,1.7393,1.8209,1.9063,1.8952,1.7281,1.7096,1.613,1.3709,1.2696,0.0,0.0,0.0,0.0,0.0,0.0,0.0,0.0,0.0,1.1331,1.198,1.2059,1.1963,1.1716,1.1841,1.179,1.1541,0.0,0.0,0.0,0.0,0.0,0.0,0.0,0.0,0.0,0.0,0.0,0.0,0.0,0.0,0.0,0.0,0.0,0.0,0.0,2.0279,2.1899,2.3383,2.4538,2.526,2.5052,2.5009,2.5009,2.5009,2.385,2.2788,2.305,2.1711,2.0262,1.9718,1.8912,1.8354,1.8569,1.9317,2.0503,2.2323,2.3346,2.4707,2.6983,2.7825,2.9018,3.1228,3.2049,3.3002,3.4563,3.61,3.7384,3.8328,3.8382,3.8496,3.8707,3.8707,3.895,3.9477,3.9245,3.9101,3.9101,3.8851,3.8707,3.8707,3.8979,3.9101,3.9129,3.967,3.9914,3.9914,4.0176,4.0291,4.0307,4.0379,4.0432,4.0502,4.0492,4.0617,4.081,4.0791,4.0922,4.1108,0.0,0.0,0.0,0.0,0.0,0.0,0.0,1.5759,1.6576,1.7374,1.7727,1.7485,1.639,1.6279,1.5536,1.3671,1.2696,0.0,0.0,0.0,0.0,0.0,0.0,0.0,0.0,0.0,1.2782,1.3503,1.3951,1.4353,1.4768,1.4724,1.4116,1.3022,1.2767,1.179,0.0,0.0,0.0,0.0,0.0,0.0,1.0059,0.0,0.0,0.0,0.0,0.0,0.0,0.0,0.0,0.0,0.0,0.0,0.0,2.195,2.288,2.3669,2.4073,2.4176,2.4176,2.4176,2.3433,2.2585,2.2173,2.1203,1.9902,1.8185,1.7634,1.751,1.7611,1.8805,2.0332,2.2048,2.3594,2.5186,2.6914,2.824,2.9632,3.1302,3.3424,3.4939,3.5398,3.6902,3.7969,3.8303,3.8322,3.8419,3.8559,3.8559,3.8683,3.895,3.9045,3.9101,3.9101,3.9192,3.9137,3.8979,3.9045,3.9101,3.9101,3.9272,3.9532,3.9914,3.9996,4.0138,4.0291,4.0326,4.0379,4.0432,4.0482,4.0623,4.081,4.081,4.0922,4.1108,0.0,0.0,0.0,0.0,0.0,0.0,0.0,1.472,1.5629,1.613,1.6724,1.6687,1.5574,1.5444,1.4664,1.2734,1.2057,0.0,0.0,0.0,0.0,0.0,0.0,0.0,1.1323,1.2771,1.3835,1.4494,1.5213,1.5726,1.6081,1.6081,1.554,1.4533,1.3959,1.2944,0.0,0.0,0.0,0.0,0.0,0.0,1.0445,0.0,0.0,0.0,0.0,0.0,0.0,0.0,0.0,0.0,0.0,0.0,0.0,0.0,2.1516,2.2063,2.2771,2.2948,2.2946,2.2968,2.2386,2.1677,2.1243,2.0495,1.9344,1.7371,1.7196,1.7346,1.7157,1.8472,2.0193,2.1977,2.3431,2.4997,2.6914,2.8129,2.9582,3.1618,3.4215,3.5833,3.5833,3.7283,3.8225,3.8307,3.8307,3.8354,3.851,3.851,3.8559,3.8707,3.8851,3.9007,3.9101,3.9183,3.9183,3.9101,3.9007,3.895,3.895,3.9045,3.935,3.9762,3.987,4.0058,0.0,4.0326,4.0379,4.0449,4.0479,4.0602,4.077,4.0791,4.0901,4.107,0.0,0.0,0.0,0.0,0.0,0.0,0.0,1.3476,1.4516,1.4516,1.5815,1.6186,1.4683,1.4516,1.3569,1.1211,0.0,0.0,0.0,0.0,0.0,0.0,0.0,0.0,1.1965,1.3479,1.4598,1.5234,1.604,1.6361,1.6209,1.6412,1.6378,1.6077,1.4603,1.3852,0.0,0.0,0.0,0.0,0.9276,0.9767,0.0,0.0,0.0,0.0,0.0,0.0,0.0,0.0,0.0,0.0,0.0,0.0,0.0,0.0,0.0,0.0,0.0,2.1462,2.1514,2.1571,2.0952,2.0318,2.0367,1.9716,0.0,1.727,1.7472,1.7748,1.7254,1.8426,2.0113,2.2117,2.3074,2.441,2.689,2.7736,2.9232,3.2201,3.4539,3.5914,3.5968,3.7352,3.8225,3.8274,3.8307,3.8354,3.8478,3.851,3.8559,3.8658,3.8707,3.8822,3.9129,3.8881,3.8881,3.9129,3.8851,3.8738,3.8707,3.8979,3.9245,3.9508,3.9785,4.0059,4.0307,4.0362,4.0432,4.0482,4.0492,4.0574,4.0711,4.0771,4.089,4.1025,0.0,0.0,0.0,0.0,0.0,0.0,0.0,0.0,0.0,0.0,1.3123,1.3216,1.2826,1.2789,1.2298,0.0,0.0,0.0,0.0,0.0,0.0,0.0,0.0,0.0,1.2726,1.4186,1.5823,1.7603,1.7698,1.8308,1.9344,1.9394,1.8789,1.7645,1.6659,1.4969,0.0,0.0,0.0,0.0,1.0118,1.0603,0.0,0.0,0.0,0.0,1.4144,1.4268,0.0,0.0,0.0,0.0,0.0,0.0,0.0,0.0,1.8593,1.8695,1.9654,0.0,2.1495,2.1533,2.0916,2.03,0.0,1.9684,1.8832,1.7848,1.7793,1.806,1.8587,1.9502,2.0759,2.2565,2.4059,2.5393,2.6537,2.8805,3.1281,3.3847,3.5139,3.6069,3.6762,3.766,3.8225,3.8207,3.8207,3.8274,3.8354,3.8401,3.8446,3.8541,3.8658,3.8921,3.9401,3.935,3.935,3.9383,3.911,3.891,3.8707,3.8979,3.9245,3.9508,3.9785,4.0058,4.031,4.031,4.0364,4.0432,4.0413,4.0568,4.0771,4.0781,4.0928,4.1078,0.0,0.0,0.0,0.0,0.0,0.0,0.0,0.0,0.0,0.0,0.0,1.2065,1.1694,1.1657,0.0,0.0,0.0,0.0,0.0,0.0,0.0,0.0,0.0,1.2803,1.3433,1.5575,1.7203,1.8301,1.8905,1.9619,2.0394,2.0394,1.9792,1.8637,1.7196,1.5245,0.0,0.0,0.0,1.0399,1.0399,0.0,0.0,0.0,0.0,0.0,1.4216,1.4281,0.0,1.4293,1.4621,1.5078,0.0,0.0,0.0,0.0,1.8027,1.8102,1.9091,1.9873,2.0409,2.048,2.0117,1.9739,1.9739,1.9703,1.9413,1.8632,1.9031,1.9574,1.9678,2.0661,2.1917,2.3327,2.4559,2.6007,2.7858,3.0446,3.278,3.4491,3.5683,3.6558,3.6989,3.7736,3.8192,3.8192,3.8192,3.8225,3.8307,3.8368,3.8415,3.851,3.864,3.895,3.9483,3.9376,3.9452,3.9693,3.9298,3.9101,3.9073,3.9101,3.9324,3.9693,3.9848,4.0038,4.031,4.0291,4.0308,4.036,4.0457,4.0577,4.0729,4.0857,4.0968,4.1061,0.0,0.0,0.0,0.0,0.0,0.0,0.0,0.0,0.0,0.0,0.0,0.0,0.0,0.0,0.0,0.0,0.0,0.0,0.0,0.0,0.0,0.0,0.0,1.3515,1.4285,1.6992,1.8496,1.8728,1.9964,2.0636,2.0739,2.0739,2.0246,1.9211,1.7114,1.5315,0.0,0.0,1.1326,1.0749,1.0749,0.0,0.0,0.0,0.0,0.0,0.0,0.0,0.0,1.4293,1.4338,1.452,1.5245,0.0,0.0,0.0,0.0,0.0,1.9013,1.9186,1.9139,1.9235,1.9279,1.9268,1.9268,1.9902,2.0282,1.9612,2.0554,2.1333,2.0771,2.1861,2.3194,2.4192,2.5139,2.6818,2.9915,3.2119,3.3767,3.4752,3.6155,3.7065,3.7192,3.7827,3.8192,3.8192,3.8192,3.8207,3.8274,3.8368,3.8415,3.8478,3.8609,3.895,3.9483,3.9219,3.9376,3.9892,3.9401,3.9272,3.9483,3.9298,3.9458,3.9914,3.9935,4.0098,4.0291,4.0308,4.0307,4.036,4.054,4.0617,4.0648,4.0918,4.1019,4.1017,0.0,0.0,0.0,0.0,0.0,0.0,0.0,0.0,0.0,0.0,0.0,0.0,0.0,0.0,0.0,0.0,0.0,0.0,0.0,0.0,0.0,1.1625,1.3073,1.443,1.5679,1.7479,1.9278,2.1091,2.1315,2.1746,2.2341,2.2341,2.1305,1.9312,1.7671,1.6131,1.4698,1.3176,1.2455,1.2358,1.2358,0.0,0.0,0.0,0.0,0.0,0.0,0.0,0.0,1.4293,1.4306,1.4337,1.4476,0.0,0.0,0.0,0.0,0.0,1.8849,1.9186,1.9104,1.9139,1.9629,2.0119,2.0119,2.0735,2.1278,2.1169,2.1332,2.1677,2.2225,2.3041,2.3948,2.4892,2.6795,2.9032,3.1601,3.2799,3.3984,3.5527,3.6481,3.7283,3.802,3.8168,3.8192,3.8192,3.8192,3.8192,3.8225,3.8336,3.8415,3.8415,3.8578,3.895,3.9483,3.9219,3.9376,3.9892,3.9599,3.9477,3.9526,3.9693,3.9807,3.9914,4.0157,4.0272,4.0289,4.0307,4.0379,4.0482,4.0574,4.0672,4.0791,4.094,4.1047,4.1081,0.0,0.0,0.0,0.0,0.0,0.0,0.0,0.0,0.0,0.0,0.0,0.0,0.0,0.0,0.0,0.0,0.0,0.0,0.0,0.0,0.0,1.2143,1.4016,1.5557,1.6674,1.8527,2.0177,2.1608,2.2005,2.2384,2.2694,2.2324,2.1389,1.9951,1.8026,1.6568,1.5469,1.3526,1.27,1.2709,0.0,0.0,0.0,0.0,0.0,0.0,0.0,0.0,0.0,0.0,1.4293,1.4293,1.4293,0.0,0.0,0.0,0.0,0.0,1.8861,1.9464,1.9739,1.9739,2.0029,2.0409,2.0843,2.1568,2.2165,2.2165,2.2817,2.3487,2.3873,2.4577,2.552,2.6835,2.9043,3.1148,3.2718,3.3948,3.5162,3.6399,3.7207,3.7809,3.8223,3.8225,3.8192,3.8192,3.8192,3.8192,3.8192,3.8336,3.8382,3.8382,3.8743,3.9101,3.9502,3.9508,3.9717,4.0118,3.9829,3.9785,3.9933,3.9914,3.9996,4.0118,4.0253,4.0291,4.0307,4.0307,4.0392,4.0511,4.0655,4.0771,4.0879,4.0998,4.1074,4.1108,0.0,0.0,0.0,0.0,0.0,0.0,0.0,0.0,0.0,0.0,0.0,0.0,0.0,0.0,0.0,0.0,0.0,0.0,0.0,0.0,1.1768,1.248,1.4693,1.649,1.7735,1.9497,2.0877,2.1867,2.2436,2.2712,2.2721,2.2202,2.1496,2.054,1.8435,1.6989,1.5993,1.3876,1.298,1.299,0.0,0.0,0.0,0.0,0.0,0.0,0.0,0.0,0.0,0.0,0.0,0.0,0.0,0.0,0.0,1.6457,1.7288,1.8172,1.9172,1.9863,2.0426,2.0807,2.0898,2.1025,2.164,2.2546,2.3252,2.3252,2.4339,2.5335,2.5534,2.6367,2.758,2.9192,3.1148,3.2788,3.3644,3.509,3.634,3.7003,3.7751,3.8192,3.8192,3.8192,3.8192,3.8192,3.8192,3.8192,3.8192,3.8322,3.8415,3.8491,3.8855,3.9227,3.9599,3.9785,4.0038,4.031,4.0098,4.0098,4.0291,4.0098,4.0098,4.031,4.031,4.0309,4.0325,4.0339,4.0431,4.0584,4.0761,4.0898,4.0967,4.1058,4.1108,4.1108,0.0,0.0,0.0,0.0,0.0,0.0,0.0,0.0,0.0,0.0,0.0,0.0,0.0,0.0,0.0,0.0,0.0,0.0,0.0,0.0,1.1719,1.2465,1.4693,1.6915,1.9107,1.9964,2.1118,2.2599,2.2651,2.2738,2.279,2.2816,2.2056,2.0625,1.9035,1.7533,1.6098,1.4485,1.3801,1.3801,1.3801,0.0,0.0,0.0,0.0,0.0,0.0,0.0,0.0,0.0,0.0,0.0,0.0,0.0,1.565,1.6457,1.7362,1.8419,1.9977,2.04,2.0767,2.2319,2.2627,2.2546,2.2618,2.3777,2.4827,2.4827,2.5516,2.6349,2.7091,2.8504,3.0061,3.1673,3.2705,3.361,3.4407,3.5892,3.6957,3.7011,3.7703,3.8192,3.8192,3.8192,3.8192,3.8192,3.8192,3.8192,3.8192,3.8274,3.8465,3.8759,3.8857,3.9223,3.9851,3.9892,4.0038,4.031,4.0291,4.0272,4.031,4.0291,4.0272,4.031,4.031,4.0346,4.0396,4.0462,4.0557,4.0718,4.0902,4.1022,4.1085,4.1108,4.1108,4.1108,0.0,0.0,0.0,0.0,0.0,0.0,0.0,0.0,0.0,0.0,0.0,0.0,0.0,0.0,0.0,0.0,0.0,0.0,0.0,1.0574,1.1944,1.3139,1.4934,1.7173,1.9912,2.0257,2.1152,2.2712,2.2738,2.2816,2.2902,2.2944,2.2181,2.071,1.9675,1.8097,1.6133,1.5044,1.4385,1.4016,1.4016,1.4109,0.0,0.0,0.0,0.0,0.0,0.0,0.0,0.0,1.4362,1.4306,1.4325,1.522,1.6327,1.6721,1.8148,1.9751,2.0436,2.1201,2.2118,2.3344,2.3923,2.4184,2.4139,2.5081,2.6034,2.6426,2.7145,2.8105,2.9409,3.0532,3.1655,3.2777,3.3628,3.4606,3.591,3.6616,3.7178,3.7685,3.7993,3.8192,3.8192,3.8192,3.8192,3.8192,3.8192,3.8192,3.8192,3.8274,3.8354,3.8478,3.8915,3.9275,3.9519,3.9935,4.0196,4.031,4.031,4.031,4.031,4.031,4.031,4.031,4.031,4.0309,4.0342,4.0454,4.059,4.077,4.098,4.1078,4.1108,4.1108,4.1108,4.1108,0.0,0.0,0.0,0.0,0.0,0.0,0.0,0.0,0.0,0.0,0.0,0.0,0.0,0.0,0.0,0.0,0.0,0.0,0.9167,1.058,1.2065,1.3536,1.5089,1.7311,2.0325,2.0394,2.1152,2.2712,2.279,2.2893,2.2995,2.302,2.2229,2.0771,2.003,1.8559,1.657,1.5463,1.4816,1.4522,1.4217,1.4203,0.0,0.0,0.0,0.0,0.0,0.0,0.0,0.0,1.4387,1.4306,1.4381,1.5473,1.6798,1.6908,1.8614,2.0558,2.0912,2.1825,2.2933,2.4065,2.492,2.5564,2.5912,2.664,2.7415,2.8046,2.9011,3.0052,3.1092,3.2148,3.3033,3.3605,3.455,3.5666,3.6834,3.7229,3.7558,3.8119,3.8192,3.8192,3.8192,3.8192,3.8192,3.8192,3.8192,3.8192,3.8192,3.8241,3.8354,3.851,3.8971,3.9327,3.9543,4.0017,4.0253,4.031,4.031,4.031,4.031,4.031,4.031,4.031,4.031,4.0327,4.0375,4.05,4.0667,4.0874,4.1042,4.1104,4.1101,4.1108,4.1108,4.1091,0.0,0.0,0.0,0.0,0.0,0.0,0.0,0.0,0.0,0.0,0.0,0.0,0.0,0.0,0.0,0.0,0.0,0.0,0.9109,1.0544,1.2065,1.3536,1.5072,1.7311,2.0308,2.0394,2.1152,2.2712,2.2842,2.2944,2.2995,2.3052,2.2277,2.0771,2.0012,1.8919,1.7486,1.5757,1.5193,1.5424,1.4486,1.4177,1.4306,0.0,0.0,0.0,0.0,0.0,0.0,0.0,1.4446,1.4331,1.4533,1.5668,1.6903,1.697,1.8621,2.0598,2.1473,2.2136,2.298,2.454,2.5624,2.6644,2.7853,2.8525,2.9095,2.9696,3.1093,3.2159,3.1948,3.3212,3.4321,3.4303,3.5652,3.678,3.6997,3.7685,3.8192,3.8192,3.8192,3.8192,3.8192,3.8192,3.8192,3.8192,3.8192,3.8192,3.8192,3.8192,3.8446,3.898,3.9008,3.9345,4.0096,4.0096,4.0157,4.0291,4.031,4.031,4.031,4.031,4.031,4.031,4.031,4.0381,4.0504,4.0565,4.0762,4.1019,4.1074,4.1097,4.1096,4.1101,4.1108,4.1091,0.0,0.0,0.0,0.0,0.0,0.0,0.0,0.0,0.0,0.0,0.0,0.0,0.0,0.0,0.0,0.0,0.0,0.0,0.9109,1.0544,1.184,1.2776,1.4813,1.6829,1.8792,1.9907,2.125,2.2842,2.2944,2.3003,2.3052,2.2575,2.1877,2.0983,2.0205,1.9074,1.7736,1.6661,1.5976,1.5556,1.4632,1.4319,1.4429,0.0,0.0,0.0,0.0,0.0,0.0,0.0,0.0,0.0,1.4439,1.5607,1.6982,1.7108,1.9263,2.1646,2.1853,2.2703,2.3878,2.5425,2.6327,2.7381,2.9344,2.9692,2.993,3.1073,3.2457,3.3458,3.3394,3.422,3.5095,3.5683,3.6165,3.6719,3.7327,3.7737,3.7969,3.7969,3.8106,3.8192,3.8192,3.8192,3.8192,3.8192,3.8192,3.8192,3.8192,3.8336,3.8478,3.8658,3.9045,3.9383,3.9618,3.9826,3.9994,4.0015,4.0117,4.0215,4.031,4.031,4.031,4.031,4.031,4.0344,4.0454,4.0648,4.0849,4.0999,4.1025,4.1067,4.1096,4.11,4.1097,4.1091,0.0,0.0,0.0,0.0,0.0,0.0,0.0,0.0,0.0,0.0,0.9666,0.9605,0.0,0.0,0.0,0.0,0.0,0.0,0.9109,1.0238,1.1408,1.2448,1.4089,1.5865,1.7673,1.9277,2.0576,2.1544,2.2244,2.259,2.2663,2.2206,2.1512,2.0606,2.0125,1.9363,1.838,1.7149,1.6464,1.6046,1.4759,1.4293,1.4417,0.0,0.0,0.0,0.0,0.0,0.0,0.0,0.0,0.0,1.4393,1.5697,1.7083,1.712,1.9355,2.1795,2.1674,2.2862,2.4424,2.5584,2.6673,2.8039,3.035,3.1016,3.1394,3.2504,3.3398,3.4082,3.4317,3.503,3.5723,3.6203,3.6559,3.6969,3.7523,3.7703,3.7828,3.7899,3.8021,3.8106,3.8192,3.8192,3.8192,3.8192,3.8192,3.8192,3.8192,3.8322,3.8465,3.8634,3.8998,3.9298,3.9526,3.9735,3.9867,3.9889,3.9994,4.0057,4.0137,4.0253,4.031,4.0291,4.0379,4.0444,4.05,4.0768,4.0915,4.0952,4.0993,4.1013,4.1064,4.1086,4.1094,4.1097,0.0,0.0,0.0,0.0,0.0,0.0,0.0,0.0,0.0,0.9717,0.9692,0.9623,0.0,0.0,0.0,0.912,0.9109,0.9109,0.9109,0.9789,1.0825,1.2224,1.3139,1.4641,1.6863,1.8405,1.9251,1.9408,2.1027,2.1826,2.1896,2.1826,2.1149,1.9912,1.986,1.9632,1.9164,1.7302,1.6678,1.6743,1.4873,1.419,1.4319,1.4306,0.0,0.0,0.0,0.0,0.0,0.0,0.0,0.0,1.4309,1.5785,1.7198,1.7053,1.9127,2.1388,2.1195,2.2794,2.4658,2.5262,2.675,2.8735,3.1137,3.2346,3.3155,3.385,3.4084,3.4319,3.4889,3.5649,3.618,3.6162,3.6781,3.7334,3.7503,3.754,3.7631,3.7828,3.7864,3.7934,3.8158,3.8192,3.8192,3.8192,3.8192,3.8192,3.8192,3.8241,3.8451,3.8881,3.8921,3.921,3.9693,3.9693,3.9758,3.9867,3.9889,3.9889,3.9889,4.0137,4.0291,4.031,4.0504,4.0621,4.0648,4.0898,4.0943,4.0917,4.0972,4.0986,4.1003,4.107,4.1094,4.1101,0.0,0.0,0.0,0.0,0.0,0.0,0.0,0.0,0.9717,0.9699,0.9692,0.9623,0.9421,0.9394,0.0,0.912,0.9109,0.9109,0.9109,0.9789,1.0359,1.0687,1.2569,1.4433,1.618,1.6565,1.7369,1.8647,2.025,2.1048,2.1053,2.0569,2.0271,2.0101,1.947,1.9228,1.9179,1.7409,1.6751,1.6748,1.4966,1.4331,1.4441,1.4344,1.3793,0.0,0.0,0.0,0.0,0.0,0.0,0.0,1.3615,1.5341,1.7274,1.7232,1.9402,2.1745,2.1553,2.3037,2.4813,2.5393,2.7613,3.0226,3.2528,3.3248,3.3458,3.3756,3.4694,3.5467,3.5568,3.6274,3.6819,3.6802,3.6943,3.7066,3.7126,3.7259,3.7372,3.741,3.7558,3.7739,3.7934,3.7969,3.8038,3.8192,3.8192,3.8192,3.8192,3.8546,3.8792,3.891,3.9275,3.9483,3.9607,3.9607,3.965,3.9674,3.9712,3.9739,3.9739,3.9911,4.0099,4.0307,4.05,4.0662,4.0776,4.0878,4.0917,4.0907,4.0906,4.0952,4.0996,4.1011,4.1056,4.1097,0.0,0.0,0.0,0.0,0.0,0.0,0.0,0.0,0.9692,0.9703,0.9695,0.9625,0.9421,0.9394,0.0,0.0,0.9109,0.9109,0.9109,0.9461,0.9824,1.0186,1.1706,1.2946,1.379,1.455,1.5365,1.6203,1.8167,1.9521,2.0279,2.0028,1.9811,1.9595,1.9179,1.9113,1.9216,1.7839,1.7082,1.6684,1.5397,1.4689,1.4393,1.4331,1.3787,1.3068,1.2727,0.0,0.0,0.0,0.0,0.0,0.0,0.0,1.6242,1.6909,1.9082,2.125,2.1333,2.2973,2.5038,2.6725,2.8614,3.0582,3.2459,3.3493,3.4092,3.4235,3.5078,3.5934,3.6303,3.6707,3.6987,3.6987,3.6987,3.6987,3.6987,3.7105,3.7182,3.7297,3.741,3.7558,3.7739,3.7916,3.7967,3.7916,3.8156,3.8289,3.8204,3.851,3.8815,3.9036,3.9283,3.9458,3.9602,3.9602,3.9602,3.9602,3.9631,3.9689,3.9785,3.9867,4.0058,4.0325,4.045,4.0615,4.08,4.0878,4.0907,4.0907,4.0907,4.0926,4.0963,4.0988,4.1013,4.1055,0.0,0.0,0.0,0.0,0.0,0.0,0.0,0.0,0.0,0.9706,0.9698,0.9617,0.9448,0.9412,0.9329,0.0,0.0,0.0,0.9109,0.9109,0.9427,1.0169,1.0855,1.1283,1.1404,1.2857,1.3686,1.3809,1.5888,1.773,1.9336,1.9623,1.9507,1.9048,1.9014,1.9097,1.9188,1.8245,1.7475,1.682,1.605,1.5369,1.4781,1.4781,1.4283,1.3577,1.3552,1.2602,1.1432,1.2011,0.0,0.0,0.0,0.0,1.5061,1.6528,1.8544,2.0433,2.1054,2.295,2.539,2.7957,2.9327,3.0427,3.1864,3.3493,3.4723,3.4863,3.5495,3.6215,3.6865,3.6987,3.6987,3.6987,3.6987,3.6987,3.6987,3.6987,3.7066,3.722,3.7297,3.7392,3.7613,3.788,3.7949,3.7721,3.8052,3.8252,3.8201,3.8396,3.8737,3.9183,3.9237,3.938,3.9596,3.9602,3.9602,3.9602,3.9626,3.9731,3.9914,3.9935,4.0099,4.0341,4.0415,4.0582,4.0792,4.0868,4.0898,4.0898,4.0898,4.0907,4.0917,4.0952,4.0986,4.1003,0.0,0.0,0.0,0.0,0.0,0.0,0.0,0.0,0.0,0.0,0.9698,0.9649,0.9489,0.9439,0.9339,0.9206,0.9133,0.9109,0.9109,0.0,0.0,1.0169,1.0354,1.0771,1.1481,1.2379,1.319,1.3888,1.4851,1.6182,1.7914,1.8733,1.9173,1.9259,1.9081,1.8996,1.8977,1.805,1.7639,1.7605,1.6968,1.6717,1.6732,1.6732,1.6244,1.5447,1.4754,1.393,1.3058,1.2418,1.2121,0.0,0.0,0.0,1.5042,1.6678,1.8241,1.9785,2.1222,2.3502,2.5826,2.729,2.8781,3.0227,3.1847,3.3421,3.4734,3.5492,3.6285,3.6865,3.697,3.6987,3.6987,3.6987,3.6987,3.6987,3.6987,3.6987,3.7027,3.7027,3.7281,3.7559,3.7756,3.7809,3.7897,3.8034,3.781,3.781,3.8101,3.841,3.8748,3.9101,3.9406,3.9552,3.9602,3.9602,3.9602,3.9602,3.9777,3.987,3.9914,4.008,4.0267,4.0481,4.0607,4.07,4.0807,4.0818,4.0848,4.0907,4.0907,4.0908,4.0907,4.0917,4.0949,4.1,0.0,0.0,0.0,0.0,0.0,0.0,0.0,0.0,0.0,0.0,0.0,0.9559,0.9465,0.934,0.9236,0.9154,0.9113,0.9109,0.9109,0.9109,0.9265,0.9615,0.9661,0.9856,1.0197,1.1006,1.1802,1.2618,1.3798,1.5079,1.6463,1.7767,1.8647,1.9113,1.8948,1.8878,1.8878,1.8518,1.8154,1.7785,1.7721,1.7383,1.6925,1.7065,1.6818,1.6373,1.6139,1.5229,1.4107,1.3736,1.2975,1.2344,1.3226,0.0,0.0,0.0,1.7553,1.9254,2.1516,2.3221,2.4713,2.6347,2.7987,2.9567,3.1063,3.2631,3.3992,3.4833,3.564,3.6344,3.69,3.6948,3.6891,3.6987,3.6987,3.6987,3.6987,3.6987,3.7087,3.7243,3.7395,3.7614,3.7931,3.815,3.8099,3.7809,3.8117,3.8267,3.8165,3.8597,3.8942,3.9275,3.9399,3.952,3.9546,3.9546,3.9571,3.9602,3.9914,4.006,4.008,4.0389,4.0515,4.0511,4.0559,4.0668,4.0807,4.0807,4.0818,4.0848,4.0848,4.0828,4.0849,4.0849,4.0878,4.0932,0.0,0.0,0.0,0.0,0.0,0.0,0.0,0.0,0.0,0.0,0.0,0.9499,0.9448,0.0,0.0,0.0,0.9123,0.9113,0.9109,0.9109,0.912,0.9196,0.9206,0.9199,0.9201,0.9985,1.0691,1.13,1.2832,1.4147,1.522,1.6544,1.7609,1.8401,1.8716,1.8843,1.8861,1.8948,1.8654,1.8193,1.8419,1.807,1.7428,1.7734,1.7746,1.7642,1.7835,1.7001,1.5789,1.5651,1.4375,1.2975,1.3829,1.3839,0.0,0.0,0.0,1.9072,2.1098,2.2524,2.3762,2.508,2.6939,2.8711,2.9693,3.1463,3.3082,3.3674,3.4718,3.5692,3.6466,3.6689,3.6788,3.6908,3.6908,3.6908,3.6908,3.6948,3.7031,3.7301,3.7505,3.7756,3.8068,3.8392,3.8373,3.7808,3.8263,3.8473,3.831,3.8628,3.8989,3.9346,3.9373,3.9418,3.9469,3.9495,3.9571,3.9674,4.002,4.0233,4.0286,4.0646,4.0713,4.0574,4.0574,4.0655,4.0804,4.0804,4.0804,4.0796,4.0796,4.0796,4.0807,4.0807,4.0848,4.0907,0.0,0.0,0.0,0.0,0.0,0.0,0.0,0.0,0.0,0.0,0.0,0.9593,0.9587,0.9465,0.934,0.9199,0.9189,0.9167,0.9109,0.9109,0.912,0.9196,0.9206,0.0,0.9201,0.9985,1.0416,1.0451,1.2007,1.3307,1.4374,1.4908,1.5709,1.6793,1.8294,1.8998,1.8998,1.8983,1.9049,1.9139,1.9143,1.9127,1.9132,1.9651,1.983,1.9866,2.0064,1.9587,1.8778,1.8273,1.6522,1.4701,1.5518,1.472,1.382,0.0,0.0,0.0,1.9305,2.1516,2.3777,2.3364,2.5515,2.7729,2.7591,2.9901,3.2105,3.2194,3.3911,3.5434,3.5571,3.6197,3.6702,3.6702,3.6702,3.6702,3.6702,3.6748,3.6829,3.6811,3.7577,3.8068,3.8101,3.8392,3.8579,3.8548,3.7946,3.7877,3.8548,3.8342,3.8548,3.9183,3.9328,3.9418,3.9418,3.9469,3.9602,3.9781,4.008,4.0304,4.0489,4.0687,4.079,4.079,4.079,4.079,4.0803,4.0803,4.0796,4.08,4.08,4.0804,4.0807,4.0807,4.0848,4.0907,0.0,0.0,0.0,0.0,0.0,0.0,0.0,0.0,0.0,0.0,0.0,0.0,0.0,0.9348,0.9241,0.9143,0.9181,0.9199,0.9168,0.9161,0.9164,0.9194,0.9201,0.9201,0.9196,0.9487,0.9873,1.0399,1.1571,1.2621,1.3569,1.4711,1.5436,1.5803,1.6819,1.7555,1.8038,1.8258,1.8695,1.9253,1.9714,1.9793,1.9722,2.0455,2.0621,2.054,2.0741,2.0427,1.982,1.9063,1.802,1.6873,1.613,1.5499,1.5147,1.5722,1.652,1.749,1.8773,2.035,2.1915,2.3075,2.4784,2.6455,2.7385,2.9032,3.0681,3.1702,3.3308,3.4725,3.5232,3.5983,3.6602,3.6702,3.6702,3.6702,3.6702,3.6725,3.6891,3.7376,3.7721,3.8083,3.8572,3.8755,3.8766,3.8554,3.8517,3.853,3.8609,3.87,3.8894,3.9129,3.9175,3.9229,3.9256,3.9373,3.9533,3.9739,4.0001,4.0177,4.0269,4.0631,4.0733,4.0612,4.0733,4.079,4.079,4.079,4.0803,4.0796,4.0796,4.0796,4.0808,4.0808,4.0831,4.0854,0.0,0.0,0.0,0.0,0.0,0.0,0.0,0.0,0.0,0.9666,0.0,0.0,0.0,0.0,0.9219,0.9143,0.9151,0.9158,0.9158,0.9161,0.9174,0.9204,0.9174,0.9174,0.9196,0.9196,0.9469,0.9995,1.0897,1.1656,1.2295,1.3769,1.4472,1.4553,1.5255,1.6312,1.7611,1.7855,1.8632,1.9705,2.0029,2.0226,2.0376,2.1096,2.1401,2.1505,2.2069,2.187,2.1236,2.0716,1.9788,1.8614,1.7362,1.6479,1.5908,1.5908,1.5908,1.6262,1.7964,1.9256,2.0563,2.2397,2.3894,2.5194,2.631,2.7779,2.9157,3.011,3.1903,3.3473,3.3973,3.4967,3.5873,3.6474,3.6561,3.6561,3.6561,3.6602,3.6851,3.7469,3.7721,3.8032,3.8664,3.8862,3.8862,3.8634,3.8785,3.8826,3.8737,3.8826,3.8942,3.9101,3.9101,3.9129,3.9156,3.9275,3.9471,3.9766,3.9962,4.0101,4.0195,4.0485,4.0549,4.0438,4.0564,4.0687,4.079,4.079,4.079,4.079,4.079,4.079,4.079,4.079,4.0796,4.08,0.0,0.0,0.0,0.0,0.0,0.0,0.0,0.0,0.9703,0.9628,0.0,0.0,0.0,0.0,0.0,0.9206,0.9143,0.9109,0.9109,0.9109,0.912,0.9196,0.9147,0.914,0.9201,0.9201,0.9204,0.9206,1.0009,1.0478,1.0634,1.1942,1.271,1.3034,1.3746,1.5444,1.7774,1.7871,1.894,2.057,2.0154,2.0463,2.1209,2.1749,2.2293,2.2954,2.4191,2.4021,2.3214,2.3371,2.1893,1.9917,1.9302,1.767,1.5963,1.5908,1.5908,1.6075,0.0,0.0,0.0,2.1202,2.272,2.3925,2.4229,2.6045,2.7589,2.7341,2.9679,3.1731,3.1731,3.3007,3.4525,3.5973,3.6232,3.6284,3.6301,3.6444,3.665,3.7052,3.7505,3.7982,3.8382,3.8713,3.891,3.891,3.8621,3.859,3.8979,3.8695,3.8676,3.9073,3.9101,3.9101,3.9101,3.9156,3.9433,3.988,3.9943,4.0082,4.0283,4.03,4.0281,4.0264,4.0281,4.0485,4.079,4.079,4.079,4.079,4.079,4.079,4.079,4.079,4.0784,4.0788,0.0,0.0,0.0,0.0,0.0,0.9688,0.9638,1.0083,1.0395,0.0,0.0,0.0,1.0959,1.0394,0.9787,0.9175,0.9102,0.9109,0.9109,0.9147,0.9185,0.9196,0.9185,0.9178,0.9199,0.9199,0.9199,0.9209,1.0059,1.05,1.0554,1.1453,1.2244,1.2938,1.3152,1.4648,1.7052,1.7756,1.9002,2.0613,2.1495,2.2174,2.2681,2.3277,2.4116,2.5,2.5338,2.5444,2.5237,2.4121,2.3271,2.2272,2.0081,1.8578,1.7411,1.623,1.5908,1.5945,1.6168,0.0,0.0,0.0,0.0,0.0,2.3865,2.5243,2.6473,2.6742,2.8757,3.0402,3.0179,3.1834,3.3369,3.3766,3.4783,3.568,3.6215,3.6574,3.6956,3.7321,3.7774,3.8168,3.8596,3.8732,3.8822,3.8822,3.8773,3.8803,3.8921,3.8833,3.8862,3.9036,3.9036,3.9064,3.9101,3.9129,3.9298,3.9609,3.9637,3.9687,3.9791,3.9945,3.9926,3.9821,4.0156,4.0351,4.045,4.064,4.0746,4.079,4.0746,4.0733,4.0713,4.0668,4.0668,4.0648,0.0,0.0,0.9695,0.9699,0.9699,0.9805,1.0098,1.0467,1.0779,0.0,0.0,0.0,1.1514,1.1056,1.0561,1.0094,0.9755,0.9565,0.9565,0.9321,0.9158,0.9158,0.9158,0.9158,0.9158,0.9158,0.9168,0.9206,0.969,0.9922,0.9925,1.0662,1.1341,1.196,1.2621,1.4152,1.6388,1.7939,1.9546,2.1091,2.1653,2.2624,2.3773,2.4322,2.5259,2.6358,2.6745,2.6974,2.6895,2.5609,2.4453,2.3174,2.1225,1.9772,1.8573,1.7638,1.6651,1.5917,1.6281,1.6799,1.7627,1.917,0.0,0.0,2.2946,2.4096,2.4967,2.5337,2.7016,2.83,2.8125,2.9696,3.1127,3.1438,3.2507,3.38,3.518,3.5976,3.6579,3.6987,3.768,3.8252,3.8658,3.8719,3.875,3.875,3.8792,3.8822,3.8851,3.8862,3.8939,3.8968,3.8968,3.8979,3.9036,3.9045,3.921,3.9452,3.9489,3.9513,3.9575,3.9687,3.9668,3.9571,3.984,4.0043,4.0138,4.03,4.05,4.0713,4.0668,4.0654,4.0654,4.0621,4.0588,4.0588,0.0,0.0,0.971,0.9706,0.9772,1.0076,1.0775,1.0911,1.1169,0.0,1.1975,1.1934,1.1802,1.1788,1.1719,1.1546,1.086,1.0376,1.0221,0.9582,0.9185,0.9109,0.9109,0.9109,0.9109,0.9109,0.912,0.9196,0.912,0.9109,0.9126,0.9783,1.0276,1.0657,1.2132,1.3865,1.5814,1.8141,2.0138,2.168,2.1348,2.2539,2.4537,2.5028,2.6044,2.7349,2.8266,2.8508,2.8254,2.7348,2.5472,2.3419,2.2616,2.1169,1.9715,1.9468,1.7868,1.6294,1.6853,1.6547,1.6596,1.88,1.9501,0.0,2.1742,2.2697,2.331,2.3624,2.4837,2.5848,2.5922,2.7186,2.8449,2.9106,2.9885,3.1235,3.3567,3.4868,3.5736,3.6131,3.7208,3.8031,3.8401,3.8505,3.8579,3.8579,3.8652,3.8738,3.8792,3.8851,3.8881,3.891,3.891,3.8892,3.891,3.895,3.912,3.9343,3.9427,3.9433,3.9433,3.9433,3.9433,3.9452,3.9477,3.9609,3.9838,3.9859,4.0138,4.0526,4.0511,4.0511,4.0511,4.0511,4.0511,4.0511,0.9699,0.9692,0.971,0.9706,1.0241,1.0693,1.0731,1.1722,1.269,1.3299,1.4341,1.4813,1.4208,1.4139,1.3638,1.2379,1.2137,1.1516,1.029,1.0065,0.972,0.9126,0.9109,0.9109,0.9109,0.9109,0.9109,0.912,0.9109,0.9109,0.9109,0.9303,0.9829,1.0649,1.1649,1.3346,1.5574,1.7348,1.9273,2.1276,2.2614,2.3863,2.5018,2.5657,2.7036,2.8708,2.9491,2.9763,2.9474,2.7755,2.6237,2.487,2.3755,2.2779,2.1698,1.9921,1.8944,1.8234,1.7269,1.7364,1.7858,1.8324,1.9464,0.0,2.0937,2.162,2.2319,2.2806,2.3638,2.439,2.4814,2.61,2.7151,2.7293,2.7988,2.9466,3.2197,3.3617,3.4488,3.4817,3.5915,3.6685,3.6762,3.7349,3.7716,3.7716,3.8322,3.8707,3.8719,3.8719,3.878,3.8822,3.8822,3.8851,3.891,3.8892,3.895,3.9007,3.9064,3.912,3.912,3.912,3.912,3.912,3.9272,3.9357,3.9414,3.9595,3.9802,4.0043,4.0043,4.0043,4.0043,3.9984,3.9964,3.9984,0.9703,0.9695,0.9695,0.9706,1.037,1.1004,1.136,1.2567,1.3707,1.4397,1.5645,1.6312,1.5934,1.6245,1.6021,1.4848,1.4417,1.3537,1.1999,1.155,1.0842,0.9703,0.9651,0.9478,0.9109,0.9109,0.9109,0.9109,0.9109,0.9109,0.9109,0.9133,0.9617,1.0486,1.1326,1.302,1.5374,1.7393,1.9249,2.0903,2.2197,2.3653,2.5155,2.6042,2.7726,2.9685,3.0801,3.0954,3.0438,2.8955,2.7639,2.6436,2.5249,2.4197,2.316,2.1637,2.0523,1.9561,1.8441,1.8153,1.8139,1.8139,1.8779,0.0,0.0,2.0747,2.1188,2.174,2.2147,2.2608,2.3285,2.4343,2.5244,2.5643,2.6365,2.7405,2.8987,3.1082,3.2517,3.2683,3.4089,3.522,3.5624,3.6028,3.6597,3.7452,3.7863,3.8267,3.8689,3.8707,3.8738,3.875,3.875,3.878,3.881,3.8822,3.8851,3.8851,3.8939,3.895,3.895,3.895,3.895,3.8968,3.9045,3.9101,3.9129,3.9208,3.9301,3.9414,3.9645,3.9754,3.9754,3.9712,3.9731,3.9775,0.9687,0.9706,0.9743,0.99,1.0608,1.1443,1.2425,1.3546,1.4656,1.5697,1.6919,1.7697,1.7635,1.816,1.8168,1.7377,1.6683,1.5644,1.4007,1.334,1.2292,1.0697,1.049,1.0042,0.9323,0.9168,0.9081,0.9109,0.9109,0.9109,0.9109,0.9275,0.9689,1.036,1.1461,1.318,1.5407,1.7807,1.9644,2.1021,2.1752,2.329,2.5257,2.6468,2.8332,3.0514,3.1968,3.2036,3.1269,3.0297,2.9214,2.7999,2.6754,2.5638,2.4608,2.3547,2.2227,2.0929,2.0008,1.9179,1.8574,1.8574,1.8445,1.862,0.0,0.0,0.0,2.0777,2.0898,2.1151,2.1959,2.2658,2.3249,2.3715,2.4449,2.4962,2.5099,2.7695,2.9787,3.0259,3.1816,3.3201,3.3982,3.4495,3.5404,3.6909,3.7312,3.7771,3.8432,3.8615,3.8707,3.8707,3.8707,3.8707,3.8707,3.875,3.8792,3.8792,3.8851,3.8881,3.8881,3.9029,3.9102,3.9102,3.9121,3.9073,3.9073,3.8925,3.8822,3.8785,3.9275,3.9476,3.9476,3.9476,3.95,3.9548,0.9661,0.9692,0.9923,1.0645,1.1434,1.248,1.4004,1.4854,1.6004,1.7875,1.9395,2.0187,1.9945,1.9705,1.9236,1.8492,1.8079,1.7043,1.5143,1.4931,1.4065,1.2226,1.1462,1.0758,1.01,0.9377,0.9033,0.9109,0.9109,0.9109,0.9126,0.9889,1.026,1.0395,1.2618,1.4436,1.5956,1.8246,2.0377,2.2272,2.3005,2.422,2.5754,2.7148,2.9093,3.1275,3.2747,3.2797,3.2076,3.1286,3.0507,2.9576,2.8052,2.7298,2.6553,2.4624,2.3721,2.3069,2.1861,2.0886,2.0228,2.0228,1.9693,1.9216,1.9384,0.0,1.9625,2.04,0.0,2.082,2.1679,0.0,0.0,2.1076,2.1679,2.199,2.1257,2.3345,2.575,2.7889,2.8975,2.9879,3.0668,3.2687,3.4321,3.5238,3.6652,3.7533,3.7606,3.8303,3.8707,3.8707,3.8707,3.8707,3.8707,3.8707,3.8689,3.8689,3.8762,3.8822,3.884,3.9547,3.9878,3.9878,3.9816,3.9785,3.973,3.9032,3.8496,3.8234,3.8766,3.8989,3.8989,3.8989,3.8989,3.9017,0.9517,0.9517,0.9762,1.0528,1.1332,1.2408,1.3972,1.5898,1.7752,1.9339,2.0489,2.1108,2.0934,2.1181,2.0955,2.003,1.9814,1.9015,1.7266,1.6774,1.5867,1.4383,1.3172,1.218,1.1439,1.0257,0.9658,0.9681,0.9252,0.9046,0.9063,0.9847,1.0662,1.1521,1.2923,1.4864,1.7137,1.854,2.0381,2.2558,2.4156,2.5622,2.703,2.8078,3.0412,3.3186,3.3812,3.3829,3.3499,3.2997,3.2189,3.1173,3.0082,2.9022,2.7918,2.634,2.5641,2.5074,2.3602,2.2776,2.2171,2.1439,2.0494,1.9806,1.9973,1.9638,1.9253,1.9143,0.0,0.0,0.0,0.0,0.0,0.0,2.0097,2.0207,1.9858,2.1105,2.296,2.5423,2.6878,2.8165,2.943,3.0716,3.2183,3.3876,3.467,3.5672,3.7143,3.7544,3.8008,3.8689,3.8707,3.8707,3.8707,3.8707,3.8707,3.8707,3.8496,3.8382,3.8401,3.8932,3.9329,3.9586,3.9767,3.9713,3.9516,3.8898,3.8275,3.7756,3.7998,3.8249,3.8446,3.8446,3.846,3.8473,0.9358,0.9375,0.9697,1.0656,1.1319,1.2442,1.4641,1.7329,1.9528,2.0556,2.1393,2.191,2.1975,2.2215,2.2082,2.1317,2.1062,2.0323,1.8925,1.8447,1.7608,1.6352,1.5071,1.3871,1.2756,1.1395,1.051,1.0096,0.9566,0.9207,0.9019,0.9959,1.1077,1.236,1.3667,1.5677,1.812,1.9367,2.1042,2.3042,2.5116,2.7199,2.9127,2.9905,3.1985,3.4523,3.4726,3.4675,3.4447,3.4216,3.3533,3.2599,3.162,3.0627,2.9547,2.804,2.727,2.6617,2.5345,2.4345,2.3464,2.2667,2.1498,2.0608,2.0799,2.0225,1.9455,1.8886,1.8592,0.0,0.0,0.0,1.8225,0.0,0.0,1.8574,1.8335,1.9213,2.0682,2.2923,2.4855,2.6477,2.7675,2.8892,3.029,3.19,3.2814,3.4051,3.5792,3.6483,3.7279,3.8217,3.8323,3.8401,3.8515,3.8433,3.8368,3.8368,3.8068,3.8021,3.8256,3.8741,3.9244,3.977,4.0009,3.9888,3.9373,3.8811,3.8071,3.7266,3.7268,3.7342,3.7524,3.7826,3.7964,3.7946,0.9236,0.9311,0.9885,1.1401,1.1669,1.2989,1.6811,1.9465,2.1196,2.1685,2.2404,2.2998,2.3397,2.265,2.2116,2.2182,2.1463,2.0553,1.9546,1.9733,1.9289,1.7893,1.704,1.5745,1.389,1.2774,1.1525,1.0096,1.0079,0.9703,0.9037,1.0489,1.1571,1.2428,1.5384,1.7328,1.855,2.111,2.2878,2.4115,2.5949,2.8856,3.2222,3.2983,3.3778,3.459,3.5318,3.5115,3.4489,3.4515,3.4309,3.3796,3.2271,3.1987,3.1751,2.9493,2.8294,2.7575,2.7143,2.5355,2.3692,2.4039,2.2923,2.1749,2.1766,2.1088,2.0448,2.0429,1.9803,1.9253,1.9253,1.8629,0.0,0.0,0.0,0.0,0.0,1.7238,1.8857,2.0427,2.2794,0.0,2.4432,2.7288,2.9012,2.8767,3.1592,3.322,3.3046,3.5182,3.6624,3.7043,3.7379,3.7739,3.8101,3.7721,3.7542,3.7542,3.7542,3.788,3.8592,3.9468,4.0235,4.0949,4.0967,4.0503,3.97,3.8854,3.7803,3.6729,3.6659,3.6301,3.6002,3.7117,3.7542,3.7542,0.9199,0.9204,0.9683,1.1222,1.1501,1.2955,1.73,1.9456,2.0791,2.1463,2.2061,2.2289,2.1903,2.2285,2.2324,2.1705,2.1807,2.1687,2.1255,2.0868,2.0487,2.0106,1.8843,1.7434,1.591,1.4755,1.3453,1.2007,1.1711,1.1158,1.0412,1.146,1.2582,1.3836,1.5795,1.7572,1.926,2.1351,2.3201,2.5013,2.8342,3.1309,3.3728,3.3491,3.4167,3.5267,3.552,3.5453,3.5233,3.5233,3.5028,3.4639,3.3857,3.2997,3.2107,3.1115,3.0097,2.9047,2.7883,2.6806,2.5808,2.4838,2.361,2.265,2.2593,2.1951,2.1198,2.0613,1.9858,1.9143,1.8592,1.7417,0.0,0.0,0.0,0.0,0.0,1.5055,1.6165,0.0,0.0,0.0,0.0,0.0,2.6183,2.8111,2.9091,3.0467,3.2464,3.3775,3.5137,3.6554,3.7184,3.7578,3.7685,3.7578,3.7451,3.736,3.719,3.7461,3.8139,3.8657,3.9468,4.0461,4.0593,4.0366,3.9824,3.837,3.7229,3.6333,3.5503,3.5027,3.4935,3.5693,3.5933,3.5805,0.9251,0.9394,0.9949,1.1183,1.2293,1.4228,1.7834,1.9375,2.0471,2.1371,2.1827,2.2001,2.201,2.2566,2.2828,2.2679,2.2671,2.2727,2.2851,2.2071,2.1732,2.1916,2.048,1.9103,1.7813,1.6532,1.5051,1.3355,1.2908,1.2145,1.1113,1.1925,1.3092,1.4562,1.6281,1.7869,1.9487,2.1977,2.3742,2.5307,2.9517,3.2486,3.4341,3.3895,3.4513,3.5622,3.5622,3.5622,3.5622,3.5622,3.546,3.519,3.466,3.3847,3.2983,3.2531,3.1472,3.0315,2.9452,2.8453,2.7378,2.6153,2.5098,2.4251,2.3999,2.3091,2.2149,2.1604,2.0644,1.9737,1.9196,1.7881,0.0,0.0,0.0,0.0,0.0,1.4184,0.0,0.0,0.0,0.0,0.0,0.0,0.0,0.0,0.0,0.0,0.0,3.2161,3.3757,3.5723,3.6337,3.6811,3.721,3.7114,3.7017,3.6921,3.6545,3.6755,3.7387,3.7619,3.8286,3.9333,3.9714,3.9546,3.901,3.787,3.6821,3.5827,3.4822,3.423,3.4071,3.4684,3.4855,3.4761,0.9472,0.9995,1.0773,1.1508,1.402,1.6573,1.8437,1.9345,2.0284,2.1512,2.1692,2.2243,2.3614,2.3391,2.3629,2.4834,2.3955,2.3598,2.4134,2.3338,2.2944,2.3178,2.1972,2.0686,1.9383,1.8113,1.6331,1.4092,1.3709,1.2737,1.1268,1.1994,1.3126,1.4646,1.6847,1.8245,1.9231,2.2922,2.4629,2.5252,2.9499,3.2421,3.427,3.4275,3.4802,3.5577,3.5577,3.5577,3.5577,3.5622,3.5622,3.5504,3.4776,3.4523,3.4353,3.366,3.2442,3.1353,3.1706,3.0179,2.8364,2.7964,2.7296,2.6521,2.5853,2.4499,2.3383,2.346,2.2207,2.1089,2.1029,1.9951,1.9038,0.0,0.0,0.0,0.0,0.0,0.0,0.0,0.0,0.0,0.0,0.0,0.0,0.0,0.0,0.0,0.0,3.04,3.2478,3.4547,3.4904,3.5583,3.6596,3.6374,3.6233,3.6122,3.5616,3.5744,3.6421,3.6488,3.6905,3.7711,3.8363,3.821,3.7518,3.7357,3.649,3.5205,3.4643,3.3846,3.3166,3.3971,3.4284,3.4268,1.0936,1.1921,1.3186,1.4503,1.581,1.7109,1.8481,1.9703,2.0584,2.0845,2.1628,2.2135,2.2034,2.3117,2.3788,2.3685,2.3782,2.3899,2.3955,2.3755,2.3382,2.2908,2.2579,2.1306,1.9097,1.9226,1.8051,1.5397,1.531,1.4599,1.3317,1.3021,1.3745,1.5392,1.7067,1.822,1.9129,2.2503,2.5782,2.8895,3.0701,3.285,3.4914,3.4088,3.446,3.5383,3.5475,3.552,3.552,3.5577,3.5622,3.5588,3.5402,3.4945,3.4455,3.4269,3.3558,3.2754,3.2298,3.1329,3.0214,2.9212,2.8412,2.773,2.7274,2.6415,2.5738,2.5755,2.4053,2.2558,2.2605,2.1075,1.9651,0.0,0.0,0.0,0.0,0.0,0.0,1.5783,0.0,0.0,0.0,0.0,0.0,0.0,0.0,0.0,2.815,2.9866,3.1497,3.3068,3.4404,3.5177,3.5373,3.5521,3.5526,3.5316,3.4894,3.5003,3.5613,3.6133,3.678,3.7567,3.7576,3.7785,3.7994,3.6453,3.5959,3.5879,3.3825,3.2266,3.1304,3.1972,3.2321,3.2415,1.2467,1.3586,1.5002,1.6407,1.7439,1.8315,1.9081,2.0062,2.0862,2.1153,2.198,2.2639,2.2956,2.3658,2.4245,2.4682,2.4804,2.5067,2.5512,2.4966,2.4427,2.4071,2.3172,2.2017,2.0633,2.0012,1.8869,1.7182,1.6448,1.5542,1.4525,1.3856,1.4274,1.5663,1.7151,1.8245,1.9177,2.268,2.6354,2.9874,3.1004,3.2644,0.0,3.3751,3.4036,3.4787,3.4866,3.5182,3.5492,3.5566,3.5594,3.5622,3.5622,3.5334,3.4979,3.4979,3.4455,3.3778,3.3355,3.2713,3.1907,3.0933,3.0355,2.9829,2.8987,2.8221,2.7511,2.6866,2.5438,2.4093,2.3458,2.223,2.0898,1.9558,1.8097,0.0,0.0,0.0,0.0,0.0,1.7266,0.0,0.0,0.0,0.0,0.0,0.0,0.0,0.0,2.8353,2.9888,3.1496,3.3279,3.421,3.4164,3.4975,3.5144,3.4657,3.4186,3.4014,3.4074,3.4747,3.5143,3.5303,3.5769,3.6199,3.6445,3.5334,3.4921,3.4851,3.2825,3.1372,3.0473,3.0597,3.0852,3.116,1.4314,1.5294,1.6581,1.7669,1.8908,1.9752,1.9877,2.0509,2.1214,2.1901,2.2552,2.3455,2.4868,2.4613,2.4955,2.6566,2.6287,2.6461,2.741,2.6329,2.57,2.5701,2.3849,2.2762,2.2686,2.0611,1.9266,1.8781,1.7226,1.605,1.5272,1.4607,1.4821,1.5832,1.721,1.8491,1.9808,2.329,2.6513,2.9342,3.072,3.2035,3.3182,3.3182,3.3523,3.4129,3.4182,3.479,3.5597,3.5597,3.5723,3.5836,3.5864,3.5881,3.5864,3.5881,3.5385,3.4793,3.4793,3.4184,3.3389,3.273,3.2493,3.2127,3.09,3.0034,2.9117,2.776,2.6807,2.5734,2.4207,2.3364,2.2314,2.0551,1.9683,1.895,0.0,0.0,0.0,0.0,0.0,0.0,0.0,0.0,0.0,0.0,0.0,0.0,0.0,0.0,2.8047,2.9847,3.1815,3.2907,3.3061,3.4369,3.4655,3.3971,3.3308,3.2694,3.2204,3.2901,3.293,3.2483,3.3628,3.4245,3.4312,3.4177,3.3801,3.3056,3.1959,3.0984,3.021,2.9715,2.9837,3.0283,1.727,1.7932,1.8693,1.9227,1.9881,2.0363,2.0457,2.121,2.1819,2.196,2.2971,2.4002,2.4915,2.5347,2.5932,2.6712,2.672,2.672,2.6946,2.6731,2.6331,2.5876,2.49,2.3715,2.2269,2.113,1.9978,1.8786,1.7777,1.6924,1.6238,1.5582,1.5759,1.6711,1.7581,1.9697,2.272,2.4082,2.6459,2.941,2.9785,3.1272,3.3093,3.2145,3.2832,3.4191,3.4282,3.508,3.6117,3.6212,3.6678,3.7181,3.7309,3.734,3.7357,3.7452,3.6975,3.6383,3.6383,3.5368,3.4269,3.4134,3.366,3.3136,3.2882,3.228,3.1484,3.0637,2.9367,2.7996,2.6486,2.4356,2.2805,2.2705,2.1497,2.0522,2.0339,0.0,0.0,0.0,0.0,2.0139,0.0,0.0,0.0,0.0,0.0,0.0,0.0,0.0,2.7085,2.82,3.0336,3.1729,3.2311,3.2711,3.2861,3.2801,3.1562,3.0955,3.0881,3.2003,3.2538,3.242,3.309,3.3768,3.4245,3.363,3.3055,3.2489,3.2291,3.1202,2.9654,2.9545,2.9255,2.9008,1.8759,1.9567,2.0296,2.0264,2.1108,2.1766,2.1739,2.2367,2.2793,2.2639,2.3895,2.5103,2.5784,2.6171,2.6619,2.723,2.7284,2.7284,2.7284,2.7223,2.6891,2.6402,2.5378,2.4431,2.3622,2.1876,2.068,1.9978,1.8754,1.7863,1.7221,1.6764,1.6865,1.747,1.8747,2.0834,2.3491,2.4712,2.6708,2.9052,2.9763,3.0961,3.2302,3.2131,3.2722,3.3824,3.4207,3.5329,3.673,3.6854,3.7135,3.7534,3.7567,3.7648,3.7696,3.7793,3.7587,3.728,3.6891,3.6248,3.5571,3.5182,3.481,3.4455,3.4066,3.3694,3.3102,3.1985,3.0886,2.9468,2.7216,2.547,2.4322,2.4056,2.2838,2.189,2.1764,0.0,0.0,0.0,0.0,0.0,0.0,0.0,0.0,0.0,0.0,0.0,0.0,0.0,2.5749,2.6461,2.9287,3.0735,3.0717,3.1818,3.2048,3.1447,3.0793,3.0329,2.9993,3.1261,3.165,3.1419,3.2305,3.2903,3.3185,3.2704,3.2311,3.2022,3.165,3.1046,3.0378,2.9984,2.9497,2.9059,1.9964,2.0938,2.1679,2.1205,2.2186,2.3063,2.2997,2.3504,2.3771,2.3607,2.4799,2.5938,2.6729,2.6868,2.7134,2.7714,2.7832,2.7818,2.7818,2.7769,2.7566,2.7216,2.604,2.5293,2.5138,2.2761,2.1423,2.123,1.9653,1.8426,1.7557,1.7685,1.7907,1.8287,1.9927,2.1741,2.3616,2.5153,2.6991,2.8906,3.0043,3.1001,3.1735,3.2317,3.2974,3.3732,3.434,3.5702,3.7277,3.7456,3.7668,3.7887,3.7937,3.7986,3.8069,3.8167,3.8115,3.7959,3.7415,3.7026,3.6637,3.6011,3.574,3.547,3.4861,3.4726,3.4353,3.3017,3.1861,3.033,2.8026,2.6826,2.5961,2.5382,2.427,2.3429,2.3215,0.0,0.0,0.0,0.0,0.0,0.0,0.0,0.0,0.0,0.0,0.0,2.184,0.0,2.4483,2.5099,2.8169,2.9673,2.9514,3.1006,3.1287,3.0343,3.0162,2.9842,2.9324,3.0564,3.0759,3.0265,3.1352,3.1703,3.1529,3.132,3.1408,3.1529,3.0831,3.0882,3.1162,3.0535,2.9982,2.951,2.1577,2.2492,2.3057,2.2304,2.2849,2.3459,2.368,2.4258,2.4703,2.4817,2.5199,2.5942,2.718,2.7207,2.7437,2.8011,2.8168,2.8206,2.8206,2.8427,2.8478,2.8424,2.7674,2.6762,2.5657,2.366,2.2302,2.1574,1.9946,1.8219,1.6493,1.7921,1.8822,1.9313,2.0567,2.2184,2.4024,2.5321,2.7292,2.9549,3.0223,3.127,3.2422,3.2497,3.3321,3.448,3.5095,3.6188,3.7494,3.8004,3.863,3.9126,3.9285,3.9337,3.9389,3.9648,3.9228,3.8756,3.877,3.7804,3.6755,3.6688,3.6146,3.5605,3.552,3.552,3.5284,3.4455,3.2303,3.0517,3.0259,2.845,2.7022,2.7136,2.6184,2.5445,2.551,2.4821,2.393,2.2886,0.0,0.0,0.0,2.1839,0.0,0.0,0.0,0.0,0.0,2.2599,2.3644,2.4544,2.6732,2.8459,2.9766,2.9754,2.9813,2.987,2.9149,2.878,2.8757,2.9916,3.0185,2.9623,3.0438,3.0203,2.9307,2.9319,2.9731,3.0469,3.0342,3.0629,3.1016,3.0949,3.0532,2.9996,2.2744,2.3179,2.3591,2.3598,2.4255,2.4836,2.4905,2.5474,2.6048,2.6579,2.6532,2.668,2.721,2.7584,2.7826,2.8066,2.8131,2.8197,2.8197,2.8276,2.8276,2.8276,2.7648,2.6939,2.6082,2.4492,2.3071,2.179,2.1027,1.9934,1.8592,1.9479,2.0121,2.0579,2.1442,2.3028,2.5214,2.6476,2.8189,3.0193,3.0851,3.1689,3.2557,3.2961,3.3679,3.458,3.5238,3.6322,3.7429,3.7648,3.8423,3.9325,3.9379,3.9448,3.9501,3.9659,3.9545,3.9379,3.8975,3.8195,3.7347,3.6891,3.6197,3.5622,3.5622,3.5622,3.5537,3.5233,3.3717,3.215,3.1314,3.0126,2.9179,2.8771,2.7656,2.6945,2.7197,2.6233,0.0,2.4298,0.0,0.0,0.0,0.0,0.0,0.0,0.0,0.0,0.0,2.2537,2.3649,2.4354,2.6391,2.7988,2.9024,2.9368,2.9268,2.8917,2.8546,2.8379,2.8316,2.951,2.9984,2.9986,2.9707,2.9319,2.8851,2.8851,2.902,2.9356,2.9213,2.9451,2.987,3.0271,3.0069,2.9627,2.3564,2.3926,2.4338,2.4834,2.5547,2.6076,2.6256,2.663,2.7099,2.7818,2.7659,2.7466,2.7466,2.7761,2.7947,2.7947,2.8,2.8,2.8,2.8079,2.8079,2.8079,2.7693,2.7187,2.6587,2.5283,2.3983,2.2618,2.1978,2.1056,1.9853,2.0119,2.0711,2.1625,2.2192,2.3653,2.575,2.7118,2.8691,3.0285,3.1349,3.2213,3.2871,3.3529,3.4203,3.4846,3.5325,3.6196,3.7131,3.731,3.8141,3.9023,3.9218,3.9379,3.9448,3.9501,3.9642,3.968,3.9228,3.8638,3.801,3.7249,3.6472,3.591,3.5645,3.5577,3.5577,3.5424,3.4392,3.3132,3.1932,3.1283,3.0699,3.0188,2.9215,2.8556,2.8649,2.7591,2.6421,2.5415,2.537,2.4674,2.2903,2.3079,0.0,0.0,0.0,0.0,0.0,2.29,2.4046,2.4636,2.6486,2.7812,2.8537,2.8961,2.8839,2.8287,2.8235,2.8183,2.8119,2.9085,2.9632,2.9768,2.902,2.8311,2.7855,2.7855,2.8016,2.8255,2.8108,2.8402,2.9008,2.9422,2.9415,2.9063,2.4092,2.4899,2.5716,2.5854,2.6375,2.6999,2.7583,2.7539,2.7615,2.8206,2.8183,2.8079,2.8079,2.7736,2.7523,2.7523,2.7723,2.7776,2.7776,2.8,2.8079,2.8079,2.8079,2.7799,2.7213,2.6028,2.4991,2.4253,2.2671,2.097,1.9189,1.9138,2.0227,2.2305,2.2875,2.3811,2.5129,2.6986,2.8439,2.9682,3.1664,3.2901,3.3559,3.4218,3.4891,3.5489,3.5504,3.591,3.6477,3.7191,3.7822,3.8407,3.9077,3.9272,3.9325,3.9448,3.9501,3.9537,3.9833,3.9362,3.8622,3.7864,3.7219,3.6569,3.5706,3.5549,3.5424,3.4927,3.3858,3.2821,3.2273,3.1602,3.1128,3.126,3.0941,3.0464,2.987,2.913,2.8033,2.6268,2.6204,2.5557,2.3663,2.384,0.0,0.0,0.0,0.0,0.0,2.3689,2.4751,2.5392,2.6811,2.7981,2.8691,2.8408,2.8287,2.8287,2.8197,2.8079,2.8119,2.8656,2.881,2.8718,2.8108,2.7092,2.5895,2.5895,2.6456,2.7185,2.7185,2.7787,2.8706,2.8706,2.8627,2.8294,2.6409,2.6368,2.6497,2.6995,2.7229,2.7488,2.7678,2.7981,2.8228,2.826,2.8197,2.8079,2.7934,2.7789,2.7656,2.7523,2.759,2.759,2.759,2.7669,2.7669,2.7669,2.7669,2.7407,2.6893,2.6512,2.5778,2.4793,2.4371,2.3662,2.2656,2.2671,2.3204,2.4152,2.4323,2.5288,2.6897,2.7991,2.9109,3.0292,3.1842,3.2901,3.3559,3.4218,3.4906,3.5504,3.5504,3.591,3.6492,3.7191,3.7822,3.8407,3.9077,3.9272,3.9325,3.9325,3.9448,3.9501,3.959,3.9175,3.8606,3.8355,3.7414,3.6488,3.6219,3.5609,3.5021,3.4833,3.3925,3.3073,3.2918,3.2394,3.2004,3.2058,3.1571,3.1244,3.1355,3.0768,2.9783,2.8297,2.8179,2.7121,2.4318,2.4404,0.0,0.0,0.0,0.0,2.2623,2.3467,2.4109,2.4492,2.5883,2.6931,2.7678,2.8026,2.8118,2.7973,2.7921,2.8278,2.8891,2.8869,2.8597,2.8243,2.7452,2.6599,2.5644,2.5464,2.579,2.6302,2.6135,2.6362,2.6835,2.7209,2.736,2.7209,2.7584,2.7429,2.7538,2.8207,2.8543,2.8722,2.8722,2.8955,2.9119,2.8959,2.8853,2.8664,2.8449,2.8449,2.821,2.7562,2.7523,2.7523,2.7523,2.7523,2.7523,2.7523,2.7523,2.7353,2.7,2.6778,2.6321,2.5664,2.5516,2.5227,2.4872,2.4872,2.4996,2.5301,2.5511,2.6245,2.7363,2.8271,2.9198,3.0239,3.1831,3.2892,3.3543,3.4543,3.513,3.5504,3.5504,3.5733,3.6133,3.6784,3.7413,3.8051,3.8717,3.9094,3.9272,3.9272,3.9379,3.9448,3.9501,3.9204,3.8838,3.8571,3.7652,3.6712,3.6236,3.5576,3.4944,3.4577,3.3969,3.3407,3.2986,3.2586,3.2342,3.2342,3.1949,3.1674,3.1731,3.1415,3.0795,2.9767,2.9549,2.8512,2.6158,2.5951,2.5639,0.0,0.0,2.4823,2.3926,2.4398,2.4804,2.5087,2.6007,2.6827,2.7506,2.783,2.7934,2.7789,2.7639,2.7976,2.8846,2.876,2.8617,2.8585,2.7947,2.6987,2.5968,2.579,2.5706,2.5633,2.5464,2.5549,2.5717,2.6091,2.6163,2.6047,2.7898,2.8343,2.8885,2.9442,3.0025,3.0405,3.0405,3.024,3.0089,3.0089,2.9894,2.9684,2.9487,2.9487,2.8969,2.7745,2.7641,2.7641,2.7641,2.7641,2.7641,2.7641,2.7641,2.7641,2.7641,2.7079,2.6778,2.6739,2.6203,2.5942,2.5942,2.5942,2.5942,2.5968,2.6491,2.6739,2.683,2.7994,2.882,2.9602,3.164,3.2817,3.3551,3.4896,3.5424,3.5504,3.5504,3.5504,3.5554,3.6196,3.6829,3.7413,3.8124,3.8717,3.9218,3.9272,3.9272,3.9325,3.9432,3.9501,3.9335,3.8635,3.797,3.7164,3.5849,3.548,3.5135,3.4185,3.3919,3.3614,3.2547,3.2287,3.2191,3.2191,3.2094,3.1825,3.135,3.1274,3.1121,3.0655,3.0308,2.967,2.8713,2.8171,2.7426,2.6382,2.609,2.593,2.5937,2.6176,2.6476,2.6736,2.7001,2.7385,2.7906,2.7784,2.7776,2.7789,2.7341,2.746,2.8072,2.835,2.8667,2.9172,2.9003,2.7959,2.6362,2.6362,2.5863,2.52,2.52,2.52,2.52,2.52,2.5031,2.4861,2.986,2.9889,3.0025,3.0161,3.031,3.0336,3.0171,3.0158,3.0019,2.9684,2.9614,2.9487,2.9345,2.9345,2.924,2.8882,2.8869,2.8869,2.8869,2.8869,2.8869,2.8869,2.8869,2.8869,2.8869,2.8281,2.7758,2.7327,2.7196,2.7131,2.7131,2.7131,2.7131,2.7131,2.7262,2.7327,2.7327,2.8168,2.882,2.9535,3.1068,3.2362,3.3485,3.4295,3.4986,3.5504,3.5504,3.5504,3.5554,3.6196,3.6492,3.6829,3.7937,3.8407,3.8645,3.9148,3.9272,3.9325,3.9325,3.9325,3.9292,3.911,3.8218,3.7119,3.625,3.5345,3.4529,3.3869,3.3355,3.2895,3.2191,3.2038,3.2053,3.2053,3.2053,3.1936,3.1825,3.181,3.1622,3.099,3.083,3.025,2.8926,2.8717,2.8349,2.7573,2.743,2.7403,2.7328,2.6946,2.6507,2.5974,2.6505,2.69,2.7033,2.7367,2.7523,2.7416,2.7381,2.7385,2.7545,2.7866,2.7566,2.6894,2.6812,2.6246,2.5274,2.5041,2.5031,2.52,2.5031,2.5031,2.52,2.5031,2.4946,2.4861,3.0473,3.0622,3.0812,3.0812,3.1042,3.1135,3.098,3.0851,3.0708,3.0336,3.0263,3.0131,3.0059,3.0059,3.0059,3.0059,2.9588,2.9274,2.9274,2.9274,2.9274,2.9274,2.9274,2.9274,2.9274,2.8961,2.8634,2.8333,2.8333,2.8333,2.8333,2.8333,2.8333,2.8333,2.8333,2.8333,2.8333,2.8716,2.9185,2.9814,3.0856,3.1901,3.2901,3.3912,3.4595,3.4986,3.5359,3.5504,3.5569,3.5846,3.6148,3.643,3.7175,3.7589,3.7822,3.8311,3.8843,3.9272,3.9272,3.9094,3.8707,3.8089,3.7384,3.6592,3.5587,3.488,3.4237,3.3419,3.2986,3.2641,3.2094,3.194,3.1898,3.1898,3.1826,3.1826,3.1898,3.1898,3.1819,3.1496,3.145,3.104,2.9978,2.9713,2.9241,2.825,2.8123,2.7923,2.7621,2.7344,2.6988,2.6566,2.6638,2.6804,2.7053,2.7313,2.7101,2.6569,2.6736,2.6733,2.6688,2.6932,2.6976,2.673,2.6565,2.608,2.5263,2.5179,2.5031,2.4871,2.4786,2.4786,2.4871,2.4786,2.47,2.47,3.0607,3.1013,3.1351,3.1351,3.1771,3.2036,3.1817,3.1669,3.1522,3.1272,3.1136,3.0986,3.0986,3.0986,3.0986,3.0986,3.0098,2.9536,2.9536,2.9536,2.9536,2.9536,2.9536,2.9536,2.9536,2.9457,2.9366,2.9274,2.9274,2.9274,2.9274,2.9274,2.9274,2.9287,2.9274,2.9274,2.9287,2.9274,2.9614,3.0124,3.0722,3.1415,3.2218,3.3478,3.4041,3.4312,3.5067,3.5359,3.5439,3.5439,3.5653,3.607,3.6243,3.66,3.7011,3.731,3.8141,3.9023,3.9023,3.8606,3.7906,3.6759,3.6379,3.5969,3.4825,3.4444,3.4067,3.2982,3.2749,3.2586,3.2038,3.1826,3.1727,3.1727,3.1597,3.1539,3.1727,3.1727,3.1784,3.1754,3.1739,3.1528,3.0844,3.0488,2.9824,2.8555,2.833,2.7974,2.7293,2.7394,2.7433,2.7498,2.705,2.6974,2.7242,2.7121,2.6502,2.55,2.5716,2.5776,2.5608,2.5848,2.634,2.7058,2.6823,2.6246,2.5579,2.5579,2.5094,2.4368,2.4368,2.4368,2.4368,2.4368,2.4454,2.4454,3.1694,3.1761,3.1756,3.1609,3.1616,3.1596,3.1421,3.1347,3.1272,3.1061,3.0986,3.0986,3.0986,3.0986,3.0986,3.0986,3.083,3.0725,3.0725,3.0725,3.0725,3.0725,3.0725,3.0725,3.0725,3.0255,2.9771,2.9274,2.9274,2.9274,2.9274,2.9274,2.9216,2.9074,2.9216,2.9216,2.9074,2.9216,2.9614,3.0137,3.0025,3.0778,3.1869,3.2074,3.2918,3.3934,3.4206,3.4721,3.5213,3.5067,3.5133,3.5459,3.5864,3.6117,3.643,3.7011,3.7429,3.7663,3.7663,3.7605,3.7515,3.7286,3.6785,3.608,3.53,3.4683,3.3904,3.2686,3.2437,3.2287,3.1697,3.1539,3.1539,3.1539,3.1539,3.1539,3.1539,3.1539,3.1336,3.0777,3.0703,3.0466,2.9807,2.9563,2.9177,2.8389,2.8136,2.7749,2.7072,2.7095,2.7108,2.7072,2.7139,2.6815,2.6102,2.5906,2.5453,2.4609,2.4567,2.4579,2.453,2.4713,2.4871,2.4946,2.4946,2.47,2.4444,2.4444,2.4272,2.3927,2.3927,2.3927,2.3927,2.3927,2.4024,2.4292,3.1743,3.1743,3.1683,3.1609,3.1609,3.1522,3.1347,3.1272,3.1198,3.1061,3.0986,3.0986,3.0986,3.0986,3.0986,3.0986,3.0986,3.0986,3.0986,3.0986,3.0986,3.0986,3.0986,3.0986,3.0986,3.0725,3.0464,3.0202,3.0202,3.0202,3.0202,3.0202,3.0129,2.9921,2.9995,2.9908,2.9761,2.9822,3.0051,3.0284,3.0121,3.0488,3.1084,3.1516,3.2015,3.2648,3.3575,3.4153,3.4505,3.4787,3.4935,3.5067,3.5299,3.5429,3.5559,3.5991,3.6707,3.731,3.6951,3.6829,3.6784,3.6445,3.6153,3.5585,3.4586,3.4035,3.3472,3.2179,3.1838,3.1724,3.1467,3.1307,3.1307,3.1307,3.1307,3.1307,3.1307,3.1307,3.1043,3.0329,3.0208,2.995,2.9317,2.9093,2.8725,2.8012,2.7947,2.7564,2.6863,2.6943,2.6943,2.6875,2.7011,2.693,2.6427,2.5849,2.5337,2.4765,2.4426,2.4212,2.4119,2.4229,2.4368,2.4454,2.4186,2.411,2.4206,2.4024,2.3927,2.3841,2.3841,2.3841,2.3841,2.3841,2.3841,2.4024,3.1522,3.1522,3.1522,3.1447,3.1447,3.1447,3.1272,3.1198,3.1198,3.0986,3.0986,3.0986,3.0986,3.0986,3.0986,3.0986,3.0986,3.0986,3.0986,3.0986,3.0986,3.0986,3.0986,3.0986,3.0986,3.0911,3.0911,3.0986,3.0911,3.0911,3.0986,3.0911,3.0761,3.0622,3.0622,3.0533,3.0292,3.0368,3.0368,3.0368,3.0368,3.0292,3.0355,3.0777,3.1022,3.1289,3.243,3.293,3.3203,3.3854,3.4134,3.42,3.4281,3.4361,3.4427,3.4573,3.5535,3.6424,3.64,3.6321,3.6085,3.5554,3.5439,3.5145,3.3737,3.3499,3.3125,3.175,3.1351,3.1278,3.1234,3.119,3.1087,3.1087,3.1087,3.1087,3.1087,3.094,3.0553,2.9827,2.9628,2.9254,2.8634,2.839,2.8078,2.7484,2.751,2.7255,2.6658,2.6807,2.6807,2.6658,2.6807,2.6807,2.6589,2.5709,2.5039,2.4568,2.4073,2.379,2.365,2.3924,2.419,2.4368,2.4013,2.3937,2.4024,2.3841,2.3667,2.3667,2.3667,2.3667,2.3667,2.3667,2.3667,2.3754,3.1347,3.1347,3.1272,3.1061,3.1061,3.1061,3.0986,3.0986,3.0986,3.0986,3.0986,3.0986,3.0986,3.0986,3.0986,3.0986,3.0986,3.0986,3.0986,3.0986,3.0986,3.0986,3.0986,3.0986,3.0986,3.0849,3.0849,3.0986,3.0596,3.0596,3.0986,3.0596,3.0444,3.0444,3.0444,3.0292,3.0152,3.0292,3.0368,3.0368,3.0228,3.0152,3.0088,2.9541,2.9709,3.0144,2.9963,3.0363,3.1017,3.1541,3.182,3.2003,3.2515,3.2786,3.2928,3.2991,3.3291,3.4027,3.5906,3.5958,3.5489,3.5294,3.5359,3.5081,3.3597,3.3362,3.305,3.1618,3.1278,3.1234,3.1132,3.1087,3.1087,3.1087,3.1087,3.1087,3.1087,3.0539,2.9827,2.9129,2.8556,2.7868,2.7201,2.6998,2.685,2.6782,2.6658,2.6589,2.6521,2.6533,2.6533,2.6521,2.6533,2.6176,2.5453,2.4636,2.3768,2.2863,2.2692,2.2791,2.3012,2.337,2.3808,2.4206,2.3927,2.3667,2.359,2.3503,2.3406,2.3135,2.3135,2.3135,2.3135,2.3135,2.3319,2.3503,3.1136,3.1136,3.1061,3.0986,3.0986,3.0986,3.0986,3.0986,3.0986,3.0986,3.0986,3.0986,3.0986,3.0986,3.0986,3.0986,3.0986,3.0986,3.0986,3.0986,3.0986,3.0986,3.0986,3.0911,3.0849,3.0773,3.0685,3.0596,3.0444,3.052,3.0596,3.0444,3.0292,3.0228,3.0228,3.0075,2.9934,3.0011,3.0011,3.0011,2.9934,2.9719,2.9303,2.9076,2.8923,2.8886,2.9301,2.9561,2.9966,3.0596,3.1202,3.173,3.1838,3.232,3.2796,3.2796,3.2956,3.328,3.4068,3.4233,3.4088,3.4025,3.3995,3.368,3.27,3.2492,3.2301,3.1368,3.1073,3.0999,3.094,3.0821,3.0762,3.0762,3.0762,3.0762,3.0762,3.0176,2.947,2.8748,2.8117,2.7417,2.6726,2.6589,2.6589,2.6589,2.6521,2.6533,2.6533,2.6396,2.6396,2.6533,2.6396,2.6258,2.6025,2.4624,2.3745,2.339,2.2562,2.2341,2.2625,2.2996,2.3438,2.3937,2.358,2.3406,2.3503,2.3319,2.3232,2.3135,2.3135,2.3135,2.3135,2.3135,2.3144,2.3232,3.0986,3.0986,3.0986,3.0986,3.0986,3.0986,3.0986,3.0986,3.0986,3.0986,3.0986,3.0986,3.0986,3.0986,3.0986,3.0986,3.0986,3.0986,3.0986,3.0911,3.0911,3.0911,3.0911,3.0836,3.0609,3.0533,3.0457,3.0368,3.0292,3.0292,3.0368,3.0292,3.0152,3.0075,3.0011,2.9934,2.9792,2.9792,2.9792,2.9792,2.9792,2.9553,2.9164,2.8812,2.8436,2.8132,2.8338,2.842,2.8547,2.928,2.9874,3.0405,3.0498,3.0968,3.1432,3.1432,3.153,3.1705,3.197,3.2123,3.2364,3.2992,3.3051,3.2783,3.2088,3.2001,3.1824,3.1146,3.0895,3.0762,3.0762,3.0642,3.0568,3.0568,3.0568,3.0507,3.0312,2.967,2.8967,2.8182,2.7484,2.6905,2.6383,2.6327,2.6327,2.6327,2.6396,2.6396,2.6396,2.627,2.6201,2.6327,2.6201,2.6201,2.6327,2.4921,2.4036,2.3672,2.2558,2.2127,2.2241,2.2536,2.2983,2.3477,2.326,2.3232,2.3319,2.3144,2.3135,2.3135,2.3135,2.3135,2.3135,2.3135,2.3135,2.3135,3.0986,3.0986,3.0986,3.0986,3.0986,3.0986,3.0986,3.0986,3.0986,3.0986,3.0986,3.0986,3.0986,3.0986,3.0986,3.0986,3.0986,3.0986,3.0986,3.0849,3.0698,3.0698,3.0698,3.0609,3.0368,3.0228,3.0228,3.0368,3.0011,3.0011,3.0368,3.0011,2.9934,3.0075,2.9869,2.9792,2.9792,2.9792,2.9792,2.9792,2.9792,2.9792,2.9666,2.8536,2.8109,2.7959,2.6866,2.6533,2.6589,2.7297,2.7484,2.7604,2.8298,2.8492,2.8492,2.8492,2.8648,2.8917,2.9623,2.9808,3.0244,3.2256,3.2864,3.2783,3.198,3.188,3.1749,3.0953,3.0762,3.0762,3.0642,3.0568,3.0568,3.0568,3.0568,3.0326,2.9685,2.8967,2.8182,2.7284,2.6589,2.6131,2.591,2.591,2.591,2.591,2.6062,2.6213,2.6213,2.6213,2.6131,2.591,2.591,2.591,2.591,2.5312,2.4492,2.3514,2.2745,2.2112,2.162,2.1997,2.2443,2.2889,2.3046,2.3135,2.3135,2.3135,2.3135,2.3135,2.3135,2.3135,2.3135,2.3135,2.3135,2.3135,3.0986,3.0986,3.0986,3.0986,3.0986,3.0986,3.0986,3.0986,3.0986,3.0986,3.0986,3.0986,3.0986,3.0986,3.0911,3.0773,3.0773,3.0761,3.0596,3.0609,3.0546,3.0305,3.0381,3.0381,3.0228,3.0152,3.0088,3.0011,2.9869,2.9869,3.0011,2.9869,2.9869,2.9869,2.9869,2.9792,2.9792,2.9792,2.9792,2.9792,2.9792,2.9553,2.9151,2.8812,2.8197,2.7494,2.7155,2.6791,2.6521,2.6714,2.7095,2.7604,2.8298,2.8492,2.8492,2.8492,2.8556,2.8634,2.8826,2.8889,2.9176,3.0401,3.0625,3.0429,2.9652,2.9939,3.0283,3.0036,3.0312,3.0642,3.0628,3.019,2.987,2.987,2.947,2.9079,2.8889,2.8247,2.767,2.7229,2.6589,2.6131,2.591,2.591,2.591,2.591,2.598,2.598,2.598,2.584,2.584,2.591,2.5758,2.5758,2.591,2.5016,2.4409,2.4108,2.266,2.2014,2.2165,2.1679,2.1742,2.2183,2.2519,2.2705,2.2725,2.3018,2.3135,2.3135,2.3135,2.3135,2.3135,2.3135,2.3135,2.3135,3.0986,3.0986,3.0986,3.0986,3.0986,3.0986,3.0986,3.0986,3.0986,3.0986,3.0986,3.0986,3.0986,3.0986,3.0911,3.0698,3.0622,3.0533,3.0444,3.0457,3.0394,3.0075,3.0152,3.0075,3.0011,3.0011,2.9934,2.9792,2.9792,2.9792,2.9792,2.9792,2.9792,2.9792,2.9792,2.9792,2.9792,2.9792,2.9792,2.9792,2.9792,2.9578,2.9252,2.9013,2.8511,2.7871,2.7444,2.7067,2.6753,2.6596,2.6782,2.7162,2.7604,2.7736,2.7736,2.7736,2.7736,2.7802,2.8051,2.8117,2.8247,2.8776,2.903,2.903,2.862,2.8826,2.9156,2.9156,2.947,2.9794,2.9794,2.9407,2.9156,2.9156,2.8762,2.8427,2.8117,2.7736,2.7284,2.6769,2.6314,2.598,2.5688,2.5676,2.5688,2.5758,2.5758,2.5758,2.5758,2.5688,2.5606,2.5676,2.5535,2.5535,2.5676,2.5087,2.4636,2.4409,2.2947,2.2216,2.2113,2.1461,2.1296,2.1559,2.1894,2.2175,2.2273,2.262,2.2824,2.2969,2.3057,2.3135,2.3135,2.3135,2.3135,2.3135,3.0986,3.0986,3.0986,3.0986,3.0986,3.0986,3.0986,3.0986,3.0986,3.0986,3.0986,3.0986,3.0986,3.0986,3.0836,3.0698,3.0457,3.0368,3.0368,3.0228,3.0075,3.0075,2.9934,2.9792,2.9792,2.9792,2.9792,2.9792,2.9792,2.9792,2.9792,2.9792,2.9792,2.9792,2.9792,2.9792,2.9792,2.9792,2.9792,2.9792,2.9792,2.9792,2.9729,2.9202,2.8976,2.88,2.7795,2.7369,2.7205,2.6653,2.6533,2.6533,2.6533,2.6533,2.6533,2.6533,2.6533,2.6658,2.7229,2.7417,2.7417,2.7417,2.7855,2.8298,2.8298,2.8363,2.8427,2.8427,2.8427,2.8492,2.8492,2.8427,2.8427,2.8427,2.8363,2.8117,2.7484,2.7417,2.7027,2.6037,2.591,2.5688,2.5312,2.5312,2.5382,2.5535,2.5535,2.5535,2.5535,2.5535,2.5453,2.5312,2.5312,2.5312,2.5312,2.5312,2.5004,2.448,2.3537,2.266,2.1928,2.144,2.1082,2.0851,2.1265,2.1511,2.1731,2.2064,2.2399,2.2746,2.295,2.3047,2.3057,2.3057,2.3047,2.3135,3.0986,3.0986,3.0986,3.0986,3.0986,3.0911,3.0773,3.0773,3.0685,3.052,3.052,3.052,3.052,3.052,3.0444,3.0228,3.0088,2.9934,2.9934,3.0011,3.0011,2.9869,2.9934,2.9934,2.9792,2.9792,2.9792,2.9792,2.9792,2.9792,2.9792,2.9792,2.9792,2.9792,2.9792,2.9792,2.9792,2.9792,2.9792,2.9792,2.9792,2.9792,2.9779,2.9654,2.9327,2.89,2.8662,2.8009,2.7205,2.6653,2.6533,2.6533,2.6533,2.6533,2.6533,2.6533,2.6533,2.6521,2.6658,2.6714,2.6714,2.6714,2.685,2.6905,2.6905,2.7351,2.7736,2.7736,2.8117,2.8492,2.8492,2.8051,2.7736,2.7736,2.7297,2.6905,2.6714,2.6589,2.6327,2.598,2.5758,2.5535,2.5312,2.5312,2.5312,2.5382,2.5382,2.5382,2.5382,2.5382,2.5382,2.5312,2.5312,2.5312,2.5312,2.5312,2.5229,2.5087,2.4264,2.3463,2.2734,2.2022,2.1238,2.0418,2.0841,2.0991,2.0898,2.1561,2.1969,2.2083,2.2397,2.2706,2.2891,2.2891,2.2969,2.3135,3.0986,3.0986,3.0986,3.0986,3.0986,3.0911,3.0698,3.0698,3.0622,3.0444,3.0368,3.0368,3.0368,3.0368,3.0292,3.0152,2.9934,2.9792,2.9792,2.9856,2.9934,2.9792,2.9856,2.9934,2.9792,2.9792,2.9792,2.9792,2.9792,2.9792,2.9792,2.9792,2.9792,2.9792,2.9792,2.9792,2.9792,2.9792,2.9792,2.9792,2.9792,2.9792,2.9792,2.9792,2.9603,2.9302,2.9026,2.8386,2.7632,2.7344,2.7243,2.7205,2.6929,2.6854,2.6804,2.6609,2.6533,2.6533,2.6533,2.6533,2.6533,2.6533,2.6533,2.6533,2.6533,2.6782,2.704,2.704,2.7284,2.7537,2.7537,2.7297,2.704,2.704,2.6714,2.6465,2.6396,2.627,2.6062,2.5758,2.5676,2.5535,2.5312,2.5312,2.5312,2.5312,2.5312,2.5312,2.5312,2.5312,2.5312,2.5312,2.5312,2.5312,2.5312,2.5312,2.5312,2.5312,2.4288,2.3559,2.2957,2.2004,2.1021,2.0117,2.0327,2.0377,2.0289,2.0893,2.1297,2.1663,2.1976,2.2358,2.2618,2.2618,2.2794,2.2969,3.0911,3.0911,3.0911,3.0911,3.0911,3.0836,3.0622,3.0622,3.0546,3.0292,3.0292,3.0292,3.0292,3.0292,3.0228,3.0088,2.9856,2.9792,2.9792,2.9792,2.9792,2.9792,2.9792,2.9792,2.9792,2.9792,2.9792,2.9792,2.9792,2.9792,2.9792,2.9792,2.9792,2.9792,2.9624,2.9624,2.9792,2.9624,2.9624,2.9792,2.9792,2.9792,2.9792,2.9792,2.9792,2.9729,2.9252,2.8712,2.8235,2.8134,2.8109,2.8021,2.757,2.7419,2.7331,2.6866,2.6747,2.6672,2.6672,2.6596,2.6533,2.6533,2.6533,2.6533,2.6533,2.6533,2.6533,2.6533,2.6533,2.6533,2.6533,2.6533,2.6533,2.6533,2.6533,2.6396,2.6201,2.6131,2.5992,2.5606,2.5535,2.5465,2.5312,2.5158,2.5158,2.5312,2.5158,2.5158,2.53,2.5312,2.5312,2.5312,2.5312,2.5312,2.5312,2.5158,2.5087,2.5087,2.402,2.3276,2.2872,2.1863,2.0809,1.9863,1.9863,1.9823,1.9833,2.0151,2.0699,2.136,2.1616,2.1985,2.2353,2.2353,2.253,2.2706,3.052,3.0609,3.0698,3.052,3.052,3.0444,3.0228,3.0152,3.0088,2.9934,2.9869,2.9869,2.9869,2.9869,2.9869,2.9869,2.9792,2.9792,2.9792,2.9792,2.9792,2.9792,2.9792,2.9792,2.9792,2.9792,2.9792,2.9792,2.9792,2.9792,2.9792,2.9792,2.9792,2.9792,2.904,2.9118,2.9792,2.8961,2.9131,2.9792,2.9792,2.9792,2.9792,2.9792,2.9792,2.9779,2.9704,2.9302,2.875,2.8273,2.8109,2.8097,2.8009,2.7996,2.7984,2.7908,2.7544,2.7168,2.7168,2.6816,2.6533,2.6533,2.6533,2.6533,2.6533,2.6533,2.6533,2.6533,2.6533,2.6533,2.6533,2.6533,2.6533,2.6533,2.6533,2.6396,2.6201,2.6062,2.584,2.5606,2.5453,2.5312,2.5312,2.4636,2.4564,2.5229,2.4636,2.4564,2.5229,2.5312,2.5312,2.5312,2.5312,2.5312,2.5312,2.4636,2.4264,2.4264,2.3423,2.2905,2.2627,2.2381,2.1252,1.9645,1.9784,1.9734,1.9412,1.9778,2.02,2.0631,2.1065,2.154,2.2185,2.2353,2.2441,2.2441,3.0444,3.0444,3.052,3.0444,3.0368,3.0292,3.0152,3.0075,3.0011,2.9869,2.9792,2.9792,2.9792,2.9792,2.9792,2.9792,2.9792,2.9792,2.9792,2.9792,2.9792,2.9792,2.9792,2.9792,2.9792,2.9792,2.9792,2.9792,2.93,2.904,2.904,2.904,2.9287,2.9792,2.8882,2.8712,2.904,2.8131,2.8211,2.904,2.904,2.9378,2.9792,2.9792,2.9792,2.9792,2.9792,2.9628,2.9377,2.9126,2.9051,2.8988,2.8662,2.8561,2.8511,2.8197,2.7934,2.7745,2.7745,2.7557,2.7306,2.6992,2.6917,2.6841,2.6596,2.6533,2.6533,2.6533,2.6533,2.6533,2.6533,2.6533,2.6465,2.6339,2.6339,2.6188,2.591,2.5758,2.5676,2.5465,2.5382,2.5087,2.4636,2.4707,2.4564,2.4059,2.4047,2.4047,2.3986,2.442,2.4636,2.4636,2.5087,2.5312,2.5312,2.448,2.4108,2.412,2.3032,2.2521,2.2446,2.209,2.1339,2.0333,1.9951,1.9636,1.9487,1.9503,1.9824,2.0228,2.0622,2.1259,2.1919,2.2008,2.2087,2.2264]}]]